     2              OBSERVATION DATA    GPS                 RINEX VERSION / TYPE
ASRINEXO V2.2.0 UX USGS 02-FEB-94 15:25                     PGM / RUN BY / DATE
                                                            COMMENT
Original Marker Name: ch33 Chatsworth_RE62_No1_1933_LA      COMMENT
Campaign Name: northridge earthquake profile                COMMENT
4-Character Station Name: CH33                              COMMENT
6-Character Antenna Code: ASHP12                            COMMENT
Vertical Measurement Point: EGP                             COMMENT
Vertical Offset to Rinex Ref. Point: 0.0593                 COMMENT
Radial Measurement Point: EGP                               COMMENT
Radial Offset to Rinex Ref. Point: 0.1425                   COMMENT
Antenna Height from Field Measurement: 0.8750 m             COMMENT
Additional Antenna Identification Info.:                    COMMENT
Ashtech L1/L2 Revision B                                    COMMENT
Original XYZ: -2529764.9000 -4632086.4700 3570408.7100      COMMENT
New XYZ position is based on association with SCEC monument COMMENT
E1E9I1E1+0111. Position of that monument is believed to be  COMMENT
valid to within 1 m horizontally; vertical accuracy         COMMENT
should be no worse than 3-times this value.                 COMMENT
                                                            COMMENT
Revised Rinex header created by UCSD GPS archive for        COMMENT
GSAC on 31-Aug-1999 (1999:243) 02:50:28 GMT                 COMMENT
For assistance contact dagnew@ucsd.edu or hjohnson@ucsd.edu COMMENT
                                                            COMMENT
CH33 CHATSWORTH_RE62_NO1_1933_LA                            MARKER NAME
                                                            MARKER NUMBER
WKG US GEOLOGICAL SURVEY                                    OBSERVER / AGENCY
104 ASHTECH L-XII 7A                                        REC # / TYPE / VERS
68 ASHTECH GEODETIC P                                       ANT # / TYPE
 -2529751.0000 -4632032.0000  3570417.0000                  APPROX POSITION XYZ
        0.8040        0.0000        0.0000                  ANTENNA: DELTA H/E/N
     1     2     0                                          WAVELENGTH FACT L1/2
     3    C1    L1    L2                                    # / TYPES OF OBSERV
    30                                                      INTERVAL
  1994     2     2     0    53   30.000000                  TIME OF FIRST OBS
  1994     2     2     7    17   30.000000                  TIME OF LAST OBS
                                                            END OF HEADER
 94  2  2  0 53 30.0000000  0  4  2 18  7 19
  21059577.788     5023689.20118    -56842.648 3
  24746790.943    18406359.08415    124948.852
  21949493.112     2868308.11817   -198653.054 2
  21710214.781    -1195715.13017     44801.955
 94  2  2  0 54  0.0000000  0  7 15  2 27 18  7 19 31
  24546843.554    -3353775.74914    -32021.001
  21054993.991     4999584.031 9    -75625.874 6
  20291265.299     -142417.19418      2886.190
  24766876.108    18511883.496 5    207175.791 1
  21932042.613     2776607.197 7   -270108.260 4
  21718995.702    -1149539.281 7     80781.681
  24328429.189     -270506.95915     49711.190
 94  2  2  0 54 30.0000000  0  7 15  2 27 18  7 19 31
  24534886.991    -3416678.726 5    -81048.361
  21050459.570     4975758.934 9    -94190.873 7
  20291998.951     -138570.530 8      5887.666
  24786969.638    18617513.829 5    289485.053 1
  21914674.317     2685318.095 7   -341242.587 5
  21727857.177    -1102978.902 7    117062.538 2
  24346242.737     -176883.300 5    122664.633 1
 94  2  2  0 55  0.0000000  0  8 15  2 27 18  7 26 19 31
  24522976.147    -3479107.137 4   -129693.867 1
  21045995.840     4952309.801 9   -112462.901 7
  20292839.120     -134154.839 8      9332.269 1
  24807112.393    18723332.031 5    371940.795 1
  21897404.562     2594562.466 7   -411961.220 5
  23765240.277    -7802965.09316   -155990.622
  21736819.233    -1055909.444 7    153740.029 3
  24364140.586      -82851.878 5    195935.909 1
 94  2  2  0 55 30.0000000  0  8 15  2 27 18  7 26 19 31
  24511206.235    -3541101.058 5   -178000.715 1
  21041599.564     4929202.741 9   -130468.386 8
  20293779.958     -129221.589 8     13178.629 1
  24827272.537    18829284.122 5    454500.857 1
  21880223.696     2504291.075 7   -482302.551 6
  23749044.858    -7888089.706 6   -222321.650 1
  21745862.772    -1008388.340 7    190769.449 4
  24382103.581       11540.101 5    269488.088 2
 94  2  2  0 56  0.0000000  0  8 15  2 27 18  7 26 19 31
  24499493.164    -3602628.751 5   -225944.334 1
  21037277.036     4906480.827 9   -148173.765 8
  20294820.538     -123753.023 8     17430.453 1
  24847453.216    18935393.472 5    537183.453 1
  21863142.781     2414525.951 7   -552249.369 6
  23732937.189    -7972741.730 6   -288284.192 1
  21754992.412     -960400.858 7    228162.290 4
  24400134.928      106319.212 5    343341.955 2
 94  2  2  0 56 30.0000000  0  8 15  2 27 18  7 26 19 31
  24487851.443    -3663701.979 4   -273533.746 1
  21033024.000     4884134.141 8   -165586.745 9
  20295956.002     -117766.931 8     22097.871 1
  24867667.292    19041626.576 5    619962.461 1
  21846156.181     2325263.291 7   -621804.664 6
  23716917.420    -8056926.122 6   -353882.392 2
  21764207.643     -911970.685 7    265900.104 5
  24418240.564      201456.769 5    417475.128 2
 94  2  2  0 57  0.0000000  0  7 15  2 27  7 26 19 31
  24476324.123    -3724321.290 4   -320769.454 1
  21028843.934     4862182.954 9   -182691.555 9
  20297198.732     -111258.467 8     27175.583 1
  21829267.612     2236508.016 7   -690964.590 6
  23700989.177    -8140626.783 6   -419103.590 2
  21773508.434     -863103.218 7    303978.650 5
  24436400.432      296930.274 5    491870.106 2
 94  2  2  0 57 30.0000000  0  7 15  2 27  7 26 19 31
  24464877.148    -3784504.111 5   -367665.036 1
  21024742.773     4840617.320 8   -199495.930 9
  20298531.819     -104237.314 8     32656.384
  21812472.160     2148235.557 7   -759748.295 6
  23685155.638    -8223835.277 6   -483941.361 2
  21782885.672     -813827.804 7    342375.073 5
  24454631.411      392722.182 5    566513.207 2
 94  2  2  0 58  0.0000000  0  7 15  2 27  7 26 19 31
  24453511.956    -3844237.516 5   -414210.516 2
  21020713.053     4819442.472 9   -215995.790 9
  20299973.461      -96676.645 8     38549.224 4
  21795767.484     2060459.448 7   -828145.217 6
  23669416.834    -8306527.490 6   -548376.758 2
  21792338.578     -764133.159 7    381098.172 5
  24472932.272      488843.144 5    641412.631 2
 94  2  2  0 58 30.0000000  0  7 15  2 27  7 26 19 31
  24442232.445    -3903529.720 5   -460412.153 2
  21016753.215     4798638.902 8   -232206.344 9
  20301517.662      -88571.389 8     44865.013 6
  21779158.053     1973180.796 7   -896154.544 7
  23653773.783    -8388721.003 6   -612423.596 2
  21801872.937     -714038.238 7    420133.168 5
  24491286.435      585290.967 5    716566.837 2
 94  2  2  0 59  0.0000000  0  7 15  2 27  7 26 19 31
  24431036.036    -3962385.859 5   -506274.021 2
  21012863.377     4778200.391 9   -248132.492 9
  20303158.306      -79929.769 8     51598.717 7
  21762639.728     1886381.211 7   -963790.595 7
  23638225.617    -8470435.177 6   -676096.979 2
  21811479.967     -663547.066 7    459476.888 5
  24509703.256      682071.811 5    791980.495 2
 94  2  2  0 59 30.0000000  0  7 15  2 27  7 26 19 31
  24419904.202    -4020808.087 4   -551797.706 2
  21009037.306     4758090.981 9   -263802.152 9
  20304905.766      -70759.179 8     58744.637 8
  21746213.979     1800053.924 7  -1031058.595 7
  23622765.770    -8551685.999 5   -739409.267 2
  21821163.533     -612667.483 7    499123.282 5
  24528189.658      779191.160 5    867657.940 2
 94  2  2  1  0  0.0000000  0  7 15  2 27  7 26 19 31
  24408866.234    -4078802.365 4   -596988.001 2
  21005268.255     4738285.356 9   -279235.071 9
  20306747.151      -61078.137 8     66288.325 9
  21729874.751     1714192.986 7  -1097963.176 7
  23607386.776    -8632487.639 6   -802371.526 2
  21830915.572     -561415.701 7    539059.756 5
  24546722.138      876630.189 5    943584.503 2
 94  2  2  1  0 30.0000000  0  7 15  2 27  7 26 19 31
  24397908.220    -4136371.449 4   -641846.967 2
  21001560.003     4718779.909 9   -294434.114 9
  20308681.263      -50904.480 8     74215.859 9
  21713622.582     1628799.121 7  -1164503.822 7
  23592096.461    -8712842.910 6   -864985.941 2
  21840739.141     -509774.162 7    579299.895 5
  24565326.239      974372.208 5   1019747.133 2
 94  2  2  1  1  0.0000000  0  7 15  2 27  7 26 19 31
  24387039.574    -4193527.634 5   -686384.175 2
  20997897.498     4699548.548 9   -309419.545 9
  20310710.198      -40257.833 8     82511.990 9
  21697459.032     1543850.353 7  -1230697.605 7
  23576891.348    -8792762.617 6   -927260.963 2
  21850641.975     -457731.242 7    619852.848 5
  24583974.019     1072391.669 5   1096126.004 2
 94  2  2  1  1 30.0000000  0  7 15  2 27  7 26 19 31
  24376248.005    -4250267.879 5   -730597.271 2
  20994289.796     4680599.075 8   -324185.355 9
  20312824.664      -29131.593 8     91181.796 9
  21681380.772     1459366.824 7  -1296528.895 7
  23561766.429    -8872238.778 6   -989190.390 2
  21860625.904     -405285.195 7    660719.885 5
  24602676.691     1170674.038 5   1172709.689 2
 94  2  2  1  2  0.0000000  0  7 15  2 27  7 26 19 31
  24365521.670    -4306595.831 5   -774489.125 2
  20990740.613     4661950.110 9   -338716.985 9
  20315031.406      -17544.542 8    100210.678 9
  21665394.280     1375345.407 7  -1362000.065 7
  23546724.012    -8951268.887 6  -1050772.191 2
  21870684.090     -352432.861 7    701903.525 5
  24621425.232     1269203.400 4   1249485.866 2
 94  2  2  1  2 30.0000000  0  7 15  2 27  7 26 19 31
  24354881.167    -4362517.479 5   -818064.343 2
  20987251.148     4643600.795 9   -353015.134 9
  20317321.221       -5500.306 8    109595.802 9
  21649489.151     1291775.492 7  -1427119.458 7
  23531773.062    -9029860.861 6  -1112012.639 2
  21880818.724     -299176.154 7    743402.251 5
  24640220.151     1367975.704 4   1326451.302 2
 94  2  2  1  3  0.0000000  0  6 15  2 27  7 26 19
  24344320.827    -4418039.769 5   -861328.446 2
  20983813.698     4625533.175 8   -367093.786 9
  20319697.916        6998.675 8    119335.257 9
  21633669.402     1208646.027 7  -1491895.607 7
  23516898.530    -9108020.282 6  -1172916.018 2
  21891021.201     -245558.717 7    785182.056 5
 94  2  2  1  3 30.0000000  0  6 15  2 27  7 26 19
  24333824.374    -4473165.044 5   -904283.128 2
  20980432.159     4607758.549 9   -380944.132 9
  20322159.991       19952.779 8    129429.384 9
  21617938.213     1125953.810 7  -1556331.060 7
  23502108.959    -9185737.439 6  -1233474.761 2
  21901289.962     -191603.067 7    827225.410 5
 94  2  2  1  4  0.0000000  0  6 15  2 27  7 26 19
  24323415.100    -4527890.521 5   -946926.287 2
  20977102.424     4590264.180 9   -394576.083 9
  20324717.131       33363.980 8    139879.659 9
  21602279.333     1043684.078 7  -1620437.308 7
  23487409.954    -9263002.330 6  -1293681.104 2
  21911619.342     -137309.636 7    869531.984 5
 94  2  2  1  4 30.0000000  0  6 15  2 27  7 26 19
  24313069.832    -4582213.685 5   -989255.948 2
  20973821.735     4573037.837 8   -407999.193 9
  20327359.982       47243.908 8    150695.199 9
  21586704.455      961839.725 7  -1684212.069 7
  23472788.057    -9339817.131 6  -1353536.755 3
  21922014.465      -82685.266 7    912096.414 5
 94  2  2  1  5  0.0000000  0  6 15  2 27  7 26 19
  24302806.107    -4636132.747 5  -1031270.779 2
  20970597.467     4556087.312 9   -421207.361 9
  20330089.442       61584.759 8    161869.880 9
  21571212.800      880428.375 7  -1747649.454 7
  23458259.155    -9416188.613 6  -1413046.943 3
  21932470.177      -27730.820 7    954918.074 5
 94  2  2  1  5 30.0000000  0  6 15  2 27  7 26 19
  24292633.490    -4689642.655 5  -1072966.728 2
  20967429.621     4539431.118 9   -434186.217 9
  20332905.303       76382.920 8    173400.910 9
  21555804.607      799461.576 7  -1810740.421 8
  23443804.842    -9492112.153 6  -1472208.118 3
  21942996.670       27571.741 7    998010.960 5
 94  2  2  1  6  0.0000000  0  6 15  2 27  7 26 19
  24282518.702    -4742741.666 5  -1114342.481 2
  20964311.509     4523062.939 8   -446940.621 9
  20335805.915       91631.272 8    185282.753 9
  21540487.341      718955.900 7  -1873472.065 8
  23429438.217    -9567604.891 6  -1531033.582 3
  21953586.388       83211.594 7   1041366.718 5
 94  2  2  1  6 30.0000000  0  6 15  2 27  7 26 19
  24272507.223    -4795427.392 5  -1155396.224 2
  20961256.504     4506981.543 9   -459471.559 9
  20338793.916      107336.060 8    197520.258 9
  21525256.265      638922.965 7  -1935835.350 8
  23415153.257    -9642681.911 6  -1589535.100 3
  21964236.485      139182.223 7   1084980.191 5
 94  2  2  1  7  0.0000000  0  6 15  2 27  7 26 19
  24262553.963    -4847699.995 5  -1196128.035 2
  20958248.417     4491184.233 9   -471781.129 9
  20341869.906      123504.828 8    210119.302 9
  21510113.508      559349.301 8  -1997840.763 8
  23400953.257    -9717337.340 6  -1647708.102 3
  21974947.890      195485.636 7   1128852.981 5
 94  2  2  1  7 30.0000000  0  6 15  2 27  7 26 19
  24252683.956    -4899557.619 5  -1236536.539 2
  20955289.555     4475645.663 9   -483889.088 9
  20345036.734      140155.017 8    223093.460 9
  21495059.580      480223.061 8  -2059497.532 8
  23386828.685    -9791561.702 6  -1705545.254 2
  21985721.562      252124.832 7   1172987.443 5
 94  2  2  1  8  0.0000000  0  6 15  2 27  7 26 19
  24242898.161    -4950995.043 5  -1276617.575 2
  20952380.849     4460354.742 9   -495804.072 9
  20348298.506      157288.638 8    236444.357 9
  21480080.450      401527.508 8  -2120818.694 8
  23372785.867    -9865356.545 6  -1763047.681 2
  21996571.291      309107.665 7   1217389.667 5
 94  2  2  1  8 30.0000000  0  6 15  2 27  7 26 19
  24233183.866    -5002012.219 5  -1316371.154 2
  20949517.381     4445300.979 9   -507534.251 9
  20351651.115      174907.070 8    250172.996 9
  21465184.212      323238.729 8  -2181822.907 8
  23358825.012    -9938707.725 6  -1820204.401 2
  22007482.627      366454.370 7   1262075.417 5
 94  2  2  1  9  0.0000000  0  6 15  2 27  7 26 19
  24223552.973    -5052607.257 5  -1355795.797 2
  20946696.784     4430488.519 9   -519076.425 9
  20355097.289      193001.870 8    264272.819 9
  21450364.122      245370.736 8  -2242499.243 8
  23344952.116   -10011601.382 6  -1877004.618 2
  22018464.894      424172.137 7   1307050.291 5
 94  2  2  1  9 30.0000000  0  6 15  2 27  7 26 19
  24214010.279    -5102777.497 5  -1394889.474 2
  20943924.243     4415922.232 9   -530426.772 9
  20358627.675      211564.397 8    278737.125 9
  21435631.421      167946.704 8  -2302829.624 8
  23331170.807   -10084042.864 6  -1933452.463 2
  22029519.051      482251.686 7   1352307.068 5
 94  2  2  1 10  0.0000000  0  6 15  2 27  7 26 19
  24204533.120    -5152521.759 4  -1433651.188 2
  20941205.035     4401619.463 9   -541571.764 9
  20362251.537      230592.561 8    293564.285 9
  21420990.307       90984.088 8  -2362800.448 8
  23317467.803   -10156031.310 6  -1989547.315 2
  22040636.795      540682.926 7   1397837.912 5
 94  2  2  1 10 30.0000000  0  6 15  2 27  7 26 19
  24195169.852    -5201836.218 5  -1472077.960 2
  20938533.825     4387587.887 9   -552505.414 9
  20365960.599      250093.092 8    308759.529 9
  21406432.865       14515.023 8  -2422386.660 8
  23303857.645   -10227557.370 6  -2045281.858 2
  22051818.034      599450.551 7   1443630.900 5
 94  2  2  1 11  0.0000000  0  6 15  2 27  7 26 19
  24185855.211    -5250717.596 5  -1510167.332 2
  20935917.956     4373840.592 9   -563217.608 9
  20369759.269      270062.233 8    324319.866 9
  21391977.952      -61453.579 7  -2481582.953 8
  23290336.496   -10298618.320 6  -2100654.016 2
  22063064.778      658538.874 7   1489673.712 5
 94  2  2  1 11 30.0000000  0  6 15  2 27  7 26 19
  24176635.484    -5299167.493 5  -1547920.436 2
  20933353.681     4360368.800 9   -573715.103 9
  20373649.406      290492.178 8    340239.305 9
  21377611.328     -136950.297 8  -2540411.541 8
  23276899.678   -10369225.859 6  -2155672.829 2
  22074369.652      717940.153 7   1535960.423 5
 94  2  2  1 12  0.0000000  0  6 15  2 27  7 26 19
  24167505.574    -5347180.478 5  -1585333.103 2
  20930841.270     4347171.210 9   -583998.900 9
  20377618.868      311366.198 8    356504.784 9
  21363334.341     -211984.111 8  -2598879.382 8
  23263549.650   -10439371.894 6  -2210332.025 2
  22085732.685      777660.681 7   1582495.910 5
 94  2  2  1 12 30.0000000  0  6 15  2 27  7 26 19
  24158449.893    -5394757.672 5  -1622406.186 2
  20928380.034     4334235.861 9   -594078.395 9
  20381673.051      332665.948 8    373101.986 9
  21349138.629     -286570.052 8  -2656998.242 8
  23250289.799   -10509055.906 6  -2264631.222 2
  22097160.174      837705.880 7   1629284.380 4
 94  2  2  1 13  0.0000000  0  6 15  2 27  7 26 19
  24149472.128    -5441897.854 5  -1659138.761 2
  20925969.193     4321551.224 9   -603962.493 9
  20385806.410      354394.617 8    390033.432 9
  21335032.434     -360716.079 8  -2714774.336 8
  23237117.009   -10578278.404 6  -2318570.771 2
  22108648.101      898092.709 7   1676339.045 4
 94  2  2  1 13 30.0000000  0  6 15  2 27  7 26 19
  24140594.794    -5488598.813 5  -1695529.063 2
  20923598.974     4309107.521 9   -613658.866 9
  20390026.109      376553.127 8    407299.814 9
  21321011.051     -434406.520 8  -2772195.399 8
  23224030.948   -10647034.989 6  -2372147.274 2
  22120208.698      958824.171 7   1723662.241 4
 94  2  2  1 14  0.0000000  0  6 15  2 27  7 26 19
  24131790.609    -5534857.807 5  -1731574.964 2
  20921279.450     4296908.902 9   -623164.223 9
  20394323.574      399153.413 8    424910.474 9
  21307075.109     -507626.310 8  -2829249.695 8
  23211036.714   -10715318.812 6  -2425355.365 2
  22131831.292     1019899.750 7   1771253.647 4
 94  2  2  1 14 30.0000000  0  6 15  2 27  7 26 19
  24123076.002    -5580672.824 5  -1767274.927 2
  20919000.457     4284950.076 8   -632482.788 9
  20398715.473      422224.199 8    442887.707 9
  21293231.173     -580376.027 8  -2885937.745 8
  23198135.085   -10783133.153 6  -2478197.681 2
  22143520.620     1081322.392 7   1819115.444 4
 94  2  2  1 15  0.0000000  0  6 15  2 27  7 26 19
  24114432.626    -5626043.235 5  -1802628.436 2
  20916769.132     4273224.992 9   -641619.206 9
  20403197.191      445773.449 8    461237.757 9
  21279478.584     -652651.777 8  -2942256.476 8
  23185317.159   -10850493.626 6  -2530686.310 2
  22155270.685     1143085.350 7   1867242.411 4
 94  2  2  1 15 30.0000000  0  6 15  2 27  7 26 19
  24105893.577    -5670966.681 5  -1837633.645 2
  20914585.114     4261733.783 9   -650573.377 9
  20407768.246      469806.153 8    479964.555 9
  21265811.195     -724465.916 8  -2998215.484 8
  23172579.157   -10917410.497 6  -2582829.250 2
  22167088.804     1205173.926 7   1915623.119 4
 94  2  2  1 16  0.0000000  0  6 15  2 27  7 26 19
  24097424.800    -5715437.349 5  -1872286.087 2
  20912449.063     4250478.276 9   -659343.926 9
  20412438.443      494337.700 8    499080.036 9
  21252224.631     -795821.098 8  -3053816.919 8
  23159935.440   -10983883.294 6  -2634626.223 2
  22178967.690     1267596.492 7   1964264.020 4
 94  2  2  1 16 30.0000000  0  6 15  2 27  7 26 19
  24089045.631    -5759455.175 5  -1906585.650 2
  20910343.920     4239455.713 9   -667932.896 9
  20417201.186      519358.040 8    518576.415 9
  21238742.994     -866713.073 8  -3109057.353 8
  23147368.860   -11049907.286 6  -2686073.394 2
  22190905.126     1330350.734 7   2013163.462 4
 94  2  2  1 17  0.0000000  0  6 15  2 27  7 26 19
  24080767.701    -5803021.929 5  -1940533.626 2
  20908293.999     4228669.945 9   -676337.364 9
  20422049.459      544848.492 8    538439.147 9
  21225341.942     -937134.091 8  -3163930.800 8
  23134889.849   -11115475.767 6  -2737165.626 3
  22202907.347     1393424.724 6   2062312.043 4
 94  2  2  1 17 30.0000000  0  6 15  2 27  7 26 19
  24072561.572    -5846134.264 5  -1974127.633 2
  20906288.568     4218144.173 8   -684539.259 9
  20426987.281      570799.459 8    558660.670 9
  21212032.505    -1007082.443 8  -3218435.981 8
  23122507.431   -11180565.779 6  -2787885.071 3
  22214974.803     1456817.460 6   2111708.946 4
 94  2  2  1 18  0.0000000  0  6 15  2 27  7 26 19
  24064452.336    -5888788.296 5  -2007364.541 2
  20904337.428     4207887.497 9   -692531.463 9
  20432012.402      597188.966 8    579223.927 9
  21198812.707    -1076548.528 8  -3272565.376 9
  23110215.251   -11245163.166 6  -2838220.655 3
  22227096.791     1520536.113 6   2161359.829 4
 94  2  2  1 18 30.0000000  0  6 15  2 27  7 26 19
  24056408.215    -5930983.406 5  -2040243.776 2
  20902436.055     4197898.884 9   -700314.765 9
  20437113.011      624000.669 8    600116.201 9
  21185684.556    -1145538.437 8  -3326323.666 9
  23098013.728   -11309272.987 6  -2888176.270 3
  22239286.622     1584577.997 6   2211262.623 4
 94  2  2  1 19  0.0000000  0  6 15  2 27  7 26 19
  24048465.004    -5972718.122 5  -2072764.279 2
  20900586.455     4188174.538 9   -707892.157 9
  20442298.521      651244.380 8    621345.068 9
  21172645.622    -1214066.262 8  -3379721.939 9
  23085904.211   -11372902.163 6  -2937757.384 3
  22251534.103     1648939.765 6   2261414.632 4
 94  2  2  1 19 30.0000000  0  6 15  2 27  7 26 19
  24040611.611    -6013991.155 5  -2104925.050 2
  20898779.276     4178692.830 9   -715280.470 9
  20447566.115      678930.066 8    642918.344 9
  21159689.282    -1282145.790 8  -3432770.869 9
  23073889.788   -11436053.757 6  -2986966.351 3
  22263835.697     1713627.249 6   2311820.478 4
 94  2  2  1 20  0.0000000  0  6 15  2 27  7 26 19
  24032847.166    -6054801.620 5  -2136725.382 2
  20897019.764     4169423.047 9   -722503.675 9
  20452920.018      707077.204 8    664851.184 9
  21146819.821    -1349779.228 8  -3485472.203 9
  23061959.428   -11498731.069 6  -3035805.788 3
  22276212.719     1778637.042 6   2362477.459 4
 94  2  2  1 20 30.0000000  0  6 15  2 27  7 26 19
  24025173.678    -6095147.615 5  -2168163.833 2
  20895291.671     4160356.100 8   -729568.844 9
  20458365.658      735701.831 8    687156.062 9
  21134034.302    -1416952.089 8  -3537814.699 9
  23050121.583   -11560932.527 6  -3084274.440 3
  22288642.474     1843963.329 6   2413381.026 4
 94  2  2  1 21  0.0000000  0  6 15  2 27  7 26 19
  24017587.910    -6135028.020 5  -2199239.394 2
  20893606.957     4151490.391 9   -736477.150 9
  20463904.084      764812.162 8    709839.456 9
  21121343.788    -1483654.761 8  -3589790.733 9
  23038378.263   -11622645.496 6  -3132362.413 3
  22301133.477     1909591.373 6   2464519.776 4
 94  2  2  1 21 30.0000000  0  6 15  2 27  7 26 19
  24010084.045    -6174441.465 5  -2229951.086 2
  20891955.760     4142825.226 9   -743229.195 9
  20469536.495      794393.794 8    732890.099 9
  21108740.933    -1549867.984 8  -3641385.408 9
  23026729.767   -11683866.720 6  -3180067.221 3
  22313680.540     1975522.123 6   2515894.404 4
 94  2  2  1 22  0.0000000  0  6 15  2 27  7 26 19
  24002671.796    -6213385.345 5  -2260296.934 2
  20890349.112     4134384.206 9   -749806.591 9
  20475251.259      824434.724 8    756298.618 9
  21096238.448    -1615570.451 8  -3692582.090 9
  23015171.238   -11744603.933 6  -3227394.890 3
  22326283.246     2041760.590 6   2567508.772 4
 94  2  2  1 22 29.9990000  0  6 15  2 27  7 26 19
  23995344.029    -6251856.720 5  -2290274.611 2
  20888791.571     4126188.905 9   -756192.549 9
  20481053.921      854914.233 8    780048.872 9
  21083836.064    -1680748.235 8  -3743369.956 9
  23003704.537   -11804860.949 6  -3274348.353 3
  22338949.087     2108312.161 6   2619367.135 4
 94  2  2  1 22 59.9990000  0  6 15  2 27  7 26 19
  23988127.155    -6289857.228 5  -2319885.294 2
  20887278.878     4118250.666 9   -762378.160 9
  20486935.610      885837.259 8    804144.755 9
  21071528.444    -1745424.174 8  -3793766.734 9
  22992328.102   -11864646.047 6  -3320934.097 3
  22351671.650     2175191.828 6   2671481.175 4
 94  2  2  1 23 29.9990000  0  6 15  2 27  7 26 19
  23980980.403    -6327384.607 5  -2349127.396 2
  20885819.848     4110577.317 9   -768357.384 9
  20492904.058      917199.478 8    828582.818 9
  21059317.418    -1809600.120 8  -3843773.949 9
  22981037.978   -11923968.596 6  -3367159.455 3
  22364469.820     2242413.944 6   2723862.025 4
 94  2  2  1 23 59.9990000  0  6 15  2 27  7 26 19
  23973922.958    -6364434.048 5  -2377997.018 2
  20884409.534     4103166.678 9   -774131.878 9
  20498959.176      949015.814 8    853374.804 9
  21047197.948    -1873285.627 8  -3893398.975 9
  22969840.161   -11982816.529 6  -3413014.908 3
  22377322.192     2309972.354 6   2776504.960 4
 94  2  2  1 24 29.9990000  0  6 15  2 27  7 26 19
  23966970.681    -6401005.755 5  -2406494.391 2
  20883043.200     4096004.494 9   -779712.785 9
  20505103.932      981296.400 8    878528.498 9
  21035168.686    -1936495.380 8  -3942653.293 9
  22958736.627   -12041179.961 6  -3458492.922 3
  22390237.941     2377847.831 6   2829394.953 4
 94  2  2  1 24 59.9990000  0  6 15  2 27  7 26 19
  23960100.398    -6437097.962 5  -2434618.149 2
  20881725.642     4089064.171 9   -785120.833 9
  20511335.658     1014054.547 8    904054.310 9
  21023227.143    -1999240.511 8  -3991545.589 9
  22947718.685   -12099048.934 6  -3503585.616 3
  22403214.098     2446035.701 6   2882528.343 4
 94  2  2  1 25 29.9990000  0  6 15  2 27  7 26 19
  23953322.090    -6472707.380 5  -2462365.751 2
  20880442.141     4082324.496 9   -790372.529 9
  20517661.638     1047284.970 8    929948.136 9
  21011377.846    -2061509.263 8  -4040066.671 9
  22936807.589   -12156412.866 6  -3548284.749 3
  22416247.785     2514518.550 6   2935891.596 4
 94  2  2  1 25 59.9990000  0  6 15  2 27  7 26 19
  23946636.299    -6507832.400 5  -2489735.785 2
  20879196.503     4075781.084 9   -795471.247 9
  20524073.030     1080978.306 8    956202.728 8
  20999618.846    -2123307.345 8  -4088220.951 9
  22925990.837   -12213265.610 6  -3592585.501 3
  22429328.599     2583283.947 6   2989475.064 4
 94  2  2  1 26 29.9990000  0  6 15  2 27  7 26 19
  23940043.863    -6542473.859 5  -2516729.138 2
  20877993.016     4069442.513 9   -800410.402 9
  20530569.982     1115125.198 8    982810.662 8
  20987952.303    -2184633.447 8  -4136007.521 9
  22915258.716   -12269610.830 6  -3636490.892 3
  22442474.498     2652349.470 6   3043292.338 4
 94  2  2  1 26 59.9990000  0  6 15  2 27  7 26 19
  23933545.351    -6576627.333 5  -2543342.191 2
  20876825.355     4063321.886 9   -805179.721 9
  20537150.936     1149715.090 8   1009763.817 8
  20976370.961    -2245480.765 8  -4183420.986 9
  22904637.160   -12325451.627 6  -3680003.180 3
  22455675.349     2721723.273 6   3097349.830 4
 94  2  2  1 27 29.9990000  0  6 15  2 27  7 26 19
  23927142.144    -6610292.263 5  -2569574.521 2
  20875708.028     4057441.932 9   -809761.451 9
  20543815.832     1184733.567 8   1037050.975 9
  20964883.723    -2305841.570 8  -4230455.316 9
  22894106.650   -12380798.061 6  -3723130.195 3
  22468937.298     2791404.280 6   3151646.751 4
 94  2  2  1 27 59.9990000  0  6 15  2 27  7 26 19
  23920829.684    -6643464.781 5  -2595423.217 2
  20874636.960     4051822.420 8   -814140.290 9
  20550562.182     1220187.036 8   1064677.034 8
  20953491.999    -2365710.626 8  -4277106.505 9
  22883669.495   -12435645.747 6  -3765868.633 3
  22482256.148     2861412.719 6   3206198.760 3
 94  2  2  1 28 29.9990000  0  6 15  2 27  7 26 19
  23914608.241    -6676145.207 5  -2620888.429 2
  20873616.526     4046448.022 8   -818328.093 9
  20557392.743     1256086.737 8   1092650.856 9
  20942196.959    -2425071.106 8  -4323361.376 9
  22873326.116   -12489996.973 6  -3808220.175 3
  22495644.130     2931748.911 6   3261006.214 3
 94  2  2  1 28 59.9990000  0  6 15  2 27  7 26 19
  23908484.980    -6708332.049 5  -2645969.065 2
  20872632.367     4041295.079 8   -822343.366 9
  20564310.334     1292439.775 8   1120977.897 9
  20931000.430    -2483916.157 8  -4369214.628 9
  22863082.687   -12543852.793 6  -3850185.722 4
  22509082.716     3002395.138 6   3316055.234 3
 94  2  2  1 29 29.9990000  0  6 15  2 27  7 26 19
  23902456.724    -6740023.131 5  -2670663.356 2
  20871695.606     4036351.874 9   -826195.187 9
  20571318.582     1329260.704 8   1149669.530 9
  20919897.556    -2542248.119 8  -4414668.075 9
  22852924.879   -12597205.812 6  -3891759.456 3
  22522592.174     3073355.845 6   3371349.276 3
 94  2  2  1 29 59.9990000  0  6 15  2 27  7 26 19
  23896518.554    -6771215.878 5  -2694969.359 2
  20870791.312     4031604.351 9   -829894.577 9
  20578416.259     1366560.215 8   1178734.040 9
  20908893.614    -2600069.112 8  -4459723.388 9
  22842873.648   -12650047.446 6  -3932934.771 4
  22536152.806     3144619.638 6   3426879.456 3
 94  2  2  1 30 29.9990000  0  6 15  2 27  7 26 19
  23890683.064    -6801910.535 5  -2718887.217 2
  20869921.974     4027041.108 9   -833450.331 9
  20585600.815     1404328.890 8   1208164.192 9
  20897988.244    -2657383.518 8  -4504383.932 9
  22832910.405   -12702387.699 7  -3973719.339 4
  22549764.943     3216169.736 6   3482632.800 3
 94  2  2  1 30 59.9990000  0  6 15  2 27  7 26 19
  23884928.458    -6832105.967 5  -2742416.080 2
  20869092.958     4022676.475 9   -836851.264 9
  20592877.767     1442556.377 8   1237951.904 9
  20887173.021    -2714211.132 8  -4548665.111 9
  22823042.077   -12754220.705 6  -4014108.592 4
  22563434.909     3287998.683 6   3538603.436 3
 94  2  2  1 31 29.9990000  0  6 15  2 27  7 26 19
  23879278.120    -6861799.911 5  -2765554.188 2
  20868303.754     4018538.081 9   -840076.011 9
  20600235.124     1481229.640 8   1268086.883 9
  20876454.661    -2770551.448 8  -4592566.651 9
  22813278.586   -12805553.385 6  -4054108.094 4
  22577154.221     3360108.420 6   3594792.819 3
 94  2  2  1 31 59.9990000  0  6 15  2 27  7 26 19
  23873722.126    -6890990.361 5  -2788299.952 2
  20867554.962     4014623.986 9   -843125.941 9
  20607678.101     1520336.187 8   1298559.511 8
  20865825.100    -2826399.542 8  -4636084.631 9
  22803609.650   -12856387.019 6  -4093718.686 3
  22590929.625     3432501.923 6   3651203.326 3
 94  2  2  1 32 29.9990000  0  6 15  2 27  7 26 19
  23868268.002    -6919677.689 5  -2810653.633 2
  20866856.836     4010934.256 9   -846001.015 9
  20615202.173     1559869.461 8   1329364.703 8
  20855291.052    -2881758.263 8  -4679221.232 9
  22794028.792   -12906727.262 6  -4132944.808 3
  22604766.096     3505186.814 6   3707840.933 3
 94  2  2  1 32 59.9990000  0  6 15  2 27  7 26 19
  23862903.096    -6947858.452 5  -2832612.672 2
  20866198.731     4007471.728 9   -848699.073 9
  20622806.678     1599833.886 8   1360505.798 8
  20844847.782    -2936630.383 8  -4721978.704 9
  22784542.969   -12956566.518 6  -4171780.554 3
  22618648.555     3578178.308 6   3764717.409 3
 94  2  2  1 33 29.9990000  0  6 15  2 27  7 26 19
  23857638.620    -6975533.039 5  -2854177.251 2
  20865582.718     4004217.916 9   -851234.471 9
  20630494.136     1640239.677 8   1391990.848 8
  20834500.356    -2991016.636 8  -4764357.557 9
  22775155.478   -13005910.389 6  -4210230.288 3
  22632608.121     3651487.397 6   3821841.387 3
 94  2  2  1 33 59.9990000  0  6 15  2 27  7 26 19
  23852471.158    -7002701.110 5  -2875347.143 2
  20864995.664     4001147.863 9   -853626.700 9
  20638270.003     1681096.123 8   1423827.045 8
  20824240.708    -3044929.291 8  -4806367.400 9
  22765861.582   -13054743.341 6  -4248281.888 3
  22646613.346     3725104.422 6   3879205.294 3
 94  2  2  1 34 29.9990000  0  6 15  2 27  7 26 19
  23847391.834    -7029359.465 5  -2896119.809 2
  20864446.444     3998270.510 9   -855868.778 9
  20646132.480     1722410.612 8   1456020.156 8
  20814072.917    -3098366.207 8  -4848006.510 9
  22756663.560   -13103056.610 6  -4285928.558 3
  22660681.107     3799016.637 6   3936799.251 3
 94  2  2  1 34 59.9990000  0  6 15  2 27  7 26 19
  23842420.346    -7055506.480 5  -2916494.066 2
  20863938.566     3995589.112 9   -857958.151 9
  20654080.877     1764192.414 8   1488577.406 8
  20803993.025    -3151320.909 8  -4889269.895 9
  22747570.615   -13150842.697 6  -4323164.437 3
  22674798.544     3873219.225 6   3994619.433 3
 94  2  2  1 35 29.9990000  0  6 15  2 27  7 26 19
  23837536.487    -7081141.952 5  -2936469.691 2
  20863465.613     3993109.611 9   -859890.207 9
  20662121.701     1806445.904 8   1521502.234 8
  20794015.962    -3203774.543 8  -4930142.819 9
  22738579.809   -13198092.932 6  -4359982.776 3
  22688970.992     3947698.956 6   4052655.589 3
 94  2  2  1 35 59.9990000  0  6 15  2 27  7 26 19
  23832760.673    -7106262.967 5  -2956044.466 2
  20863033.462     3990844.753 9   -861654.990 9
  20670254.171     1849164.992 8   1554789.818 7
  20784131.775    -3255707.139 8  -4970609.736 9
  22729690.303   -13244803.215 7  -4396380.372 3
  22703192.967     4022452.612 6   4110905.205 3
 94  2  2  1 36 29.9990000  0  6 15  2 27  7 26 19
  23828080.823    -7130870.707 5  -2975219.260 2
  20862647.000     3988806.918 9   -863242.867 9
  20678469.384     1892342.898 8   1588434.991 8
  20774347.898    -3307108.365 8  -5010662.587 9
  22720908.872   -13290977.735 7  -4432360.475 3
  22717478.707     4097491.127 6   4169376.809 3
 94  2  2  1 36 59.9990000  0  6 15  2 27  7 26 19
  23823496.097    -7154961.084 5  -2993990.951 2
  20862301.070     3986994.712 9   -864654.979 9
  20686773.095     1935981.191 8   1622438.823 8
  20764670.508    -3357975.754 8  -5050299.512 9
  22712218.129   -13336622.959 7  -4467928.179 3
  22731811.394     4172836.488 6   4228087.441 3
 94  2  2  1 37 29.9990000  0  6 15  2 27  7 26 19
  23819010.602    -7178534.440 5  -3012359.755 2
  20861997.859     3985401.615 9   -865896.321 9
  20695163.656     1980068.443 8   1656792.549 8
  20755087.162    -3408330.907 8  -5089537.253 9
  22703630.783   -13381753.107 6  -4503094.489 3
  22746204.370     4248487.695 6   4287036.454 3
 94  2  2  1 37 59.9990000  0  6 15  2 27  7 26 19
  23814621.461    -7201587.734 5  -3030323.351 2
  20861736.261     3984018.444 9   -866974.105 9
  20703635.791     2024595.792 7   1691489.181 7
  20745598.461    -3458192.833 8  -5128390.682 9
  22695140.691   -13426382.429 6  -4537870.583 4
  22760665.849     4324441.404 6   4346221.134 3
 94  2  2  1 38 29.9990000  0  6 15  2 27  7 26 19
  23810332.300    -7224120.235 5  -3047881.050 2
  20861509.887     3982839.165 9   -867892.956 9
  20712191.958     2069555.297 8   1726522.595 7
  20736203.745    -3507574.512 8  -5166869.848 9
  22686739.697   -13470516.885 7  -4572260.997 4
  22775172.596     4400690.044 6   4405635.704 3
 94  2  2  1 38 59.9990000  0  6 15  2 27  7 26 19
  23806145.908    -7246131.149 5  -3065032.347 2
  20861324.765     3981860.814 9   -868655.285 9
  20720828.379     2114948.800 8   1761894.165 7
  20726897.647    -3556482.202 8  -5204979.693 9
  22678434.427   -13514159.223 7  -4606267.990 4
  22789739.781     4477222.993 6   4465271.794 3
 94  2  2  1 39 29.9990000  0  7 15  2 27 13  7 26 19
  23802057.039    -7267620.709 5  -3081777.430 2
  20861174.899     3981076.402 9   -869266.507 9
  20729548.832     2160773.018 7   1797601.342 7
  24329554.400     1660890.03115   -300257.943
  20717681.847    -3604904.324 8  -5242711.185 9
  22670228.118   -13557295.557 7  -4639880.677 4
  22804350.017     4554018.816 6   4525112.694 3
 94  2  2  1 39 59.9990000  0  7 15  2 27 13  7 26 19
  23798066.831    -7288586.851 5  -3098114.652 2
  20861063.077     3980487.437 9   -869725.414 9
  20738353.107     2207031.352 7   1833646.810 7
  24306443.519     1539416.183 5   -394909.886
  20708562.910    -3652809.913 8  -5280040.183 9
  22662120.890   -13599903.881 7  -4673081.930 4
  22819015.354     4631075.338 6   4585156.727 3
 94  2  2  1 40 29.9990000  0  7 15  2 27 13  7 26 19
  23794171.628    -7309026.283 5  -3114041.452 2
  20860989.388     3980096.550 9   -870029.974 9
  20747238.985     2253742.235 7   1870044.904 7
  24283348.708     1418050.124 5   -489480.267
  20699550.519    -3700179.786 8  -5316951.724 9
  22654109.506   -13641968.064 7  -4705859.167 4
  22833722.483     4708401.208 6   4645410.654 3
 94  2  2  1 40 59.9990000  0  7 15  2 27 13  7 26 19
  23790389.926    -7328938.940 5  -3129557.776 2
  20860953.083     3979897.186 9   -870185.303 9
  20756217.979     2300915.873 8   1906803.595 7
  24260263.909     1296793.445 5   -583965.899 1
  20690636.880    -3747009.899 8  -5353442.715 9
  22646215.851   -13683479.389 7  -4738205.635 4
  22848488.790     4785992.425 6   4705871.353 3
 94  2  2  1 41 29.9990000  0  7 15  2 27 13  7 26 19
  23786691.776    -7348322.539 5  -3144661.820 2
  20860947.896     3979879.539 9   -870199.022 9
  20765281.125     2348552.518 7   1943923.052 8
  24237219.492     1175649.633 5   -678363.527 1
  20681830.057    -3793295.951 8  -5389509.724 9
  22638420.648   -13724440.675 7  -4770123.478 4
  22863309.720     4863852.214 6   4766541.326 3
 94  2  2  1 41 59.9990000  0  7 15  2 27 13  7 26 19
  23783114.922    -7367179.926 5  -3159355.850 2
  20860979.105     3980042.171 9   -870072.284 9
  20774432.350     2396649.197 7   1981400.991 7
  24214194.562     1054617.421 5   -772674.177 1
  20673121.536    -3839056.711 8  -5425167.430 9
  22630726.834   -13764869.862 6  -4801626.717 4
  22878176.908     4941984.151 6   4827423.359 3
 94  2  2  1 42 29.9990000  0  7 15  2 27 13  7 26 19
  23779618.383    -7385509.372 5  -3173638.496 2
  20861043.170     3980386.315 9   -869804.107 9
  20783671.444     2445197.681 7   2019230.988 8
  24191177.696      933700.296 5   -866895.103 1
  20664511.376    -3884315.360 8  -5460433.856 9
  22623133.301   -13804783.145 6  -4832727.963 4
  22893103.994     5020397.209 6   4888524.447 3
 94  2  2  1 42 59.9990000  0  7 15  2 27 13  7 26 19
  23776238.852    -7403305.660 5  -3187505.675 2
  20861147.138     3980918.429 9   -869389.439 9
  20792997.807     2494185.473 7   2057403.294 7
  24168193.118      812904.909 5   -961021.128 1
  20655988.966    -3929081.581 8  -5495316.603 9
  22615631.864   -13844187.664 6  -4863432.762 4
  22908075.659     5099091.904 6   4949844.959 3
 94  2  2  1 43 29.9990000  0  7 15  2 27 13  7 26 19
  23772949.889    -7420568.986 5  -3200957.582 2
  20861284.983     3981647.261 9   -868821.502 9
  20802398.309     2543600.104 7   2095908.222 7
  24145229.435      692232.992 5  -1055050.968 1
  20647567.856    -3973358.037 8  -5529817.691 9
  22608232.416   -13883093.334 7  -4893748.842 4
  22923099.878     5178078.095 6   5011392.673 3
 94  2  2  1 43 59.9990000  0  7 15  2 27 13  7 26 19
  23769766.033    -7437298.384 5  -3213993.419 2
  20861463.749     3982588.002 9   -868088.432 9
  20811882.544     2593435.676 7   2134741.135 7
  24122295.522      571686.978 5  -1148982.707 1
  20639231.168    -4017143.992 8  -5563936.590 9
  22600918.560   -13921496.229 7  -4923673.154 4
  22938191.341     5257357.698 6   5073168.992 3
 94  2  2  1 44 29.9990000  0  7 15  2 27 13  7 26 19
  23766685.396    -7453492.911 5  -3226612.491 2
  20861683.287     3983737.436 9   -867192.744 9
  20821445.143     2643692.577 7   2173902.354 7
  24099376.389      451269.485 5  -1242814.288 1
  20630996.738    -4060430.045 8  -5597665.953 9
  22593712.448   -13959382.320 7  -4953194.761 4
  22953329.121     5336913.472 6   5135160.485 3
 94  2  2  1 44 59.9990000  0  7 15  2 27 13  7 26 19
  23763701.592    -7469150.822 5  -3238813.440 2
  20861939.460     3985091.147 9   -866137.884 9
  20831090.126     2694382.210 7   2213400.785 7
  24076475.963      330983.615 5  -1336543.300 1
  20622859.202    -4103204.800 8  -5630996.893 9
  22586605.568   -13996735.303 7  -4982300.965 4
  22968519.845     5416728.488 6   5197354.013 3
 94  2  2  1 45 29.9990000  0  7 15  2 27 13  7 26 19
  23760831.049    -7484271.401 5  -3250595.629 2
  20862236.434     3986647.330 9   -864925.264 9
  20840818.991     2745508.254 7   2253239.266 7
  24053624.912      210831.937 5  -1430167.852 1
  20614814.811    -4145459.916 8  -5663922.918 9
  22579602.626   -14033545.126 7  -5010983.935 4
  22983758.835     5496800.067 6   5259747.443 3
 94  2  2  1 45 59.9990000  0  7 15  2 27 13  7 26 19
  23758056.260    -7498853.280 5  -3261958.119 2
  20862566.626     3988392.703 9   -863565.204 9
  20850634.376     2797075.110 7   2293421.249 7
  24030777.969       90817.205 5  -1523685.668 1
  20606872.169    -4187203.469 8  -5696450.336 9
  22572697.417   -14069807.081 7  -5039239.977 4
  22999039.346     5577111.214 6   5322327.537 2
 94  2  2  1 46 29.9990000  0  7 15  2 27 13  7 26 19
  23755377.404    -7512897.371 5  -3272901.549 2
  20862933.602     3990313.978 9   -862068.090 9
  20860528.816     2849079.563 7   2333944.202 7
  24007964.512      -29059.692 5  -1617096.113 2
  20599027.410    -4228444.303 8  -5728586.018 9
  22565903.190   -14105524.768 7  -5067071.924 4
  23014367.915     5657654.816 6   5385088.807 2
 94  2  2  1 46 59.9990000  0  7 15  2 27 13  7 26 19
  23752808.453    -7526403.717 5  -3283425.905 2
  20863333.225     3992414.874 9   -860430.994 9
  20870509.387     2901519.431 7   2374806.450 7
  23985188.530     -148796.532 5  -1710397.443 1
  20591271.270    -4269185.736 8  -5760332.555 9
  22559203.548   -14140713.782 7  -5094491.928 4
  23029741.782     5738456.635 6   5448051.248 2
 94  2  2  1 47 29.9990000  0  7 15  2 27 13  7 26 19
  23750340.352    -7539367.487 5  -3293527.496 2
  20863768.494     3994708.121 9   -858644.031 9
  20880569.672     2954388.461 7   2416003.098 7
  23962419.292     -268387.194 5  -1803584.901 1
  20583614.450    -4309420.668 8  -5791684.422 9
  22552608.834   -14175378.737 7  -5121503.555 4
  23045167.962     5819535.397 6   5511229.513 2
 94  2  2  1 47 59.9990000  0  7 15  2 27 13  7 26 19
  23747976.578    -7551788.832 5  -3303206.410 2
  20864242.286     3997187.305 9   -856712.189 9
  20890713.510     3007690.922 7   2457537.475 7
  23939701.679     -387829.817 5  -1896657.000 1
  20576055.483    -4349152.965 8  -5822644.632 9
  22546115.989   -14209513.281 7  -5148101.900 4
  23060646.726     5900898.479 5   5574629.337 2
 94  2  2  1 48 29.9990000  0  7 15  2 27 13  7 26 19
  23745715.933    -7563665.819 5  -3312461.198 2
  20864748.305     3999862.606 9   -854627.515 9
  20900940.780     3061438.614 7   2499418.803 7
  23916994.679     -507120.785 5  -1989610.907 1
  20568591.161    -4388367.310 8  -5853201.214 9
  22539720.936   -14243109.674 6  -5174280.882 4
  23076198.670     5982558.008 6   5638260.107 2
 94  2  2  1 48 59.9990000  0  7 15  2 27 13  7 26 19
  23743564.922    -7574997.137 5  -3321290.738 2
  20865297.705     4002739.427 9   -852385.813 9
  20911252.321     3115642.445 7   2541655.555 7
  23894334.446     -626256.887 5  -2082444.212 1
  20561229.457    -4427059.376 8  -5883350.853 9
  22533432.669   -14276152.344 7  -5200028.408 4
  23091786.109     6064520.771 6   5702127.161 2
 94  2  2  1 49 29.9990000  0  7 15  2 27 13  7 26 19
  23741509.485    -7585783.711 5  -3329695.809 2
  20865883.200     4005815.377 9   -849988.953 9
  20921655.539     3170302.688 7   2584247.959 7
  23871685.516     -745237.025 5  -2175155.872 1
  20553962.548    -4465235.921 8  -5913098.770 9
  22527253.137   -14308628.438 7  -5225334.453 4
  23107436.145     6146763.870 5   5766212.726 2
 94  2  2  1 49 59.9990000  0  7 15  2 27 13  7 26 19
  23739557.177    -7596024.310 5  -3337675.474 2
  20866503.290     4009081.771 9   -847443.681 9
  20932148.065     3225427.041 7   2627201.993 7
  23849076.008     -864058.250 5  -2267743.721 1
  20546797.328    -4502901.626 8  -5942448.636 9
  22521184.259   -14340538.439 7  -5250199.359 4
  23123134.867     6229262.696 5   5830497.544 2
 94  2  2  1 50 29.9990000  0  7 15  2 27 13  7 26 19
  23737720.678    -7605716.397 5  -3345227.688 2
  20867166.401     4012551.340 9   -844740.108 9
  20942721.536     3281004.339 7   2670508.984 6
  23826500.887     -982715.689 5  -2360204.024 2
  20539725.974    -4540053.822 8  -5971398.374 9
  22515212.363   -14371891.396 7  -5274630.206 4
  23138883.954     6312004.802 5   5894971.896 2
 94  2  2  1 50 59.9990000  0  7 15  2 27 13  7 26 19
  23735986.289    -7614860.629 5  -3352353.041 2
  20867860.421     4016211.691 9   -841887.863 9
  20953378.288     3337011.617 7   2714151.027 6
  23803943.393    -1101208.488 5  -2452535.971 2
  20532752.711    -4576695.809 8  -5999950.532 9
  22509353.609   -14402695.123 7  -5298633.065 4
  23154669.916     6394970.779 6   5959620.690 2
 94  2  2  1 51 29.9990000  0  7 15  2 27 13  7 26 19
  23734340.128    -7623456.913 5  -3359051.391 2
  20868592.664     4020058.651 9   -838890.206 9
  20964114.935     3393430.530 7   2758113.815 6
  23781430.928    -1219534.857 5  -2544738.208 2
  20525881.528    -4612816.844 8  -6028096.754 9
  22503595.615   -14432965.843 7  -5322220.627 4
  23170490.743     6478146.408 5   6024432.857 2
 94  2  2  1 51 59.9990000  0  7 15  2 27 13  7 26 19
  23732816.133    -7631502.708 5  -3365320.831 2
  20869362.681     4024088.164 9   -835750.307 9
  20974927.640     3450254.829 7   2802392.498 6
  23758944.155    -1337689.755 5  -2636806.801 2
  20519103.160    -4648415.520 8  -6055835.957 9
  22497934.844   -14462705.199 7  -5345394.132 4
  23186362.175     6561548.158 5   6089421.235 2
 94  2  2  1 52 29.9990000  0  7 15  2 27 13  7 26 19
  23731389.751    -7638996.140 5  -3371159.806 2
  20870162.707     4028299.691 9   -832468.590 9
  20985817.631     3507477.269 7   2846981.400 6
  23736490.240    -1455669.390 5  -2728738.882 2
  20512433.828    -4683480.048 8  -6083158.933 9
  22492374.023   -14491909.764 7  -5368150.909 4
  23202285.952     6645201.772 5   6154605.859 2
 94  2  2  1 52 59.9990000  0  7 15  2 27 13  7 26 19
  23730067.126    -7645934.020 5  -3376565.939 2
  20870992.772     4032682.942 9   -829053.036 9
  20996786.887     3565104.044 7   2891885.391 6
  23714072.599    -1573468.817 5  -2820530.543 2
  20505864.745    -4718000.501 8  -6110057.957 9
  22486919.959   -14520578.498 7  -5390490.156 4
  23218254.277     6729118.428 5   6219995.458 2
 94  2  2  1 53 29.9990000  0  7 15  2 27 13  7 26 19
  23728856.385    -7652319.079 5  -3381541.284 2
  20871864.689     4037241.802 9   -825500.688 9
  21007831.541     3623150.400 7   2937116.311 6
  23691688.056    -1691088.515 5  -2912182.164 2
  20499397.263    -4751991.628 8  -6136544.521 9
  22481562.008   -14548718.193 7  -5412417.187 4
  23234278.424     6813330.287 5   6285615.051 2
 94  2  2  1 53 59.9990000  0  7 15  2 27 13  7 26 19
  23727732.672    -7658151.865 5  -3386086.268 2
  20872762.447     4041975.876 9   -821811.757 9
  21018958.098     3681633.521 7   2982687.593 6
  23669362.991    -1808526.600 5  -3003692.240 2
  20493027.722    -4785466.122 8  -6162628.515 9
  22476308.236   -14576323.545 7  -5433927.825 4
  23250370.923     6897845.764 6   6351471.273 2
 94  2  2  1 54 29.9990000  0  7 15  2 27 13  7 26 19
  23726734.364    -7663431.098 5  -3390199.907 2
  20873698.549     4046888.822 9   -817983.466 9
  21030172.015     3740555.097 7   3028600.501 6
  23647036.967    -1925780.150 5  -3095058.543 2
  20486757.293    -4818416.476 8  -6188304.085 9
  22471155.942   -14603399.325 7  -5455025.803 4
  23266502.456     6982652.906 5   6417554.761 2
 94  2  2  1 54 59.9990000  0  7 15  2 27 13  7 26 19
  23725830.399    -7668156.658 5  -3393882.168 2
  20874669.547     4051991.189 9   -814007.574 9
  21041470.413     3799925.561 7   3074863.211 6
  23624760.379    -2042846.640 5  -3186279.096 2
  20480581.329    -4850858.980 8  -6213583.918 9
  22466109.896   -14629943.596 7  -5475709.627 4
  23282692.717     7067739.707 5   6483856.150 2
 94  2  2  1 55 29.9990000  0  7 15  2 27 13  7 26 19
  23725043.894    -7672327.297 5  -3397132.007 2
  20875677.899     4057294.966 9   -809874.740 9
  21052851.494     3859743.826 7   3121474.851 6
  23602522.344    -2159722.663 6  -3277351.232 2
  20474503.426    -4882804.233 8  -6238476.299 9
  22461161.671   -14655948.526 7  -5495973.193 4
  23298933.704     7153095.167 5   6550366.885 2
 94  2  2  1 55 59.9990000  0  7 15  2 27 13  7 26 19
  23724355.331    -7675941.746 5  -3399948.389 2
  20876724.534     4062793.439 9   -805590.189 9
  21064317.476     3919997.665 7   3168425.889 6
  23580312.519    -2276404.997 5  -3368272.441 2
  20468520.048    -4914241.779 8  -6262973.060 9
  22456320.203   -14681401.640 7  -5515806.764 4
  23315222.777     7238677.792 5   6617054.640 2
 94  2  2  1 56 29.9990000  0  7 15  2 27 13  7 26 19
  23723774.303    -7678997.479 5  -3402329.507 2
  20877807.595     4068486.723 9   -801153.847 9
  21075863.114     3980674.746 7   3215706.746 6
  23558146.584    -2392888.786 6  -3459038.971 2
  20462638.750    -4945167.265 8  -6287070.806 9
  22451579.945   -14706308.307 7  -5535214.538 4
  23331548.635     7324473.991 5   6683908.820 2
 94  2  2  1 56 59.9990000  0  7 15  2 27 13  7 26 19
  23723296.404    -7681495.808 5  -3404276.219 2
  20878930.737     4074372.993 9   -796567.110 9
  21087488.855     4041773.063 7   3263315.826 6
  23536016.895    -2509173.339 6  -3549650.198 2
  20456846.460    -4975583.804 8  -6310771.988 9
  22446940.087   -14730659.899 7  -5554189.796 4
  23347916.883     7410480.118 5   6750926.577 2
 94  2  2  1 57 29.9990000  0  7 15  2 27 13  7 26 19
  23722929.368    -7683437.515 5  -3405789.184 2
  20880080.951     4080432.376 9   -791845.489 9
  21099197.100     4103275.107 7   3311239.507 6
  23513926.747    -2625256.945 5  -3640104.905 2
  20451159.217    -5005486.389 8  -6334072.667 9
  22442415.709   -14754456.735 7  -5572732.773 4
  23364324.795     7496691.441 5   6818104.229 2
 94  2  2  1 57 59.9990000  0  7 15  2 27 13  7 26 19
  23722664.771    -7684820.443 5  -3406866.789 2
  20881263.632     4086655.621 9   -786996.188 9
  21110974.147     4165184.490 7   3359480.584 6
  23491879.350    -2741135.048 6  -3730399.449 2
  20445567.608    -5034870.864 8  -6356969.636 9
  22437990.083   -14777703.391 7  -5590847.029 4
  23380763.494     7583102.741 5   6885437.656 2
 94  2  2  1 58 29.9990000  0  7 15  2 27 13  7 26 19
  23722504.982    -7685646.943 5  -3407510.774 2
  20882481.209     4093046.879 9   -782015.964 9
  21122834.206     4227496.736 7   3408035.604 6
  23469862.712    -2856807.999 6  -3820534.087 2
  20440073.402    -5063742.121 8  -6379466.673 9
  22433669.234   -14800409.561 7  -5608540.134 4
  23397246.773     7669727.453 5   6952937.457 2
 94  2  2  1 58 59.9990000  0  7 15  2 27 13  7 26 19
  23722449.790    -7685914.300 5  -3407719.064 2
  20883734.461     4099610.431 9   -776901.485 9
  21134771.522     4290225.534 7   3456915.177 6
  23447893.771    -2972270.933 6  -3910505.123 2
  20434674.859    -5092093.229 8  -6401558.429 9
  22429453.942   -14822566.625 7  -5625805.351 4
  23413777.809     7756591.109 5   7020623.411 2
 94  2  2  1 59 29.9990000  0  7 15  2 27 13  7 26 19
  23722510.708    -7685621.710 5  -3407491.022 2
  20885012.896     4106349.928 9   -771649.908 9
  21146787.743     4353372.911 7   3506120.945 6
  23425967.310    -3087520.666 6  -4000309.989 2
  20429382.503    -5119923.127 8  -6423244.027 9
  22425342.289   -14844178.616 7  -5642645.848 4
  23430354.803     7843692.126 5   7088494.348 2
 94  2  2  1 59 59.9990000  0  7 15  2 27 13  7 26 19
  23722669.268    -7684770.481 5  -3406827.704 2
  20886330.844     4113276.927 9   -766252.228 9
  21158886.468     4416954.939 7   3555665.383 6
  23404068.850    -3202556.047 6  -4089947.856 2
  20424182.333    -5147229.901 8  -6444522.012 9
  22421332.205   -14865249.312 7  -5659064.564 4
  23446976.466     7931029.457 5   7156549.377 2
 94  2  2  2  0 29.9990000  0  7 15  2 27 13  7 26 19
  23722938.152    -7683358.151 5  -3405727.152 2
  20887684.497     4120396.927 9   -760704.152 9
  21171067.785     4480976.638 7   3605552.417 6
  23382221.925    -3317372.356 6  -4179415.028 2
  20419087.390    -5174018.683 8  -6465396.353 9
  22417426.059   -14885768.463 7  -5675053.490 4
  23463636.622     8018626.263 5   7224806.621 2
 94  2  2  2  0 59.9990000  0  7 15  2 27 13  7 26 19
  23723315.231    -7681385.024 5  -3404189.600 2
  20889077.812     4127712.408 9   -755003.764 9
  21183335.412     4545443.084 7   3655786.024 6
  23360414.811    -3431967.361 6  -4268709.734 2
  20414088.651    -5200293.512 8  -6485870.219 9
  22413627.748   -14905736.617 7  -5690613.056 4
  23480360.605     8106478.994 5   7293263.299 2
 94  2  2  2  1 29.9990000  0  7 15  2 27 13  7 26 19
  23723801.344    -7678848.054 5  -3402212.708 2
  20890507.013     4135218.345 9   -749154.962 9
  21195686.532     4610339.571 7   3706354.719 6
  23338645.292    -3546335.430 6  -4357827.606 2
  20409180.988    -5226066.259 8  -6505952.837 9
  22409931.157   -14925149.439 7  -5705739.921 4
  23497129.046     8194565.132 5   7361901.833 2
 94  2  2  2  1 59.9990000  0  7 15  2 27 13  7 26 19
  23724387.139    -7675747.204 5  -3399796.442 2
  20891966.672     4142892.997 9   -743174.697 9
  21208117.336     4675661.647 7   3757255.050 6
  23316939.449    -3660474.129 6  -4446766.791 2
  20404372.857    -5251343.651 8  -6525649.490 9
  22406342.882   -14944005.829 7  -5720433.202 4
  23513932.863     8282900.211 5   7430734.335 2
 94  2  2  2  2 29.9990000  0  7 15  2 27 13  7 26 19
  23725094.589    -7672082.503 5  -3396940.814 2
  20893460.268     4150733.411 9   -737065.297 9
  21220622.878     4741392.467 7   3808473.854 6
  23295263.944    -3774381.063 6  -4535525.375 2
  20399656.282    -5276123.870 8  -6544958.739 9
  22402856.145   -14962310.182 7  -5734696.327 4
  23530798.707     8371487.039 5   7499763.069 2
 94  2  2  2  2 59.9990000  0  7 15  2 27 13  7 26 19
  23725896.534    -7667852.514 5  -3393644.650 2
  20894980.786     4158730.581 9   -730833.686 9
  21233211.344     4807522.127 7   3860003.488 6
  23273627.653    -3888052.557 6  -4624100.488 2
  20395039.898    -5300387.913 8  -6563865.739 9
  22399483.001   -14980062.362 7  -5748529.150 4
  23547690.633     8460317.069 5   7568981.257 2
 94  2  2  2  3 29.9990000  0  7 15  2 27 13  7 26 19
  23726806.374    -7663057.639 5  -3389908.360 2
  20896528.344     4166865.840 9   -724494.503 9
  21245867.382     4874042.110 7   3911837.231 6
  23252035.761    -4001486.519 6  -4712490.480 2
  20390522.325    -5324122.462 8  -6582360.167 9
  22396208.188   -14997256.800 7  -5761927.388 5
  23564643.956     8549391.019 5   7638389.499 2
 94  2  2  2  3 59.9990000  0  7 15  2 27 13  7 26 19
  23727823.030    -7657696.459 5  -3385730.796 2
  20898105.613     4175150.430 9   -718038.959 9
  21258602.146     4940959.214 7   3963980.460 6
  23230503.167    -4114678.625 6  -4800692.076 2
  20386109.020    -5347304.073 8  -6600423.742 9
  22393046.427   -15013895.784 7  -5774892.811 5
  23581641.679     8638712.086 5   7707990.336 2
 94  2  2  2  4 29.9990000  0  7 15  2 27 13  7 26 19
  23728955.286    -7651767.046 5  -3381110.421 2
  20899715.558     4183618.257 9   -711440.627 9
  21271407.331     5008268.651 7   4016429.371 6
  23208999.084    -4227624.662 6  -4888701.876 2
  20381804.300    -5369928.624 8  -6618053.219 9
  22389984.196   -15029976.444 7  -5787423.182 5
  23598684.551     8728255.001 5   7777764.008 2
 94  2  2  2  4 59.9990000  0  7 15  2 27 13  7 26 19
  23730190.311    -7645267.479 5  -3376045.794 2
  20901367.235     4192275.139 9   -704695.000 9
  21284290.522     5075972.634 7   4069185.737 6
  23187559.187    -4340320.326 6  -4976516.657 2
  20377602.289    -5392004.719 8  -6635255.359 9
  22387033.040   -15045483.688 7  -5799506.738 5
  23615755.003     8818016.429 5   7847707.978 2
 94  2  2  2  5 29.9990000  0  7 15  2 27 13  7 26 19
  23731529.484    -7638199.451 5  -3370538.207 2
  20903052.158     4201138.591 9   -697788.396 9
  21297250.910     5144070.879 7   4122249.313 6
  23166161.860    -4452764.282 6  -5064135.257 2
  20373504.576    -5413552.715 8  -6652045.963 9
  22384191.247   -15060423.748 7  -5811148.302 5
  23632884.155     8907977.387 5   7917807.447 2
 94  2  2  2  5 59.9990000  0  7 15  2 27 13  7 26 19
  23732987.165    -7630561.372 6  -3364586.440 2
  20904778.903     4210236.747 9   -690698.901 9
  21310285.736     5212573.362 7   4175627.871 5
  23144811.091    -4564952.643 6  -5151554.685 2
  20369502.917    -5434597.241 8  -6668444.257 9
  22381450.124   -15074806.824 7  -5822355.851 5
  23650030.994     8998131.474 5   7988057.359 2
 94  2  2  2  6 29.9990000  0  7 15  2 27 13  7 26 19
  23734552.651    -7622353.952 5  -3358191.050 2
  20906559.400     4219562.458 9   -683432.132 9
  21323400.337     5281490.609 7   4229329.576 5
  23123514.074    -4676883.381 6  -5238773.439 2
  20365590.055    -5455155.572 8  -6684463.761 9
  22378821.454   -15088636.942 7  -5833132.605 5
  23667232.276     9088494.723 5   8058470.274 2
 94  2  2  2  6 59.9990000  0  7 15  2 27 13  7 26 19
  23736215.090    -7613577.690 5  -3351352.371 2
  20908368.827     4229085.905 9   -676011.265 9
  21336594.833     5350834.482 7   4283363.782 5
  23102264.095    -4788554.560 6  -5325789.877 2
  20361767.582    -5475219.041 8  -6700097.617 9
  22376293.185   -15101924.649 7  -5843486.642 5
  23684467.974     9179073.018 5   8129050.726 2
 94  2  2  2  7 29.9990000  0  7 15  2 27 13  7 26 19
  23738001.374    -7604228.898 5  -3344067.615 2
  20910218.187     4238796.927 9   -668444.208 9
  21349877.078     5420615.876 7   4337738.888 5
  23081065.921    -4899959.559 6  -5412598.894 2
  20358050.485    -5494767.969 8  -6715330.510 9
  22373867.804   -15114677.753 7  -5853424.100 5
  23701742.285     9269870.285 5   8199801.878 2
 94  2  2  2  7 59.9990000  0  7 15  2 27 13  7 26 19
  23739888.627    -7594306.486 5  -3336335.814 2
  20912095.218     4248675.309 9   -660746.760 9
  21363239.937     5490841.690 7   4392460.316 5
  23059914.184    -5011094.838 6  -5499197.763 2
  20354432.230    -5513790.276 8  -6730153.069 9
  22371545.641   -15126889.082 7  -5862939.385 5
  23719070.799     9360901.383 5   8270735.156 2
 94  2  2  2  8 29.9990000  0  7 15  2 27 13  7 26 19
  23741882.667    -7583811.884 5  -3328158.176 2
  20914004.116     4258697.435 9   -652937.289 9
  21376683.740     5561498.473 7   4447517.562 5
  23038827.232    -5121958.810 6  -5585585.239 2
  20350912.726    -5532269.120 8  -6744552.140 9
  22369322.980   -15138551.148 7  -5872026.697 5
  23736440.804     9452160.417 5   8341846.082 2
 94  2  2  2  8 59.9990000  0  7 15  2 27 13  7 26 19
  23743996.383    -7572745.363 5  -3319534.908 2
  20915938.617     4268869.215 9   -645011.215 9
  21390211.665     5632573.345 7   4502900.585 5
  23017772.867    -5232549.135 6  -5671759.451 2
  20347503.217    -5550200.132 8  -6758524.318 9
  22367210.852   -15149648.455 7  -5880673.922 5
  23753839.829     9543630.501 5   8413121.484 2
 94  2  2  2  9 29.9990000  0  7 15  2 27 13  7 26 19
  23746200.997    -7561105.499 5  -3310464.854 2
  20917908.164     4279205.891 9   -636956.616 9
  21403817.326     5704061.300 7   4558605.513 5
  22996782.928    -5342861.764 6  -5757717.270 2
  20344191.080    -5567604.997 8  -6772086.518 9
  22365202.423   -15160176.275 7  -5888877.375 4
  23771291.287     9635319.788 5   8484567.660 2
 94  2  2  2  9 59.9990000  0  7 15  2 27 13  7 26 19
  23748534.012    -7548892.482 5  -3300948.191 2
  20919905.591     4289718.177 9   -628765.213 9
  21417495.386     5775952.572 7   4614624.690 5
  22975846.203    -5452893.881 6  -5843456.532 2
  20340974.307    -5584506.643 8  -6785256.600 9
  22363312.231   -15170143.335 7  -5896643.874 4
  23788779.171     9727223.434 5   8556180.918 2
 94  2  2  2 10 29.9990000  0  7 15  2 27 13  7 26 19
  23750962.031    -7536104.947 5  -3290983.884 2
  20921942.800     4300417.075 9   -620428.416 9
  21431249.265     5848241.461 7   4670953.690 5
  22954954.716    -5562641.780 6  -5928974.356 2
  20337851.488    -5600904.374 8  -6798034.047 9
  22361520.192   -15179560.352 7  -5903981.800 4
  23806314.871     9819353.416 5   8627970.491 2
 94  2  2  2 10 59.9990000  0  7 15  2 27 13  7 26 19
  23753506.490    -7522742.404 5  -3280571.481 2
  20924017.844     4311315.196 9   -611936.356 9
  21445082.498     5920928.378 7   4727592.844 5
  22934126.904    -5672101.652 6  -6014267.721 2
  20334826.972    -5616810.775 8  -6810428.626 9
  22359832.630   -15188424.573 7  -5910888.964 4
  23823886.666     9911721.346 5   8699945.527 2
 94  2  2  2 11 29.9990000  0  7 15  2 27 13  7 26 19
  23756152.878    -7508804.793 5  -3269710.980 2
  20926124.755     4322406.633 9   -603293.649 9
  21458992.299     5994016.275 7   4784544.463 5
  22913360.101    -5781270.981 6  -6099334.679 2
  20331896.741    -5632218.844 8  -6822434.878 9
  22358245.858   -15196745.519 7  -5917372.822 4
  23841512.454    10004336.251 5   8772112.974 2
 94  2  2  2 11 59.9990000  0  7 15  2 27 13  7 26 19
  23758918.403    -7494293.298 5  -3258403.279 2
  20928275.586     4333689.858 9   -594501.502 9
  21472970.002     6067493.355 7   4841799.332 5
  22892636.408    -5890147.772 6  -6184173.697 2
  20329060.284    -5647109.769 8  -6834038.179 9
  22356769.830   -15204516.981 7  -5923428.479 5
  23859178.085    10097189.593 5   8844466.247 2
 94  2  2  2 12 29.9990000  0  7 15  2 27 13  7 26 19
  23761794.672    -7479206.406 5  -3246647.231 2
  20930459.544     4345164.161 9   -585560.481 9
  21487029.999     6141364.425 7   4899361.217 5
  22871980.947    -5998727.895 6  -6268781.531 2
  20326328.426    -5661468.425 8  -6845226.724 9
  22355399.659   -15211717.028 7  -5929038.899 5
  23876892.821    10190279.091 5   8917003.504 2
 94  2  2  2 12 59.9990000  0  7 15  2 27 13  7 26 19
  23764764.056    -7463544.878 5  -3234443.378 2
  20932677.889     4356826.516 9   -576472.877 9
  21501160.237     6215626.604 7   4957227.872 5
  22851373.303    -6107009.066 6  -6353156.387 2
  20323695.259    -5675301.910 8  -6856006.013 9
  22354138.642   -15218337.526 7  -5934197.655 4
  23894644.222    10283576.900 5   8989703.094 2
 94  2  2  2 13 29.9990000  0  7 15  2 27 13  7 26 19
  23767866.099    -7447307.217 5  -3221790.648 2
  20934932.718     4368671.656 9   -567242.909 9
  21515369.350     6290281.367 7   5015400.384 5
  22830827.057    -6214986.788 6  -6437294.840 2
  20321160.363    -5688602.180 8  -6866369.864 9
  22352988.488   -15224390.436 7  -5938914.229 4
  23912437.294    10377071.560 5   9062556.055 2
 94  2  2  2 13 59.9990000  0  7 15  2 27 13  7 26 19
  23771059.188    -7430491.990 5  -3208687.833 2
  20937221.213     4380701.604 9   -557868.919 9
  21529647.925     6365325.785 7   5073876.564 5
  22810332.615    -6322657.212 6  -6521193.860 2
  20318729.886    -5701387.419 8  -6876332.370 9
  22351942.722   -15229881.205 7  -5943192.730 4
  23930261.725    10470749.557 5   9135551.887 2
 94  2  2  2 14 29.9990000  0  7 15  2 27 13  7 26 19
  23774370.965    -7413102.124 5  -3195137.248 2
  20939544.755     4392910.229 9   -548355.655 9
  21544001.298     6440763.036 7   5132658.859 5
  22789900.110    -6430019.828 6  -6604852.938 2
  20316393.244    -5713668.480 8  -6885901.980 9
  22351002.933   -15234818.331 7  -5947039.814 5
  23948124.948    10564611.501 5   9208691.101 2
 94  2  2  2 14 59.9990000  0  7 15  2 27 13  7 26 19
  23777785.871    -7395137.545 5  -3181138.862 2
  20941904.061     4405296.792 9   -538703.799 9
  21558435.466     6516598.459 7   5191751.369 5
  22769521.688    -6537071.366 6  -6688269.687 2
  20314150.886    -5725446.967 8  -6895080.029 9
  22350165.103   -15239221.401 7  -5950470.789 5
  23966026.755    10658665.612 5   9281979.958 2
 94  2  2  2 15 29.9990000  0  7 15  2 27 13  7 26 19
  23781315.178    -7376596.872 5  -3166691.559 2
  20944290.949     4417860.979 9   -528913.504 9
  21572944.042     6592844.603 7   5251163.959 5
  22749221.841    -6643807.787 6  -6771440.852 2
  20312010.308    -5736714.791 8  -6903860.115 9
  22349431.211   -15243096.217 7  -5953490.071 5
  23983972.871    10752927.974 5   9355431.173 2
 94  2  2  2 15 59.9990000  0  7 15  2 27 13  7 26 19
  23784949.922    -7357480.043 5  -3151795.317 2
  20946716.750     4430607.166 9   -518981.404 9
  21587526.307     6669507.605 7   5310901.358 5
  22728967.143    -6750226.248 6  -6854364.314 2
  20309963.025    -5747469.067 8  -6912240.077 9
  22348794.931   -15246433.863 7  -5956090.830 5
  24001941.801    10847406.147 5   9429050.514 2
 94  2  2  2 16 29.9990000  0  7 15  2 27 13  7 26 19
  23788705.512    -7337786.719 5  -3136449.802 2
  20949175.168     4443536.499 9   -508906.544 9
  21602202.047     6746592.414 7   5370967.497 5
  22708787.034    -6856323.212 6  -6937037.151 2
  20308015.693    -5757697.203 8  -6920209.980 9
  22348261.031   -15249226.334 6  -5958266.730 5
  24019964.605    10942108.805 5   9502844.799 2
 94  2  2  2 16 59.9990000  0  7 15  2 27 13  7 26 19
  23792548.342    -7317519.128 5  -3120656.938 2
  20951667.702     4456647.172 9   -498690.479 9
  21616948.718     6824088.896 7   5431354.288 5
  22688646.707    -6962098.144 6  -7019459.179 2
  20306171.100    -5767400.761 8  -6927771.227 9
  22347836.465   -15251468.901 7  -5960014.231 5
  24038024.222    11037023.108 5   9576803.929 2
 94  2  2  2 17 29.9990000  0  7 15  2 27 13  7 26 19
  23796524.819    -7296676.276 5  -3104415.706 2
  20954204.156     4469943.861 9   -488329.382 9
  21631769.767     6901988.952 7   5492055.672 5
  22668584.356    -7067546.637 6  -7101626.760 2
  20304417.494    -5776591.684 8  -6934932.961 9
  22347519.374   -15253137.959 7  -5961314.787 5
  24056124.552    11132142.499 5   9650922.938 2
 94  2  2  2 17 59.9990000  0  7 15  2 27 13  7 26 19
  23800604.694    -7275260.555 5  -3087728.052 2
  20956766.752     4483428.306 9   -477821.983 9
  21646668.823     6980269.086 7   5553053.211 5
  22648582.533    -7172668.076 6  -7183539.465 2
  20302768.576    -5785279.092 8  -6941702.315 9
  22347303.554   -15254228.584 6  -5962164.578 5
  24074259.597    11227453.783 5   9725191.516 2
 94  2  2  2 18 29.9990000  0  7 15  2 27 13  7 26 19
  23804782.482    -7253269.207 5  -3070591.961 2
  20959369.191     4497095.553 9   -467172.172 9
  21661634.972     7058918.427 7   5614338.411 5
  22628641.657    -7277456.968 6  -7265193.132 2
  20301210.854    -5793466.683 8  -6948082.247 9
  22347215.055   -15254738.757 7  -5962562.118 5
  24092428.669    11322939.035 4   9799595.608 2
 94  2  2  2 18 59.9990000  0  7 15  2 27 13  7 26 19
  23809078.688    -7230702.895 5  -3053007.763 2
  20962002.478     4510940.527 9   -456383.845 9
  21676670.583     7137940.603 7   5675914.145 5
  22608759.422    -7381910.526 6  -7346585.425 2
  20299745.828    -5801155.280 8  -6954073.331 9
  22347224.019   -15254663.668 7  -5962503.560 5
  24110632.516    11418591.424 5   9874129.907 2
 94  2  2  2 19 29.9990000  0  7 15  2 27 13  7 26 19
  23813475.654    -7207564.105 5  -3034977.573 2
  20964671.560     4524966.560 9   -445454.514 9
  21691780.993     7217337.713 6   5737781.971 5
  22588950.155    -7486028.139 6  -7427716.051 2
  20298380.004    -5808340.086 8  -6959671.927 9
  22347353.979   -15254016.998 7  -5961999.702 5
  24128869.191    11514410.412 4   9948794.066 2
 94  2  2  2 19 59.9990000  0  7 15  2 27 13  7 26 19
  23817995.055    -7183852.462 5  -3016500.953 2
  20967376.737     4539168.374 9   -434388.156 9
  21706962.393     7297110.551 7   5799942.634 5
  22569203.126    -7589806.127 6  -7508581.933 2
  20297111.642    -5814993.581 8  -6964856.423 9
  22347575.495   -15252807.735 7  -5961057.406 5
  24147130.809    11610399.729 4  10023590.917 1
 94  2  2  2 20 29.9990000  0  8 15  2 27 13  7 26 19  4
  23822616.116    -7159566.906 5  -2997577.129 2
  20970112.163     4553547.327 9   -423183.751 9
  21722212.745     7377273.960 7   5862407.615 4
  22549520.432    -7693240.682 6  -7589180.248 2
  20295948.387    -5821105.104 8  -6969618.640 9
  22347915.130   -15251039.575 7  -5959679.602 4
  24165431.850    11706580.560 4  10098537.005 1
  24589656.105    -9629059.86015  -2483197.865 2
 94  2  2  2 20 59.9990000  0  8 15  2 27 13  7 26 19  4
  23827343.004    -7134706.289 5  -2978205.185 2
  20972883.475     4568115.679 9   -411831.771 9
  21737547.309     7457838.232 7   5925184.988 4
  22529903.902    -7796327.407 6  -7669507.486 2
  20294891.379    -5826671.434 8  -6973956.009 9
  22348357.054   -15248717.148 7  -5957869.891 4
  24183784.904    11802981.469 4  10173654.580 1
  24570634.004    -9728981.670 5  -2561058.930 2
 94  2  2  2 21 29.9990000  0  8 15  2 27 13  7 26 19  4
  23832181.624    -7109274.413 5  -2958388.120 2
  20975692.830     4582876.198 9   -400330.046 9
  21752948.967     7538782.362 7   5988258.336 4
  22510358.213    -7899066.639 6  -7749563.982 2
  20293930.574    -5831704.258 8  -6977877.682 9
  22348896.981   -15245865.553 7  -5955647.847 4
  24202164.700    11899610.533 4  10248949.970 1
  24551621.376    -9828956.222 5  -2638961.087 2
 94  2  2  2 21 59.9990000  0  8 15  2 27 13  7 26 19  4
  23837135.844    -7083271.684 5  -2938126.191 2
  20978537.651     4597825.244 9   -388681.410 9
  21768424.613     7620110.418 7   6051630.870 4
  22490866.967    -8001456.053 6  -7829347.859 3
  20293074.127    -5836218.318 8  -6981395.087 9
  22349548.699   -15242488.847 7  -5953016.626 4
  24220597.409    11996471.796 5  10324426.287 1
  24532580.958    -9928973.955 5  -2716896.839 2
 94  2  2  2 22 29.9990000  0  8 15  2 27 13  7 26 19  4
  23842192.713    -7056696.711 5  -2917418.373 2
  20981422.314     4612978.981 9   -376873.258 9
  21783974.878     7701820.363 7   6115300.997 4
  22471455.225    -8103490.626 6  -7908855.232 3
  20292308.307    -5840239.306 8  -6984528.278 9
  22350284.390   -15238596.409 7  -5949983.507 4
  24239075.028    12093554.821 5  10400075.412 1
  24513533.104   -10029048.707 5  -2794877.030 2
 94  2  2  2 22 59.9990000  0  8 15  2 27 13  7 26 19  4
  23847356.639    -7029551.737 5  -2896266.454 2
  20984343.971     4628334.399 9   -364907.988 9
  21799594.005     7783902.571 7   6179261.156 4
  22452100.864    -8205169.276 6  -7988085.291 3
  20291638.181    -5843779.550 8  -6987286.894 9
  22351120.301   -15234185.032 7  -5946546.060 4
  24257584.963    12190831.640 4  10475875.538 1
  24494481.743   -10129193.220 5  -2872911.623 2
 94  2  2  2 23 29.9990000  0  8 15  2 27 13  7 26 19  4
  23852631.157    -7001836.515 5  -2874670.127 2
  20987303.762     4643888.866 9   -352787.606 9
  21815286.222     7866356.207 6   6243510.733 4
  22432823.429    -8306488.740 6  -8067035.457 3
  20291055.894    -5846828.444 8  -6989662.637 9
  22352063.568   -15229243.311 7  -5942695.365 5
  24276137.350    12288282.718 4  10551811.423 1
  24475412.934   -10229401.935 5  -2950996.236 2
 94  2  2  2 23 59.9990000  0  8 15  2 27 13  7 26 19  4
  23858014.230    -6973551.167 5  -2852629.598 2
  20990300.607     4659646.933 9   -340508.585 9
  21831046.971     7949188.402 7   6308055.323 4
  22413611.290    -8407445.727 6  -8145703.197 3
  20290571.160    -5849377.815 8  -6991649.140 9
  22353113.532   -15223744.352 7  -5938410.439 5
  24294694.203    12385889.072 4  10627868.280 1
  24456332.313   -10329676.540 5  -3029132.187 2
 94  2  2  2 24 29.9990000  0  8 15  2 27 13  7 26 19  4
  23863499.803    -6944696.987 5  -2830145.785 2
  20993338.554     4675602.512 9   -328075.644 9
  21846879.700     8032387.824 7   6372886.028 4
  22394468.552    -8508038.559 6  -8224087.182 3
  20290180.320    -5851417.501 8  -6993238.495 9
  22354268.122   -15217674.852 7  -5933680.935 5
  24313302.501    12483646.790 4  10704043.110 1
  24437238.082   -10430022.794 5  -3107323.958 2
 94  2  2  2 24 59.9990000  0  8 15  2 27 13  7 26 19  4
  23869098.637    -6915273.957 5  -2807218.768 2
  20996407.050     4691738.178 9   -315502.402 9
  21862785.309     8115970.407 7   6438015.316 4
  22375397.974    -8608263.524 7  -8302184.515 3
  20289893.299    -5852934.780 8  -6994420.771 9
  22355529.259   -15211028.024 7  -5928501.583 5
  24331942.397    12581568.953 4  10780346.059 1
  24418122.236   -10530429.133 5  -3185562.618 2
 94  2  2  2 25 29.9990000  0  8 15  2 27 13  7 26 19  4
  23874803.148    -6885285.317 5  -2783850.974 2
  20999511.820     4708047.430 8   -302793.872 9
  21878760.259     8199932.656 6   6503440.436 4
  22356396.619    -8708120.970 7  -8379995.459 3
  20289701.642    -5853938.956 8  -6995203.230 9
  22356899.850   -15203825.895 7  -5922889.539 5
  24350596.503    12679667.681 4  10856786.648 1
  24399017.572   -10630893.217 5  -3263846.188 2
 94  2  2  2 25 59.9990000  0  8 15  2 27 13  7 26 19  4
  23880620.111    -6854730.310 5  -2760041.851 2
  21002647.320     4724524.022 9   -289954.971 9
  21894812.437     8284270.498 6   6569158.229 4
  22337463.376    -8807607.024 7  -8457517.036 3
  20289603.190    -5854448.462 8  -6995600.247 9
  22358377.377   -15196081.286 7  -5916854.765 5
  24369309.278    12777950.439 4  10933370.602 1
  24379874.834   -10731406.892 5  -3342168.489 2
 94  2  2  2 26 29.9990000  0  8 15  2 27 13  7 26 19  4
  23886543.590    -6823609.778 5  -2735792.072 2
  21005812.888     4741149.302 9   -277000.182 9
  21910937.883     8368988.224 7   6635172.060 4
  22318602.293    -8906718.690 7  -8534746.880 3
  20289603.670    -5854468.607 8  -6995615.917 9
  22359947.960   -15187810.465 7  -5910409.940 5
  24388060.997    12876424.718 4  11010103.815 1
  24360748.525   -10831948.015 5  -3420512.107 2
 94  2  2  2 26 59.9990000  0  8 15  2 27 13  7 26 19  4
  23892572.746    -6791923.902 5  -2711101.800 2
  21009005.258     4757932.565 9   -263922.342 9
  21927121.939     8454088.477 6   6701483.904 4
  22299814.450    -9005453.300 7  -8611682.919 3
  20289688.541    -5854012.938 8  -6995260.880 9
  22361619.723   -15179021.839 7  -5903561.695 5
  24406820.480    12975085.872 4  11086982.544 1
  24341610.794   -10932499.719 5  -3498864.041 2
 94  2  2  2 27 29.9990000  0  9 15  2 27 13  9  7 26 19  4
  23898710.037    -6759674.993 5  -2685972.762 2
  21012229.346     4774879.809 8   -250716.647 9
  21943389.248     8539552.724 6   6768079.455 4
  22281099.066    -9103809.258 7  -8688323.850 3
  24676566.269   -10273301.71915  -2955518.470 2
  20289866.857    -5853079.588 8  -6994533.537 9
  22363392.396   -15169706.527 7  -5896302.973 5
  24425633.026    13073925.466 4  11164000.457 1
  24322482.266   -11033056.155 5  -3577219.566 2
 94  2  2  2 27 59.9990000  0  9 15  2 27 13  9  7 26 19  4
  23904950.247    -6726862.965 5  -2660404.916 2
  21015488.270     4792002.462 8   -237374.316 9
  21959724.099     8625384.378 6   6834961.246 4
  22262450.806    -9201783.568 7  -8764667.420 3
  24657563.654   -10373106.923 5  -3033288.735 2
  20290134.572    -5851649.411 8  -6993419.098 9
  22365272.004   -15159841.019 7  -5888615.563 5
  24444472.134    13172928.576 4  11241145.750 2
  24303352.809   -11133620.302 5  -3655581.166 2
 94  2  2  2 28 29.9990000  0  9 15  2 27 13  9  7 26 19  4
  23911311.394    -6693486.968 5  -2634397.606 2
  21018783.559     4809321.640 8   -223878.834 9
  21976127.364     8711588.261 6   6902133.110 4
  22243883.520    -9299371.572 7  -8840709.975 3
  24638580.166   -10472864.690 5  -3111022.015 1
  20290503.856    -5849711.597 8  -6991909.103 9
  22367251.954   -15149421.859 6  -5880496.737 5
  24463351.654    13272089.497 5  11318413.981 2
  24284206.174   -11234208.477 5  -3733961.465 2
 94  2  2  2 28 59.9990000  0  9 15  2 27 13  9  7 26 19  4
  23917764.156    -6659548.863 5  -2607952.362 2
  21022117.851     4826850.885 9   -210219.682 9
  21992598.861     8798157.811 6   6969589.901 4
  22225383.867    -9396572.016 7  -8916450.540 3
  24619596.498   -10572573.303 5  -3188716.941 2
  20290971.563    -5847265.520 8  -6990003.052 9
  22369342.976   -15138446.352 6  -5871944.400 5
  24482247.063    13371405.672 4  11395803.145 1
  24265063.346   -11334841.314 5  -3812376.569 2
 94  2  2  2 29 29.9990000  0  9 15  2 27 13  9  7 26 19  4
  23924328.592    -6625049.417 5  -2581069.707 2
  21025493.334     4844581.957 9   -196403.283 9
  22009142.368     8885084.311 6   7037324.801 4
  22206963.899    -9493382.018 7  -8991886.883 3
  24600652.613   -10672235.026 5  -3266375.373 2
  20291535.652    -5844301.076 8  -6987693.109 9
  22371537.877   -15126909.633 7  -5862954.769 5
  24501170.922    13470881.923 4  11473317.114 1
  24245893.207   -11435526.921 5  -3890832.857 2
 94  2  2  2 29 59.9990000  0  9 15  2 27 13  9  7 26 19  4
  23930996.396    -6589987.384 5  -2553748.648 2
  21028905.841     4862522.097 9   -182423.949 9
  22025752.189     8972366.367 6   7105336.788 4
  22188617.380    -9589797.070 7  -9067015.463 3
  24581686.722   -10771852.243 5  -3343999.103 2
  20292196.994    -5840834.299 8  -6984991.724 9
  22373839.173   -15114818.557 7  -5853533.131 5
  24520136.573    13570519.693 4  11550956.903 2
  24226720.311   -11536255.088 5  -3969322.287 2
 94  2  2  2 30 29.9990000  0  9 15  2 27 13  9  7 26 19  4
  23937778.211    -6554366.557 5  -2525992.128 2
  21032359.061     4880652.647 9   -168296.249 9
  22042423.708     9059992.988 6   7173617.262 4
  22170344.340    -9685817.563 7  -9141836.583 3
  24562754.169   -10871430.578 5  -3421592.559 2
  20292944.977    -5836888.507 8  -6981917.068 9
  22376240.391   -15102188.917 7  -5843691.854 5
  24539120.450    13670322.398 4  11628725.214 2
  24207554.819   -11637003.286 5  -4047827.310 2
 94  2  2  2 30 59.9990000  0  9 15  2 27 13  9  7 26 19  4
  23944668.101    -6518185.148 5  -2497798.771 2
  21035842.979     4898954.305 9   -154035.168 9
  22059165.288     9147955.236 6   7242159.299 4
  22152145.679    -9781438.375 7  -9216346.257 3
  24543811.783   -10970979.553 5  -3499163.084 2
  20293787.004    -5832461.692 8  -6978467.563 9
  22378746.836   -15089009.741 7  -5833422.361 4
  24558147.438    13770300.652 4  11706630.318 2
  24188388.157   -11737744.842 5  -4126327.163 2
 94  2  2  2 31 29.9990000  0  9 15  2 27 13  9  7 26 19  4
  23951654.105    -6481444.982 5  -2469170.043 2
  21039357.566     4917436.110 9   -139633.766 9
  22075967.066     9236249.231 6   7310959.827 4
  22134027.482    -9876657.760 7  -9290543.138 3
  24524862.801   -11070502.619 5  -3576713.424 2
  20294724.035    -5827554.564 8  -6974643.821 9
  22381363.484   -15075281.625 7  -5822725.126 4
  24577206.024    13870450.899 4  11784669.474 1
  24169217.539   -11838463.082 5  -4204808.854 2
 94  2  2  2 31 59.9990000  0  9 15  2 27 13  9  7 26 19  4
  23958756.668    -6444148.464 5  -2440107.855 2
  21042909.597     4936102.508 9   -125088.527 9
  22092838.456     9324890.182 6   7380030.644 4
  22115985.522    -9971474.489 7  -9364426.277 3
  24505923.832   -11169997.689 5  -3654241.956 2
  20295745.368    -5822171.815 8  -6970449.474 9
  22384077.805   -15061019.889 7  -5811612.100 4
  24596293.930    13970766.519 4  11862837.443 1
  24150049.619   -11939157.148 5  -4283271.747 2
 94  2  2  2 32 29.9990000  0  9 15  2 27 13  9  7 26 19  4
  23965967.426    -6406292.931 5  -2410610.066 2
  21046495.594     4954945.019 9   -110406.053 9
  22109772.623     9413891.327 6   7449382.182 4
  22098022.767   -10065882.648 7  -9437991.041 3
  24486998.863   -11269442.498 5  -3731731.383 2
  20296865.482    -5816295.258 8  -6965870.338 9
  22386888.540   -15046223.997 6  -5800082.814 4
  24615425.126    14071250.567 4  11941136.728 1
  24130899.806   -12039837.438 5  -4361723.878 2
 94  2  2  2 32 59.9990000  0  9 15  2 27 13  9  7 26 19  4
  23973265.664    -6367883.214 5  -2380680.354 2
  21050115.318     4973974.226 9    -95578.057 9
  22126776.371     9503244.272 6   7519007.900 4
  22080134.691   -10159883.308 7  -9511238.229 3
  24468093.232   -11368827.999 5  -3809174.530 2
  20298077.154    -5809915.874 8  -6960899.343 9
  22389808.668   -15030894.371 6  -5788137.609 4
  24634578.446    14171897.601 4  12019562.959 1
  24111726.069   -12140524.396 5  -4440181.215 2
 94  2  2  2 33 29.9990000  0  9 15  2 27 13  9  7 26 19  4
  23980681.450    -6328917.066 5  -2350317.149 2
  21053773.446     4993200.589 9    -80596.488 9
  22143847.693     9592949.420 6   7588907.968 4
  22062321.862   -10253471.047 7  -9584163.721 3
  24449198.962   -11468139.943 5  -3886560.421 2
  20299385.658    -5803038.181 8  -6955540.110 9
  22392828.417   -15015039.112 6  -5775782.884 4
  24653750.474    14272696.419 4  12098107.465 1
  24092573.678   -12241217.405 5  -4518643.268 2
 94  2  2  2 33 59.9990000  0  8 15  2 27 13  9  7 26  4
  23988204.472    -6289398.607 5  -2319523.472 2
  21057468.418     5012607.474 9    -65474.173 9
  22160982.601     9682989.390 6   7659069.038 4
  22044590.128   -10346646.483 7  -9656767.877 3
  24430315.724   -11567369.623 5  -3963882.091 2
  20300788.237    -5795673.640 8  -6949801.462 9
  22395944.760   -14998664.175 6  -5763023.166 5
  24073405.878   -12341929.995 5  -4597120.514 2
 94  2  2  2 34 29.9990000  0  8 15  2 27 13  9  7 26  4
  23995823.067    -6249325.257 5  -2288297.541 2
  21061194.628     5032195.895 8    -50210.500 9
  22178172.731     9773348.654 6   7729478.791 4
  22026940.446   -10439403.579 7  -9729046.131 3
  24411437.314   -11666523.145 5  -4041144.555 2
  20302285.370    -5787814.922 8  -6943677.801 9
  22399157.996   -14981755.983 6  -5749847.973 5
  24054237.988   -12442660.117 5  -4675611.537 2
 94  2  2  2 34 59.9990000  0  8 15  2 27 13  9  7 26  4
  24003547.010    -6208700.775 5  -2256642.062 2
  21064959.812     5051974.443 8    -34798.611 9
  22195428.215     9864013.904 6   7800127.061 4
  22009368.831   -10531742.313 7  -9800998.323 3
  24392577.550   -11765622.550 5  -4118364.811 2
  20303871.902    -5779475.941 8  -6937179.850 9
  22402479.396   -14964321.536 6  -5736262.654 5
  24035060.804   -12543399.511 5  -4754109.724 2
 94  2  2  2 35 29.9990000  0  8 15  2 27 13  9  7 26  4
  24011388.891    -6167527.927 5  -2224559.319 2
  21068759.381     5071940.331 8    -19240.769 9
  22212742.848     9955004.005 6   7871028.430 4
  21991877.650   -10623662.121 7  -9872624.138 3
  24373731.277   -11864680.823 5  -4195553.014 2
  20305546.543    -5770674.989 8  -6930321.971 9
  22405891.484   -14946376.140 6  -5722279.241 5
  24015897.350   -12644145.141 5  -4832612.765 2
 94  2  2  2 35 59.9990000  0  8 15  2 27 13  9  7 26  4
  24019328.925    -6125806.805 5  -2192049.363 2
  21072593.637     5092091.571 8     -3538.529 9
  22230119.928    10046339.052 6   7942198.567 4
  21974464.805   -10715159.616 7  -9943920.887 4
  24354903.831   -11963700.084 5  -4272710.807 2
  20307310.791    -5761404.335 8  -6923098.087 9
  22409400.615   -14927924.729 6  -5707901.551 5
  23996738.693   -12744886.406 5  -4911112.414 2
 94  2  2  2 36 29.9990000  0  8 15  2 27 13  9  7 26  4
  24027372.566    -6083536.430 5  -2159111.410 2
  21076467.915     5112443.429 8     12320.065 9
  22247572.886    10138043.961 6   8013656.911 4
  21957138.030   -10806230.044 7 -10014884.821 4
  24336059.027   -12062685.071 5  -4349841.923 2
  20309165.307    -5751654.667 8  -6915500.942 9
  22413008.497   -14908967.372 6  -5693129.554 5
  23977562.229   -12845598.734 5  -4989589.523 2
 94  2  2  2 36 59.9990000  0  8 15  2 27 13  9  7 26  4
  24035519.876    -6040722.109 5  -2125749.588 2
  21080376.789     5132993.840 8     28333.384 9
  22265093.207    10230119.411 6   8085404.027 4
  21939889.051   -10896875.368 7 -10085517.516 4
  24317218.660   -12161619.025 5  -4426933.230 2
  20311110.871    -5741433.201 8  -6907536.145 9
  22416715.851   -14889505.466 6  -5677964.441 5
  23958405.071   -12946271.206 5  -5068035.517 2
 94  2  2  2 37 29.9990000  0  8 15  2 27 13  9  7 26  4
  24043774.271    -5997364.531 5  -2091964.462 2
  21084323.856     5153736.997 8     44496.901 9
  22282683.829    10322559.065 6   8157434.913 3
  21922719.277   -10987092.522 7 -10155816.565 4
  24298408.482   -12260491.521 5  -4503976.646 2
  20313148.020    -5730729.603 8  -6899195.671 9
  22420518.148   -14869530.063 7  -5662399.177 5
  23939260.685   -13046902.718 5  -5146449.605 2
 94  2  2  2 37 59.9990000  0  8 15  2 27 13  9  7 26  4
  24052121.992    -5953463.957 5  -2057756.215 2
  21088304.531     5174659.175 8     60799.895 9
  22300343.913    10415353.170 6   8229742.015 3
  21905632.966   -11076878.095 7 -10225779.333 4
  24279603.041   -12359296.775 5  -4580967.643 2
  20315281.134    -5719518.940 8  -6890460.073 9
  22424419.587   -14849025.785 7  -5646421.822 5
  23920114.349   -13147493.928 5  -5224832.307 2
 94  2  2  2 38 29.9990000  0  8 15  2 27 13  9  7 26  4
  24060592.359    -5909021.522 5  -2023125.738 2
  21092318.152     5195759.222 8     77241.488 9
  22318063.296    10508481.765 6   8302309.734 3
  21888631.975   -11166229.491 7 -10295403.761 4
  24260824.221   -12458035.302 5  -4657906.729 2
  20317508.981    -5707803.251 8  -6881330.971 9
  22428423.376   -14827983.319 6  -5630025.080 5
  23900970.143   -13248054.587 5  -5303191.203 2
 94  2  2  2 38 59.9990000  0  8 15  2 27 13  9  7 26  4
  24069138.692    -5864037.487 5  -1988073.197 2
  21096367.509     5217024.171 8     93811.595 9
  22335847.644    10601938.442 6   8375133.117 3
  21871708.811   -11255144.004 7 -10364687.761 4
  24242045.581   -12556695.753 5  -4734784.884 2
  20319830.904    -5695594.867 8  -6871817.895 9
  22432530.113   -14806412.041 7  -5613216.299 5
  23881842.484   -13348597.669 5  -5381536.378 2
 94  2  2  2 39 29.9990000  0  8 15  2 27 13  9  7 26  4
  24077808.780    -5818515.753 5  -1952601.704 2
  21100444.836     5238452.322 8    110508.891 9
  22353697.018    10695726.643 6   8448214.839 3
  21854875.165   -11343621.939 7 -10433631.557 4
  24223277.224   -12655291.404 5  -4811612.566 2
  20322247.681    -5682902.572 8  -6861927.773 9
  22436728.616   -14784325.939 6  -5596006.328 5
  23862713.747   -13449125.839 5  -5459869.920 2
 94  2  2  2 39 59.9990000  0  8 15  2 27 13  9  7 26  4
  24086573.212    -5772455.589 5  -1916710.644 2
  21104555.350     5260051.046 8    127339.083 9
  22371607.788    10789852.934 6   8521560.011 3
  21838117.366   -11431658.570 7 -10502231.490 4
  24204536.538   -12753811.466 5  -4888381.336 2
  20324756.104    -5669732.781 8  -6851665.564 9
  22441032.107   -14761727.870 6  -5578397.424 5
  23843593.644   -13549629.697 5  -5538184.524 2
 94  2  2  2 40 29.9990000  0  8 15  2 27 13  9  7 26  4
  24095438.135    -5725858.897 5  -1880401.542 2
  21108704.538     5281852.651 8    144327.348 9
  22389576.779    10884296.413 6   8595152.311 3
  21821453.552   -11519252.052 7 -10570486.127 4
  24185812.430   -12852251.319 6  -4965087.645 2
  20327344.932    -5656118.550 8  -6841057.070 9
  22445425.086   -14738622.126 6  -5560392.944 5
  23824472.971   -13650102.580 5  -5616475.031 2
 94  2  2  2 40 59.9990000  0  8 15  2 27 13  9  7 26  4
  24104409.874    -5678726.337 5  -1843674.852 2
  21112892.609     5303868.226 8    161482.349 9
  22407614.811    10979054.884 6   8668990.084 3
  21804869.213   -11606399.447 7 -10638393.156 4
  24167086.524   -12950614.250 5  -5041734.027 2
  20330019.560    -5642063.069 8  -6830104.733 9
  22449917.086   -14715011.359 6  -5541994.958 5
  23805354.846   -13750538.264 5  -5694736.555 2
 94  2  2  2 41 29.9990000  0  8 15  2 27 13  9  7 26  4
  24113475.958    -5631060.099 5  -1806532.330 2
  21117124.359     5326098.647 8    178804.776 9
  22425699.881    11074110.123 6   8743059.094 3
  21788370.405   -11693098.985 7 -10705951.215 4
  24148376.117   -13048912.978 5  -5118330.419 2
  20332780.049    -5627557.804 8  -6818801.929 9
  22454511.435   -14690887.349 6  -5523197.026 5
  23786252.460   -13850937.427 5  -5772969.649 2
 94  2  2  2 41 59.9990000  0  8 15  2 27 13  9  7 26  4
  24122646.939    -5582861.108 5  -1768974.649 2
  21121395.172     5348550.004 8    196299.342 9
  22443841.732    11169450.917 6   8817350.606 3
  21771954.909   -11779348.523 7 -10773158.618 4
  24129694.970   -13147135.343 5  -5194867.245 2
  20335622.531    -5612607.424 8  -6807152.260 9
  22459195.902   -14666253.736 6  -5504002.007 5
  23767149.835   -13951300.427 5  -5851174.511 2
 94  2  2  2 42 29.9990000  0  8 15  2 27 13  9  7 26  4
  24131925.456    -5534131.141 5  -1731003.194 2
  21125709.036     5371211.484 9    213957.649 9
  22462038.984    11265072.881 6   8891861.218 3
  21755631.030   -11865146.292 7 -10840014.004 4
  24111012.353   -13245283.845 5  -5271346.489 2
  20338552.793    -5597213.703 8  -6795157.156 9
  22463979.091   -14641122.205 6  -5484419.002 5
  23748063.368   -14051627.914 5  -5929351.757 2
 94  2  2  2 42 59.9990000  0  8 15  2 27 13  9  7 26  4
  24141301.375    -5484870.288 5  -1692618.093 2
  21130056.057     5394056.173 8    231758.708 9
  22480288.340    11360996.136 6   8966606.600 3
  21739390.163   -11950488.923 7 -10906514.711 4
  24092346.406   -13343356.375 5  -5347766.586 2
  20341572.422    -5581360.285 8  -6782803.819 9
  22468853.866   -14615495.718 6  -5464450.306 5
  23728974.263   -14151911.032 5  -6007494.371 2
 94  2  2  2 43 29.9990000  0  8 15  2 27 13  9  7 26  4
  24150769.300    -5435082.817 5  -1653822.714 2
  21134436.984     5417079.270 8    249698.791 9
  22498606.949    11457238.032 6   9041600.279 3
  21723235.307   -12035376.724 7 -10972661.031 4
  24073707.289   -13441340.514 5  -5424117.808 2
  20344676.204    -5565047.624 8  -6770092.652 9
  22473828.832   -14589374.068 6  -5444095.781 4
  23709906.863   -14252147.393 5  -6085600.595 2
 94  2  2  2 43 59.9990000  0  8 15  2 27 13  9  7 26  4
  24160343.532    -5384770.038 5  -1614617.987 2
  21138851.847     5440277.418 8    267775.234 9
  22516980.719    11553814.550 6   9116854.629 3
  21707166.611   -12119807.484 7 -11038451.234 4
  24055075.158   -13539220.634 5  -5500388.000 2
  20347864.916    -5548276.478 8  -6757024.263 9
  22478888.100   -14562762.967 6  -5423359.885 4
  23690851.425   -14352315.909 5  -6163653.982 2
 94  2  2  2 44 29.9990000  0  8 15  2 27 13  9  7 26  4
  24170019.514    -5333931.043 5  -1575003.153 2
  21143296.510     5463642.433 8    285981.747 9
  22535432.525    11650735.966 6   9192377.820 3
  21691191.181   -12203776.474 7 -11103881.585 4
  24036462.843   -13637005.682 5  -5576584.098 2
  20351146.924    -5531038.300 8  -6743591.899 9
  22484050.166   -14535645.293 6  -5402229.214 4
  23671793.259   -14452408.364 5  -6241648.080 2
 94  2  2  2 44 59.9990000  0  8 15  2 27 13  9  7 26  4
  24179794.726    -5282568.897 5  -1534980.644 2
  21147774.390     5487174.235 8    304318.255 9
  22553941.561    11748005.770 6   9268172.496 3
  21675300.622   -12287283.071 7 -11168951.614 4
  24017880.597   -13734694.054 5  -5652704.792 2
  20354517.011    -5513330.150 8  -6729793.290 9
  22489305.858   -14508015.190 6  -5380699.249 4
  23652768.549   -14552413.863 5  -6319574.355 2
 94  2  2  2 45 29.9990000  0  8 15  2 27 13  9  7 26  4
  24189669.200    -5230685.350 5  -1494551.941 2
  21152285.547     5510873.053 8    322784.837 8
  22572511.036    11845605.364 6   9344224.092 3
  21659497.902   -12370325.669 7 -11233660.129 4
  23999312.652   -13832282.216 5  -5728747.556 2
  20357973.528    -5495158.952 8  -6715633.942 9
  22494663.329   -14479888.081 7  -5358782.075 4
  23633750.735   -14652340.192 5  -6397439.028 2
 94  2  2  2 45 59.9990000  0  8 15  2 27 13  9  7 26  4
  24199645.334    -5178282.902 5  -1453718.890 2
  21156826.894     5534734.875 8    341378.457 8
  22591142.238    11943505.791 6   9420510.136 3
  21643785.179   -12452903.034 7 -11298006.134 4
  23980757.117   -13929775.432 5  -5804716.240 2
  20361519.114    -5476534.114 8  -6701121.087 9
  22500102.553   -14451271.202 6  -5336483.212 4
  23614747.520   -14752180.442 5  -6475236.598 2
 94  2  2  2 46 29.9990000  0  8 15  2 27 13  9  7 26  4
  24209709.097    -5125361.292 5  -1412481.232 2
  21161402.056     5558780.671 8    360115.465 8
  22609825.783    12041690.908 6   9497018.029 3
  21628159.847   -12535011.118 7 -11361986.419 4
  23962219.960   -14027183.007 5  -5880618.137 2
  20365145.703    -5457464.787 8  -6686261.856 9
  22505648.054   -14422165.220 6  -5313803.214 4
  23595771.198   -14851943.511 5  -6552973.981 2
 94  2  2  2 46 59.9990000  0  8 15  2 27 13  9  7 26  4
  24219882.734    -5071925.037 5  -1370842.586 2
  21166014.633     5583018.145 8    379001.808 8
  22628563.322    12140144.167 6   9573734.806 3
  21612625.950   -12616650.616 7 -11425601.601 4
  23943705.707   -14124496.804 6  -5956447.065 2
  20368860.102    -5437955.262 8  -6671059.630 9
  22511276.687   -14392584.946 6  -5290753.657 4
  23576797.183   -14951632.038 5  -6630653.314 2
 94  2  2  2 47 29.9990000  0  8 15  2 27 13  9  7 26  4
  24230145.829    -5017977.747 5  -1328805.710 2
  21170663.035     5607456.588 8    398044.752 8
  22647344.899    12238856.856 6   9650653.767 3
  21597178.125   -12697821.616 7 -11488851.688 4
  23925198.230   -14221711.557 5  -6032198.781 2
  20372652.626    -5418015.230 8  -6655521.918 9
  22516997.297   -14362529.614 6  -5267333.906 4
  23557838.278   -15051250.044 5  -6708277.708 2
 94  2  2  2 47 59.9990000  0  8 15  2 27 13  9  7 26  4
  24240512.802    -4963519.004 5  -1286370.306 2
  21175355.027     5632109.997 8    417255.222 8
  22666176.692    12337837.100 6   9727781.245 3
  21581819.217   -12778519.847 7 -11551733.415 4
  23906716.415   -14318821.628 5  -6107868.919 2
  20376533.649    -5397635.070 8  -6639641.275 9
  22522806.615   -14331980.202 6  -5243529.152 4
  23538894.123   -15150774.186 5  -6785828.952 2
 94  2  2  2 48 29.9990000  0  8 15  2 27 13  9  7 26  4
  24250963.627    -4908551.129 5  -1243538.192 2
  21180087.521     5656983.591 8    436637.243 8
  22685066.195    12437097.977 6   9805127.375 3
  21566553.516   -12858744.507 7 -11614246.123 4
  23888259.452   -14415820.571 5  -6183452.456 2
  20380497.505    -5376803.560 8  -6623408.908 9
  22528715.495   -14300939.539 6  -5219341.637 4
  23519975.900   -15250207.945 5  -6863309.744 2
 94  2  2  2 48 59.9990000  0  8 15  2 27 13  9  7 26  4
  24261525.286    -4853076.281 5  -1200311.087 2
  21184860.156     5682065.359 8    456181.477 8
  22704014.668    12536640.849 6   9882693.203 3
  21551376.193   -12938493.650 7 -11676388.296 4
  23869828.212   -14512698.298 5  -6258941.564 2
  20384547.611    -5355519.594 8  -6606824.012 9
  22534720.248   -14269408.627 6  -5194772.104 4
  23501078.182   -15349546.282 5  -6940716.238 2
 94  2  2  2 49 29.9990000  0  8 15  2 27 13  9  7 26  4
  24272170.496    -4797095.616 5  -1156689.764 2
  21189672.545     5707350.758 8    475884.381 8
  22723008.289    12636469.019 6   9960481.381 3
  21536292.585   -13017764.602 7 -11738157.853 4
  23851416.428   -14609451.791 6  -6334333.832 2
  20388681.060    -5333790.995 8  -6589892.611 9
  22540803.067   -14237397.651 6  -5169828.496 4
  23482187.210   -15448792.625 5  -7018050.994 2
 94  2  2  2 49 59.9990000  0  8 15  2 27 13  9  7 26  4
  24282927.169    -4740612.039 5  -1112676.565 2
  21194525.915     5732842.060 8    495747.752 8
  22742058.690    12736590.272 6  10038497.947 3
  21521300.893   -13096556.853 7 -11799554.397 4
  23833022.692   -14706089.499 6  -6409635.906 2
  20392901.718    -5311612.180 8  -6572610.420 9
  22546984.667   -14204925.490 6  -5144525.502 4
  23463319.382   -15547963.410 6  -7095326.902 3
 94  2  2  2 50 29.9990000  0  8 15  2 27 13  9  7 26  4
  24293776.419    -4683624.980 5  -1068271.044 2
  21199413.941     5758540.004 8    515772.137 8
  22761174.327    12837008.918 6  10116746.259 3
  21506400.009   -13174865.987 7 -11860574.464 4
  23814665.020   -14802607.405 6  -6484844.611 2
  20397203.590    -5288989.921 8  -6554982.651 9
  22553250.060   -14171999.082 6  -5118868.543 4
  23444457.070   -15647080.230 5  -7172560.726 3
 94  2  2  2 50 59.9990000  0  8 15  2 27 13  9  7 26  4
  24304712.098    -4626136.587 4  -1023474.910 2
  21204342.259     5784428.310 8    535944.842 8
  22780334.393    12937730.196 6  10195230.334 2
  21491591.281   -13252690.577 7 -11921217.000 4
  23796317.033   -14899013.347 6  -6559966.067 2
  20401593.751    -5265930.998 8  -6537014.658 9
  22559602.512   -14138618.504 6  -5092857.714 4
  23425606.960   -15746149.232 6  -7249757.332 3
 94  2  2  2 51 29.9990000  0  8 15  2 27 13  9  7 26  4
  24315745.150    -4568149.321 4   -978290.020 2
  21209302.775     5810505.628 8    556264.863 8
  22799563.051    13038767.413 6  10273960.617 2
  21476872.850   -13330029.435 7 -11981481.005 4
  23777992.189   -14995302.475 6  -6634996.482 2
  20406066.234    -5242431.939 8  -6518703.668 9
  22566039.386   -14104779.727 6  -5066489.813 4
  23406770.220   -15845156.184 5  -7326905.508 3
 94  2  2  2 51 59.9990000  0  8 15  2 27 13  9  7 26  4
  24326874.615    -4509664.243 4   -932717.182 2
  21214301.005     5836765.230 8    576726.917 8
  22818852.057    13140113.440 6  10352931.580 3
  21462245.916   -13406880.320 7 -12041364.762 5
  23759685.242   -15091482.197 6  -6709941.684 2
  20410621.221    -5218491.315 8  -6500048.626 9
  22572574.082   -14070461.511 6  -5039748.322 4
  23387948.830   -15944081.016 6  -7403989.780 3
 94  2  2  2 52 29.9990000  0  8 15  2 27 13  9  7 26  4
  24338092.459    -4450681.464 4   -886756.595 2
  21219326.546     5863193.115 8    597320.066 8
  22838190.590    13241749.346 6  10432128.339 3
  21447717.134   -13483239.194 7 -12100865.172 5
  23741402.039   -15187548.749 5  -6784798.674 2
  20415260.779    -5194123.543 8  -6481060.737 9
  22579203.153   -14035638.128 6  -5012613.217 4
  23369142.849   -16042887.952 6  -7480982.168 3
 94  2  2  2 52 59.9990000  0  8 15  2 27 13  9  7 26  4
  24349418.259    -4391205.941 4   -840412.015 2
  21224387.792     5889775.804 8    618033.862 8
  22857579.427    13343662.932 6  10511541.519 3
  21433281.528   -13559107.422 7 -12159983.259 5
  23723145.158   -15283502.829 5  -6859568.006 2
  20419975.525    -5169341.358 8  -6461749.946 9
  22585921.352   -14000316.089 6  -4985089.555 4
  23350371.254   -16141549.030 6  -7557860.860 3
 94  2  2  2 53 29.9990000  0  8 15  2 27 13  9  7 26  4
  24360826.081    -4331237.803 4   -793683.603 2
  21229476.439     5916529.160 8    638880.632 8
  22877022.197    13445827.172 6  10591149.984 3
  21418935.889   -13634481.566 7 -12218716.334 5
  23704909.533   -15379331.067 5  -6934239.349 2
  20424767.588    -5144151.152 8  -6442121.196 9
  22592734.495   -13964503.402 6  -4957183.554 4
  23331618.187   -16240050.507 6  -7634615.243 3
 94  2  2  2 53 59.9990000  0  8 15  2 27 13  9  7 26  4
  24372333.465    -4270780.581 4   -746574.082 2
  21234601.331     5943454.199 8    659861.186 8
  22896509.007    13548234.050 6  10670947.528 3
  21404688.253   -13709361.300 7 -12277064.149 5
  23686695.702   -15475045.624 5  -7008822.061 2
  20429642.603    -5118548.145 8  -6422170.797 9
  22599637.786   -13928219.455 6  -4928910.338 4
  23312902.623   -16338406.895 6  -7711256.539 3
 94  2  2  2 54 29.9990000  0  8 15  2 27 13  9  7 26  4
  24383929.047    -4209834.270 4   -699083.471 2
  21239760.880     5970559.424 8    680982.131 8
  22916048.550    13650899.779 6  10750946.784 3
  21390531.423   -13783743.020 7 -12335023.918 5
  23668512.330   -15570626.333 6  -7083300.475 2
  20434594.874    -5092522.140 8  -6401890.785 9
  22606629.006   -13891492.735 6  -4900292.100 4
  23294214.221   -16436620.139 6  -7787786.286 3
 94  2  2  2 54 59.9990000  0  8 15  2 27 13  9  7 26  4
  24395615.767    -4148401.403 4   -651213.701 2
  21244953.465     5997853.799 8    702250.488 8
  22935632.072    13753834.030 6  10831155.309 3
  21376475.054   -13857625.534 7 -12392594.665 5
  23650351.173   -15666062.360 6  -7157666.151 2
  20439627.490    -5066070.577 8  -6381279.173 9
  22613696.404   -13854347.739 6  -4871347.961 4
  23275554.329   -16534705.878 6  -7864216.708 3
 94  2  2  2 55 29.9990000  0  8 15  2 27 13  9  7 26  4
  24407410.202    -4086482.947 4   -602965.543 2
  21250183.374     6025342.328 8    723670.128 8
  22955273.815    13857042.135 6  10911577.188 3
  21362510.931   -13931006.092 7 -12449774.330 5
  23632213.309   -15761355.937 6  -7231920.814 2
  20444744.468    -5039174.529 8  -6360321.201 9
  22620845.914   -13816779.682 6  -4842074.172 4
  23256912.664   -16632677.819 6  -7940558.457 3
 94  2  2  2 55 59.9990000  0  9 15  2 27 13  9  7 26 12  4
  24419277.516    -4024083.229 4   -554342.370 2
  21255449.349     6053014.017 8    745232.485 8
  22974970.179    13960532.292 6  10992218.832 3
  21348640.494   -14003885.350 7 -12506563.316 5
  23614110.941   -15856511.048 6  -7306067.629 2
  20449945.627    -5011840.443 8  -6339021.905 9
  22628078.617   -13778782.085 6  -4812465.659 4
  24670833.068    -3837843.45715  -2795075.061 1
  23238285.690   -16730537.168 6  -8016812.481 3
 94  2  2  2 56 29.9990000  0  9 15  2 27 13  9  7 26 12  4
  24431251.287    -3961204.650 5   -505346.047 2
  21260746.292     6080861.421 8    766931.800 8
  22994714.031    14064284.222 6  11073064.512 3
  21334865.750   -14076262.017 7 -12562960.704 5
  23596031.867   -15951520.659 6  -7380101.031 2
  20455226.351    -4984094.104 8  -6317401.384 9
  22635393.973   -13740340.960 6  -4782511.527 4
  24653739.651    -3927715.299 5  -2865105.053 1
  23219685.726   -16828278.700 6  -8092974.650 3
 94  2  2  2 56 59.9990000  0  9 15  2 27 13  9  7 26 12  4
  24443299.796    -3897850.174 4   -455978.942 2
  21266080.919     6108881.136 8    788765.309 8
  23014499.733    14168271.919 5  11154093.848 2
  21321191.137   -14148135.697 7 -12618966.161 5
  23577978.245   -16046395.709 6  -7454029.588 2
  20460586.041    -4955944.434 8  -6295466.564 9
  22642797.947   -13701439.282 6  -4752198.532 4
  24636630.855    -4017618.246 5  -2935159.187 1
  23201097.994   -16925909.497 6  -8169050.576 3
 94  2  2  2 57 29.9990000  0  9 15  2 27 13  9  7 26 12  4
  24455441.270    -3834020.987 4   -406241.920 2
  21271448.912     6137078.995 8    810737.681 8
  23034332.983    14272488.189 5  11235301.308 2
  21307612.157   -14219503.979 8 -12674577.789 5
  23559944.740   -16141140.928 6  -7527857.000 2
  20466019.420    -4927388.836 8  -6273215.440 9
  22650288.591   -13662065.235 6  -4721517.475 4
  24619503.412    -4107549.746 5  -3005235.596 1
  23182553.312   -17023421.474 6  -8245033.896 3
 94  2  2  2 57 59.9990000  0  9 15  2 27 13  9  7 26 12  4
  24467677.150    -3769717.326 4   -356135.171 2
  21276851.862     6165474.186 8    832863.802 7
  23054203.077    14376928.082 6  11316683.019 2
  21294126.293   -14290363.085 8 -12729792.661 5
  23541945.620   -16235748.815 6  -7601577.372 2
  20471526.337    -4898441.942 8  -6250659.415 9
  22657871.422   -13622220.628 6  -4690469.724 4
  24602391.169    -4197506.865 5  -3075331.918 1
  23164016.395   -17120799.116 6  -8320912.548 3
 94  2  2  2 58 29.9990000  0  9 15  2 27 13  9  7 26 12  4
  24480006.954    -3704942.107 4   -305661.020 2
  21282296.153     6194092.232 8    855163.586 7
  23074122.877    14481601.104 6  11398246.414 2
  21280739.810   -14360712.267 8 -12784610.190 5
  23523966.707   -16330217.669 6  -7675189.419 2
  20477109.762    -4869100.827 8  -6227796.205 9
  22665543.860   -13581913.652 6  -4659061.719 4
  24585274.489    -4287489.067 5  -3145447.871 1
  23145523.727   -17218038.650 6  -8396683.611 3
 94  2  2  2 58 59.9990000  0  8  2 27 13  9  7 26 12  4
  21287788.381     6222952.761 8    877652.299 7
  23094091.213    14586522.721 6  11480003.493 2
  21267451.690   -14430550.464 8 -12839029.546 5
  23506016.184   -16424543.103 6  -7748689.728 2
  20482769.184    -4839346.774 8  -6204611.213 9
  22673294.065   -13541149.697 6  -4627297.602 4
  24568148.844    -4377495.467 5  -3215582.644 2
  23127034.387   -17315130.673 6  -8472339.699 3
 94  2  2  2 59 29.9990000  0  8  2 27 13  9  7 26 12  4
  21293331.124     6252069.464 8    900340.640 7
  23114113.482    14691711.061 6  11561968.461 2
  21254258.753   -14499874.679 8 -12893048.397 5
  23488098.818   -16518721.095 6  -7822075.145 2
  20488509.250    -4809183.173 8  -6181107.105 9
  22681142.602   -13499933.234 6  -4595180.907 4
  24551012.558    -4467523.498 5  -3285734.297 1
  23108595.202   -17412068.019 6  -8547875.267 3
 94  2  2  2 59 59.9990000  0  8  2 27 13  9  7 26 12  4
  21298917.696     6281435.645 8    923223.380 7
  23134172.925    14797172.223 5  11644145.964 2
  21241163.129   -14568683.496 8 -12946665.634 5
  23470204.595   -16612751.582 6  -7895345.605 2
  20494328.492    -4778614.134 8  -6157287.058 9
  22689067.136   -13458277.226 6  -4562721.695 4
  24533877.050    -4557572.160 5  -3355901.973 1
  23090168.819   -17508857.503 6  -8623295.649 3
 94  2  2  3  0 29.9990000  0  8  2 27 13  9  7 26 12  4
  21304548.728     6311025.344 8    946280.282 7
  23154295.475    14902906.565 5  11726536.342 2
  21228168.864   -14636976.075 8 -12999880.630 5
  23452338.194   -16706628.930 6  -7968496.799 2
  20500222.052    -4747634.545 8  -6133147.151 9
  22697069.856   -13416197.189 6  -4529932.083 4
  24516735.907    -4647640.521 5  -3426085.135 1
  23071781.708   -17605503.075 6  -8698603.886 3
 94  2  2  3  0 59.9990000  0  8  2 27 13  9  7 26 12  4
  21310213.126     6340798.778 8    969480.340 7
  23174465.691    15008899.981 5  11809128.576 2
  21215269.515   -14704750.417 8 -13052691.832 5
  23434502.042   -16800358.934 6  -8041533.176 2
  20506196.675    -4716249.129 8  -6108690.995 9
  22705164.791   -13373700.336 6  -4496817.684 4
  24499587.359    -4737726.986 5  -3496282.374 1
  23053421.458   -17702004.510 6  -8773799.795 3
 94  2  2  3  1 29.9990000  0  8  2 27 13  9  7 26 12  4
  21315913.170     6370743.370 8    992813.799 7
  23194686.303    15115145.577 5  11891917.338 2
  21202473.053   -14772002.160 8 -13105095.756 5
  23416689.693   -16893937.405 6  -8114451.437 2
  20512242.530    -4684466.854 8  -6083925.572 9
  22713325.802   -13330795.101 6  -4463385.026 4
  24482447.594    -4827827.275 5  -3566490.317 1
  23035075.779   -17798361.045 6  -8848882.794 3
 94  2  2  3  1 59.9990000  0  8  2 27 13  9  7 26 12  4
  21321641.635     6400845.683 8   1016270.177 7
  23214948.795    15221633.914 5  11974895.278 2
  21189775.554   -14838734.519 8 -13157094.939 5
  23398917.037   -16987351.595 6  -8187241.628 2
  20518367.440    -4652286.516 8  -6058849.941 9
  22721565.358   -13287500.312 6  -4429648.817 4
  24465302.434    -4917944.788 5  -3636711.667 2
  23016778.636   -17894559.837 6  -8923842.844 3
 94  2  2  3  2 29.9990000  0  8  2 27 13  9  7 26 12  4
  21327400.708     6431110.872 8   1039853.454 7
  23235257.606    15328352.325 5  12058052.480 2
  21177176.056   -14904944.739 8 -13208687.308 5
  23381174.720   -17080589.701 6  -8259894.696 2
  20524569.426    -4619699.469 8  -6033457.431 9
  22729877.793   -13243808.466 6  -4395603.214 3
  24448146.660    -5008076.834 5  -3706944.365 2
  22998501.459   -17990584.023 6  -8998666.840 3
 94  2  2  3  2 59.9990000  0  8  2 27 13  9  7 26 12  4
  21333194.707     6461565.490 8   1063584.329 7
  23255614.533    15435298.245 5  12141386.964 2
  21164676.929   -14970630.160 8 -13259870.727 5
  23363465.409   -17173650.779 6  -8332409.777 3
  20530848.160    -4586706.723 8  -6007748.788 9
  22738275.100   -13199693.612 6  -4361228.009 3
  24430982.433    -5098220.639 5  -3777186.270 2
  22980263.645   -18086427.540 6  -9073350.075 3
 94  2  2  3  3 29.9990000  0  8  2 27 13  9  7 26 12  4
  21339034.094     6492241.565 8   1087487.758 7
  23276001.110    15542469.345 5  12224896.884 2
  21152275.504   -15035789.185 8 -13310643.980 5
  23345798.520   -17266520.900 6  -8404776.109 3
  20537202.261    -4553309.648 8  -5981725.100 9
  22746744.716   -13155148.251 6  -4326517.295 3
  24413844.707    -5188374.767 5  -3847436.176 2
  22962059.677   -18182084.512 6  -9147887.956 3
 94  2  2  3  3 59.9990000  0  8  2 27 13  9  7 26 12  4
  21344912.245     6523132.782 8   1111558.858 7
  23296437.872    15649859.345 5  12308577.406 2
  21139977.688   -15100422.025 8 -13361007.208 6
  23328157.593   -17359200.751 6  -8476994.170 3
  20543633.978    -4519516.527 8  -5955392.764 9
  22755309.487   -13110161.431 6  -4291462.636 3
  24396669.897    -5278539.432 5  -3917694.323 2
  22943893.333   -18277555.120 6  -9222280.602 3
 94  2  2  3  4 29.9990000  0  8  2 27 13  9  7 26 12  4
  21350828.109     6554223.755 8   1135785.589 7
  23316911.118    15757461.273 5  12392423.056 2
  21127776.705   -15164528.133 8 -13410960.008 6
  23310553.480   -17451711.181 6  -8549080.192 3
  20550132.729    -4485341.787 8  -5928763.109 9
  22763961.947   -13064716.981 6  -4256051.411 3
  24379521.888    -5368714.126 5  -3987960.282 2
  22925757.179   -18372852.786 6  -9296538.542 3
 94  2  2  3  4 59.9990000  0  8  2 27 13  9  7 26 12  4
  21356779.289     6585509.420 8   1160164.028 7
  23337437.039    15865285.405 5  12476441.837 2
  21115680.229   -15228103.353 8 -13460499.117 6
  23292981.085   -17544054.357 6  -8621035.887 3
  20556709.006    -4450800.071 8  -5901847.476 9
  22772690.165   -13018823.910 6  -4220290.590 3
  24362370.222    -5458894.506 5  -4058230.604 2
  22907651.423   -18467983.806 6  -9370666.590 3
 94  2  2  3  5 29.9990000  0  8  2 27 13  9  7 26 12  4
  21362765.245     6616972.191 8   1184680.477 7
  23357994.137    15973335.150 5  12560636.424 2
  21103683.014   -15291143.580 8 -13509621.368 6
  23275438.279   -17636221.433 6  -8692854.372 3
  20563351.058    -4415893.330 8  -5874647.410 9
  22781496.748   -12972502.030 6  -4184195.604 4
  24345214.958    -5549076.415 5  -4128502.181 2
  22889587.578   -18562941.661 6  -9444659.697 4
 94  2  2  3  5 59.9990000  0  8  2 27 13  9  7 26 12  4
  21368785.618     6648589.049 8   1209316.988 7
  23378596.444    16081606.693 5  12645003.868 2
  21091787.819   -15353653.750 8 -13558330.564 6
  23257931.179   -17728223.885 6  -8764544.558 3
  20570063.741    -4380622.364 8  -5847163.532 9
  22790403.822   -12925759.385 6  -4147772.780 4
  24328042.427    -5639264.646 5  -4198778.669 2
  22871553.353   -18657730.421 6  -9518521.062 4
 94  2  2  3  6 29.9990000  0  8  2 27 13  9  7 26 12  4
  21374832.072     6680376.621 8   1234086.522 7
  23399229.301    16190098.605 5  12729542.957 2
  21079996.172   -15415632.709 8 -13606625.840 6
  23240460.084   -17820061.390 6  -8836106.290 3
  20576845.047    -4344984.380 8  -5819393.670 9
  22799372.353   -12878615.830 6  -4111037.543 4
  24310882.516    -5729457.843 6  -4269059.044 2
  22853547.308   -18752343.385 6  -9592245.438 4
 94  2  2  3  6 59.9990000  0  8  2 27 13  9  7 26 12  4
  21380918.638     6712365.815 8   1259013.188 7
  23419927.242    16298808.380 5  12814251.892 2
  21068301.209   -15477077.310 8 -13654504.735 6
  23223011.744   -17911720.496 6  -8907528.942 3
  20583698.692    -4308976.295 8  -5791335.402 9
  22808420.089   -12831087.913 6  -4074002.817 4
  24293706.987    -5819652.671 5  -4339340.650 2
  22835580.477   -18846766.677 6  -9665822.009 4
 94  2  2  3  7 29.9990000  0  8  2 27 13  9  7 26 12  4
  21387047.505     6744568.268 8   1284106.008 7
  23440657.770    16407730.735 5  12899126.443 2
  21056710.992   -15537987.114 8 -13701966.895 6
  23205610.680   -18003189.985 6  -8978803.809 3
  20590621.050    -4272588.616 8  -5762981.359 9
  22817536.688   -12783175.550 6  -4036668.531 4
  24276551.243    -5909848.671 6  -4409623.243 2
  22817649.590   -18940984.039 6  -9739238.097 4
 94  2  2  3  7 59.9990000  0  8  2 27 13  9  7 26 12  4
  21393219.272     6777004.492 8   1309380.995 7
  23461417.439    16516865.936 5  12984166.836 2
  21045222.676   -15598360.329 8 -13749010.955 6
  23188239.206   -18094473.683 6  -9049933.984 3
  20597618.356    -4235821.009 8  -5734331.269 9
  22826725.777   -12734885.791 6  -3999040.156 4
  24259379.011    -6000043.486 6  -4479904.885 2
  22799762.773   -19034990.438 6  -9812489.821 4
 94  2  2  3  8 29.9990000  0  8  2 27 13  9  7 26 12  4
  21399441.315     6809687.484 8   1334848.252 7
  23482232.299    16626215.445 5  13069374.208 2
  21033835.059   -15658196.538 7 -13795636.554 6
  23170905.746   -18185561.783 6  -9120911.681 3
  20604684.824    -4198682.407 8  -5705392.104 9
  22835983.667   -12686235.047 6  -3961130.465 4
  24242211.456    -6090236.592 5  -4550185.160 2
  22781911.601   -19128783.983 6  -9885575.684 4
 94  2  2  3  8 59.9990000  0  8  2 27 13  9  7 26 12  4
  21405703.350     6842602.543 8   1360496.359 7
  23503088.650    16735786.272 5  13154754.084 2
  21022554.918   -15717496.341 8 -13841844.179 6
  23153612.578   -18276448.381 6  -9191732.376 3
  20611824.621    -4161170.765 8  -5676162.235 9
  22845316.836   -12637214.397 6  -3922932.547 3
  24225061.589    -6180428.150 5  -4620464.245 2
  22764101.830   -19222365.152 6  -9958496.060 4
 94  2  2  3  9 29.9990000  0  8  2 27 13  9  7 26 12  4
  21412007.805     6875734.121 8   1386313.174 7
  23523971.923    16845580.449 5  13240307.959 2
  21011369.482   -15776258.454 8 -13887632.826 6
  23136355.534   -18367127.339 6  -9262391.299 3
  20619034.779    -4123276.456 8  -5646634.203 9
  22854711.552   -12587820.226 6  -3884443.589 3
  24207889.927    -6270616.554 5  -4690740.869 1
  22746332.412   -19315736.363 6 -10031252.821 4
 94  2  2  3  9 59.9990000  0  8  2 27 13  9  7 26 12  4
  21418351.834     6909069.185 8   1412288.555 7
  23544901.544    16955592.674 5  13326031.726 2
  21000288.733   -15834479.686 8 -13933000.016 6
  23119136.535   -18457605.859 6  -9332894.006 3
  20626316.828    -4085007.763 8  -5616814.427 9
  22864181.007   -12538039.955 6  -3845653.775 3
  24190727.198    -6360798.251 5  -4761012.278 2
  22728597.979   -19408905.177 6 -10103851.878 4
 94  2  2  3 10 29.9990000  0  8  2 27 13  9  7 26 12  4
  21424733.935     6942593.508 8   1438411.390 7
  23565887.975    17065813.692 5  13411918.216 2
  20989316.838   -15892158.368 8 -13977944.426 6
  23101960.286   -18547872.266 6  -9403231.423 3
  20633669.868    -4046364.968 8  -5586703.159 9
  22873736.112   -12487852.185 6  -3806546.433 3
  24173569.386    -6450971.009 5  -4831276.853 2
  22710912.982   -19501875.216 6 -10176296.048 4
 94  2  2  3 10 59.9990000  0  8  2 27 13  9  7 26 12  4
  21431144.218     6976296.027 8   1464673.100 7
  23586897.341    17176230.328 5  13497957.146 2
  20978445.015   -15949294.487 8 -14022466.060 6
  23084822.740   -18637926.025 6  -9473403.165 3
  20641094.977    -4007345.311 8  -5556298.222 9
  22883364.846   -12437246.408 6  -3767113.385 3
  24156409.566    -6541134.463 6  -4901533.925 2
  22693260.782   -19594639.954 6 -10248580.239 4
 94  2  2  3 11 29.9990000  0  8  2 27 13  9  7 26 12  4
  21437594.012     7010184.765 8   1491079.920 7
  23607945.859    17286832.166 5  13584140.372 2
  20967672.542   -16005886.092 8 -14066563.395 6
  23067726.685   -18727771.032 6  -9543412.250 3
  20648591.947    -3967947.596 8  -5525598.702 9
  22893071.436   -12386227.228 6  -3727358.167 3
  24139265.514    -6631286.091 6  -4971781.942 2
  22675651.603   -19687191.734 6 -10320698.499 4
 94  2  2  3 11 59.9990000  0  8  2 27 13  9  7 26 12  4
  21444078.643     7044263.656 8   1517634.891 7
  23629025.946    17397616.568 5  13670465.889 2
  20957009.164   -16061933.285 8 -14110236.513 6
  23050668.075   -18817423.771 6  -9613271.498 3
  20656160.777    -3928190.139 8  -5494618.850 9
  22902859.270   -12334798.851 6  -3687284.137 3
  24122106.233    -6721425.672 6  -5042020.536 2
  22658077.200   -19779524.865 6 -10392646.384 4
 94  2  2  3 12 29.9990000  0  8  2 27 13  9  7 26 12  4
  21450600.418     7078548.735 8   1544350.538 7
  23650137.331    17508584.288 5  13756934.194 2
  20946445.947   -16117434.010 8 -14153483.816 6
  23033644.300   -18906885.529 6  -9682981.962 3
  20663791.425    -3888071.200 8  -5463357.340 9
  22912719.924   -12282989.144 6  -3646912.962 3
  24104949.621    -6811550.304 6  -5112247.491 2
  22640553.491   -19871631.805 6 -10464417.991 4
 94  2  2  3 12 59.9990000  0  8  2 27 13  9  7 26 12  4
  21457166.593     7113046.043 8   1571231.567 7
  23671287.509    17619734.830 5  13843545.023 2
  20935989.516   -16172387.922 8 -14196305.027 6
  23016653.382   -18996171.524 6  -9752555.432 3
  20671496.601    -3847595.550 8  -5431817.857 9
  22922639.307   -12230829.592 6  -3606269.171 3
  24087806.439    -6901659.175 6  -5182462.177 2
  22623068.516   -19963505.353 6 -10536007.753 4
 94  2  2  3 13 29.9990000  0  8  2 27 13  9  7 26 12  4
  21463772.579     7147759.027 8   1598280.651 7
  23692483.465    17731066.282 5  13930296.743 2
  20925635.194   -16226794.216 8 -14238699.526 6
  22999697.361   -19085286.161 6  -9821995.385 3
  20679263.384    -3806777.758 8  -5400011.785 9
  22932636.936   -12178334.604 6  -3565363.976 3
  24070663.706    -6991750.755 6  -5252663.348 2
  22605627.670   -20055157.666 6 -10607425.124 4
 94  2  2  3 13 59.9990000  0  8  2 27 13  9  7 26 12  4
  21470421.496     7182685.016 8   1625495.707 7
  23713700.737    17842578.459 5  14017189.322 2
  20915388.708   -16280651.568 8 -14280666.280 6
  22982774.676   -19174207.349 6  -9891284.603 3
  20687092.524    -3765625.720 8  -5367945.251 9
  22942687.238   -12125507.683 6  -3524200.121 3
  24053522.683    -7081823.089 6  -5322849.565 2
  22588227.026   -20146594.152 6 -10678674.312 4
 94  2  2  3 14 29.9990000  0  8  2 27 13  9  7 26 12  4
  21477100.693     7217814.356 8   1652869.208 7
  23734952.125    17954265.925 5  14104218.529 2
  20905243.761   -16333959.238 8 -14322204.704 6
  22965895.611   -19262905.702 6  -9960400.184 3
  20694991.066    -3724127.850 8  -5335609.253 9
  22952800.527   -12072350.766 6  -3482779.200 3
  24036381.959    -7171874.868 6  -5393019.764 2
  22570870.931   -20237817.965 6 -10749757.794 4
 94  2  2  3 14 59.9990000  0  8  2 27 13  9  7 26 12  4
  21483824.917     7253135.701 8   1680392.324 7
  23756246.803    18066133.124 5  14191387.741 2
  20895203.232   -16386714.552 8 -14363312.730 6
  22949062.385   -19351363.702 6 -10029328.465 3
  20702954.723    -3682275.241 8  -5302996.806 9
  22962987.115   -12018838.672 6  -3441081.460 3
  24019261.741    -7261902.310 6  -5463170.988 2
  22553550.632   -20328817.258 6 -10820666.302 4
 94  2  2  3 15 29.9990000  0  8  2 27 13  9  7 26 12  4
  21490583.948     7288645.020 7   1708061.937 7
  23777569.121    18178186.716 5  14278702.157 2
  20885270.838   -16438916.735 8 -14403989.724 6
  22932275.536   -19439567.308 6 -10098058.526 3
  20710987.572    -3640067.179 8  -5270107.416 9
  22973238.758   -11964952.173 6  -3399091.982 3
  24002132.919    -7351904.254 6  -5533302.305 2
  22536284.385   -20419582.663 6 -10891392.572 4
 94  2  2  3 15 59.9990000  0  8  2 27 13  9  7 26 12  4
  21497374.517     7324336.562 7   1735873.532 7
  23798914.374    18290423.385 5  14366159.346 2
  20875441.902   -16490566.170 8 -14444236.028 6
  22915538.033   -19527516.080 6 -10166590.007 3
  20719086.705    -3597500.840 8  -5236938.828 9
  22983567.507   -11910686.114 6  -3356806.730 3
  23985008.174    -7441880.157 6  -5603413.376 2
  22519054.593   -20510094.058 6 -10961920.905 4
 94  2  2  3 16 29.9990000  0  8  2 27 13  9  7 26 12  4
  21504201.421     7360212.545 7   1763828.845 7
  23820317.937    18402836.201 5  14453753.729 2
  20865715.556   -16541661.791 8 -14484050.781 6
  22898846.399   -19615231.076 6 -10234939.345 3
  20727248.734    -3554594.564 8  -5203505.364 9
  22993963.920   -11856036.375 6  -3314222.524 3
  23967888.706    -7531828.051 6  -5673502.607 2
  22501886.498   -20600341.918 6 -11032243.919 4
 94  2  2  3 16 59.9990000  0  8  2 27 13  9  7 26 12  4
  21511065.649     7396283.774 7   1791936.277 7
  23841737.419    18515423.231 5  14541483.833 2
  20856100.072   -16592202.308 8 -14523432.977 6
  22882198.683   -19702725.492 6 -10303116.790 3
  20735476.508    -3511375.885 8  -5169828.460 9
  23004440.347   -11800995.995 6  -3271333.905 3
  23950778.771    -7621745.891 6  -5743568.389 2
  22484757.976   -20690323.562 6 -11102359.458 4
 94  2  2  3 17 29.9990000  0  8  2 27 13  9  7 26 12  4
  21517965.612     7432555.627 7   1820200.058 7
  23863192.935    18628178.858 5  14629345.354 2
  20846588.017   -16642187.761 8 -14562382.673 6
  22865591.560   -19789996.290 6 -10371120.005 4
  20743757.016    -3467861.047 8  -5135920.797 9
  23014987.586   -11745579.638 6  -3228152.344 3
  23933675.971    -7711632.717 6  -5813610.105 2
  22467686.684   -20780055.106 6 -11172280.114 4
 94  2  2  3 17 59.9990000  0  9  2 27 13  9  7 26 12 24  4
  21524909.855     7469031.762 7   1848623.022 7
  23884687.125    18741096.771 5  14717333.333 2
  20837183.528   -16691616.251 8 -14600898.364 6
  22849029.046   -19877039.049 6 -10438945.508 4
  20752091.636    -3424052.635 8  -5101784.357 9
  23025597.151   -11689794.797 6  -3184683.680 3
  23916570.293    -7801485.661 6  -5883625.343 2
  24645401.464    -4778258.17315  -3724167.507 2
  22450658.952   -20869542.751 6 -11242010.740 4
 94  2  2  3 18 29.9990000  0  9  2 27 13  9  7 26 12 24  4
  21531892.081     7505717.233 7   1877209.097 7
  23906194.776    18854175.859 5  14805446.875 2
  20827882.797   -16740488.664 8 -14638980.749 6
  22832509.912   -19963848.458 6 -10506589.204 4
  20760486.514    -3379942.376 8  -5067412.726 9
  23036280.075   -11633657.212 6  -3140940.122 3
  23899486.410    -7891304.691 6  -5953614.195 2
  24625276.366    -4884093.732 5  -3806636.725 2
  22433671.033   -20958792.975 6 -11311556.347 4
 94  2  2  3 18 59.9990000  0  9  2 27 13  9  7 26 12 24  4
  21538913.490     7542618.007 7   1905962.941 7
  23927746.076    18967427.525 5  14893694.902 2
  20818688.552   -16788803.135 8 -14676628.365 6
  22816035.837   -20050405.036 6 -10574035.833 4
  20768945.968    -3335494.993 8  -5032778.399 9
  23047027.725   -11577189.065 6  -3096938.976 3
  23882398.659    -7981086.935 6  -6023574.341 2
  24605121.559    -4989958.027 5  -3889128.380 2
  22416736.896   -21047792.630 6 -11380906.730 4
 94  2  2  3 19 29.9990000  0  9  2 27 13  9  7 26 12 24  4
  21545975.761     7579740.900 7   1934889.862 7
  23949335.420    19080842.458 5  14982070.117 2
  20809601.063   -16836559.899 8 -14713841.414 6
  22799614.315   -20136708.462 6 -10641285.241 4
  20777471.676    -3290677.800 8  -4997855.906 9
  23057831.645   -11520412.295 6  -3052697.360 3
  23865326.139    -8070831.357 6  -6093505.062 2
  24584982.761    -5095849.060 5  -3971640.793 2
  22399847.308   -21136525.172 6 -11450048.934 4
 94  2  2  3 19 59.9990000  0  9  2 27 13  9  7 26 12 24  4
  21553085.429     7617084.496 7   1963988.760 6
  23970931.240    19194408.746 5  15070563.319 2
  20800619.821   -16883759.913 8 -14750620.628 6
  22783238.452   -20222765.554 6 -10708342.710 4
  20786071.552    -3245486.590 8  -4962641.970 9
  23068698.732   -11463330.613 5  -3008218.134 3
  23848250.889    -8160538.141 6  -6163406.402 2
  24564813.893    -5201766.253 5  -4054173.646 2
  22383019.718   -21224978.002 7 -11518973.206 4
 94  2  2  3 20 29.9990000  0  9  2 27 13  9  7 26 12 24  4
  21560235.060     7654657.460 7   1993266.376 6
  23992581.172    19308124.986 5  15159173.329 2
  20791745.664   -16930400.325 8 -14786963.784 6
  22766907.018   -20308576.446 6 -10775208.308 4
  20794742.419    -3199926.450 8  -4927140.566 9
  23079610.488   -11405945.293 5  -2963502.309 3
  23831187.392    -8250203.029 6  -6233275.095 2
  24544651.921    -5307706.942 5  -4136724.777 2
  22366244.081   -21313137.236 6 -11587668.711 5
 94  2  2  3 20 59.9990000  0  9  2 27 13  9  7 26 12 24  4
  21567425.672     7692464.079 7   2022726.082 6
  24014254.368    19421995.363 5  15247903.473 2
  20782974.606   -16976482.339 8 -14822871.838 6
  22750624.900   -20394148.470 6 -10841887.778 4
  20803479.151    -3154010.824 8  -4891362.142 9
  23090591.736   -11348249.080 5  -2918544.241 3
  23814131.420    -8339826.263 6  -6303111.393 2
  24524504.429    -5413671.406 5  -4219294.475 2
  22349525.166   -21401001.660 6 -11656134.467 5
 94  2  2  3 21 29.9990000  0  9  2 27 13  9  7 26 12 24  4
  21574663.921     7730495.399 7   2052360.867 6
  24035950.168    19536017.304 5  15336751.725 2
  20774311.473   -17022002.919 8 -14858342.415 6
  22734391.079   -20479484.099 6 -10908383.078 4
  20812280.938    -3107754.319 8  -4855318.121 9
  23101635.910   -11290223.908 5  -2873329.807 3
  23797084.052    -8429403.607 6  -6372911.869 2
  24504335.621    -5519654.214 5  -4301878.431 2
  22332860.392   -21488574.905 6 -11724373.344 5
 94  2  2  3 21 59.9990000  0  9  2 27 13  9  7 26 12 24  4
  21581944.111     7768741.073 7   2082162.682 6
  24057679.455    19650208.566 4  15425731.939 2
  20765758.125   -17066961.738 8 -14893375.234 6
  22718190.234   -20564576.804 6 -10974689.068 4
  20821143.342    -3061180.523 8  -4819026.846 9
  23112738.154   -11231871.554 6  -2827860.464 3
  23780057.399    -8518933.398 6  -6442675.285 2
  24484141.931    -5625657.198 5  -4384478.117 2
  22316250.032   -21575863.056 6 -11792390.075 5
 94  2  2  3 22 29.9990000  0  9  2 27 13  9  7 26 12 24  4
  21589261.026     7807205.694 7   2112135.113 6
  24079434.105    19764583.476 4  15514855.238 2
  20757308.085   -17111361.010 8 -14927972.056 6
  22702051.567   -20649424.799 6 -11040804.361 4
  20830066.245    -3014295.601 8  -4782493.134 9
  23123904.194   -11173207.058 6  -2782147.852 3
  23763023.071    -8608416.720 6  -6512402.531 2
  24463978.280    -5731684.473 5  -4467096.726 2
  22299691.775   -21662871.666 6 -11860188.965 5
 94  2  2  3 22 59.9990000  0  9  2 27 13  9  7 26 12 24  4
  21596622.369     7845883.429 7   2142273.605 6
  24101232.494    19879136.108 4  15604116.962 2
  20748964.531   -17155198.282 8 -14962130.952 6
  22685945.097   -20734020.009 6 -11106722.692 4
  20839047.937    -2967092.927 8  -4745711.817 9
  23135125.516   -11114232.526 6  -2736193.705 3
  23746004.963    -8697849.828 6  -6582090.637 2
  24443796.162    -5837737.463 5  -4549735.371 2
  22283191.528   -21749606.514 7 -11927774.547 5
 94  2  2  3 23 29.9990000  0  9  2 27 13  9  7 26 12 24  4
  21604020.798     7884763.061 7   2172569.411 6
  24123068.837    19993844.592 5  15693500.182 2
  20740730.341   -17198473.479 8 -14995851.882 6
  22669904.762   -20818344.953 6 -11172430.431 4
  20848091.027    -2919580.990 8  -4708689.547 9
  23146406.226   -11054952.514 6  -2690001.539 3
  23728997.377    -8787231.159 6  -6651738.383 2
  24423613.534    -5943820.722 5  -4632397.661 2
  22266732.082   -21836073.743 7 -11995151.602 5
 94  2  2  3 23 59.9990000  0  9  2 27 13  9  7 26 12 24  4
  21611459.548     7923860.237 7   2203034.735 6
  24144931.082    20108700.581 4  15782998.316 2
  20732602.458   -17241184.203 8 -15029132.962 6
  22653908.196   -20902393.521 6 -11237922.776 4
  20857186.940    -2871778.736 8  -4671441.029 9
  23157743.088   -10995366.975 6  -2643571.221 3
  23711998.335    -8876557.113 6  -6721342.964 2
  24403414.058    -6049927.161 4  -4715077.918 2
  22250329.627   -21922271.304 7 -12062318.509 5
 94  2  2  3 24 29.9990000  0  9  2 27 13  9  7 26 12 24  4
  21618940.689     7963173.225 7   2233668.232 6
  24166809.576    20223674.337 5  15872588.257 2
  20724582.860   -17283331.533 8 -15061975.003 7
  22637973.237   -20986158.632 6 -11303194.298 4
  20866336.486    -2823680.780 8  -4633962.095 9
  23169143.086   -10935464.271 6  -2596893.797 2
  23695009.696    -8965827.253 6  -6790904.116 2
  24383217.460    -6156050.917 5  -4797771.682 2
  22233977.867   -22008196.245 7 -12129272.976 5
 94  2  2  3 24 59.9990000  0  9  2 27 13  9  7 26 12 24  4
  21626461.312     8002693.360 7   2264463.155 6
  24188691.277    20338745.865 4  15962254.365 2
  20716670.318   -17324913.119 8 -15094376.227 7
  22622082.019   -21069635.094 7 -11368240.862 4
  20875549.228    -2775281.865 8  -4596248.652 9
  23180604.961   -10875223.412 6  -2549952.856 2
  23678034.278    -9055037.981 6  -6860418.896 2
  24363022.091    -6262183.220 5  -4880472.176 2
  22217682.768   -22093831.558 7 -12196001.788 5
 94  2  2  3 25 29.9990000  0  9  2 27 13  9  7 26 12 24  4
  21634021.449     8042420.156 7   2295419.095 6
  24210616.239    20453926.568 4  16052005.544 2
  20708865.611   -17365928.155 8 -15126335.991 7
  22606253.516   -21152832.828 7 -11433070.257 4
  20884817.072    -2726586.848 8  -4558304.492 9
  23192135.099   -10814645.184 6  -2502749.038 3
  23661068.153    -9144187.005 6  -6929885.657 2
  24342839.613    -6368303.307 5  -4963163.110 2
  22201448.467   -22179156.448 7 -12262488.692 5
 94  2  2  3 25 59.9990000  0  9  2 27 13  9  7 26 12 24  4
  21641616.691     8082353.381 7   2326535.888 6
  24232557.539    20569222.674 4  16141846.616 2
  20701167.660   -17406378.567 8 -15157855.764 7
  22590470.283   -21235764.927 7 -11497692.630 4
  20894141.697    -2677585.280 8  -4520121.440 9
  23203725.735   -10753740.635 5  -2455290.970 3
  23644116.898    -9233274.681 6  -6999304.621 2
  24322647.601    -6474395.895 5  -5045832.610 2
  22185272.625   -22264149.994 7 -12328717.419 5
 94  2  2  3 26 29.9990000  0  9  2 27 13  9  7 26 12 24  4
  21649255.073     8122476.254 7   2357800.470 6
  24254529.838    20684638.817 4  16231781.271 2
  20693576.645   -17446266.098 8 -15188936.953 7
  22574741.492   -21318432.424 7 -11562108.882 4
  20903526.220    -2628266.670 8  -4481691.355 9
  23215372.342   -10692516.826 5  -2407584.141 3
  23627172.959    -9322301.060 6  -7068675.788 2
  24302457.928    -6580466.182 5  -5128484.729 2
  22169163.158   -22348810.910 7 -12394686.923 5
 94  2  2  3 26 59.9990000  0  9  2 27 13  9  7 26 12 24  4
  21656930.149     8162804.272 7   2389224.896 6
  24276513.739    20800189.418 4  16321820.654 2
  20686092.866   -17485589.771 8 -15219578.751 7
  22559056.890   -21400853.841 6 -11626333.339 4
  20912969.323    -2578644.192 8  -4443024.478 9
  23227082.385   -10630991.085 6  -2359642.035 3
  23610248.595    -9411263.775 6  -7137997.338 2
  24282281.536    -6686518.291 5  -5211122.694 2
  22153114.368   -22433135.553 7 -12460394.422 5
 94  2  2  3 27 29.9990000  0  9  2 27 13  9  7 26 12 24  4
  21664645.908     8203351.913 7   2420820.462 6
  24298521.594    20915879.942 4  16411969.145 2
  20678722.768   -17524345.907 8 -15249778.335 7
  22543418.276   -21483020.830 6 -11690359.560 4
  20922465.878    -2528730.275 8  -4404130.521 9
  23238841.415   -10569182.257 6  -2311479.328 3
  23593327.829    -9500157.448 6  -7207265.140 2
  24262102.086    -6792553.482 5  -5293747.458 2
  22137130.034   -22517131.942 7 -12525846.137 5
 94  2  2  3 27 59.9990000  0  9  2 27 13  9  7 26 12 24  4
  21672404.147     8244126.177 7   2452592.607 6
  24320563.684    21031697.753 4  16502216.772 2
  20671454.000   -17562535.909 8 -15279536.758 7
  22527834.615   -21564907.430 7 -11754167.282 4
  20932020.024    -2478528.743 8  -4365012.430 9
  23250658.694   -10507094.704 6  -2263099.421 3
  23576422.652    -9588981.854 6  -7276478.926 2
  24241919.668    -6898591.873 5  -5376374.752 2
  22121204.579   -22600828.541 7 -12591064.245 5
 94  2  2  3 28 29.9990000  0  9  2 27 13  9  7 26 12 24  4
  21680208.914     8285142.498 7   2484553.365 6
  24342635.004    21147642.733 5  16592563.494 2
  20664291.898   -17600158.233 8 -15308852.842 7
  22512310.792   -21646509.718 7 -11817753.462 4
  20941624.655    -2428053.851 8  -4325681.346 9
  23262528.796   -10444728.753 6  -2214502.579 3
  23559538.371    -9677733.846 6  -7345636.292 2
  24221747.383    -7004644.988 5  -5459013.509 2
  22105331.228   -22684241.820 7 -12656061.577 5
 94  2  2  3 28 59.9990000  0  9  2 27 13  9  7 26 12 24  4
  21688060.478     8326410.413 7   2516710.174 6
  24364713.999    21263703.755 4  16683000.582 2
  20657239.760   -17637216.918 8 -15337729.726 7
  22496832.447   -21727828.598 7 -11881118.815 4
  20951283.998    -2377303.204 8  -4286135.385 9
  23274445.487   -10382091.553 6  -2165694.374 3
  23542660.805    -9766415.820 6  -7414739.143 2
  24201561.518    -7110711.728 5  -5541662.909 2
  22089512.589   -22767372.821 7 -12720838.973 5
 94  2  2  3 29 29.9990000  0  9  2 27 13  9  7 26 12 24  4
  21695955.962     8367900.981 7   2549040.469 6
  24386824.832    21379884.302 4  16773530.886 2
  20650295.728   -17673709.152 8 -15366165.234 7
  22481418.228   -21808837.157 7 -11944242.363 4
  20960995.085    -2326262.246 8  -4246363.224 9
  23286419.227   -10319173.709 6  -2116667.529 3
  23525802.306    -9855023.009 6  -7483783.703 2
  24181374.003    -7216782.034 5  -5624315.086 2
  22073748.452   -22850221.668 7 -12785396.508 5
 94  2  2  3 29 59.9990000  0  9  2 27 13  9  7 26 12 24  4
  21703893.117     8409601.196 7   2581534.158 6
  24408953.653    21496184.836 4  16864154.695 2
  20643458.991   -17709634.674 8 -15394159.113 7
  22466061.599   -21889544.027 7 -12007130.809 4
  20970764.542    -2274919.417 8  -4206355.811 9
  23298448.700   -10255970.247 5  -2067418.062 3
  23508954.599    -9943553.390 6  -7552768.355 2
  24161186.669    -7322849.984 5  -5706965.419 2
  22058035.969   -22932767.921 7 -12849718.225 5
 94  2  2  3 30 29.9990000  0  9  2 27 13  9  7 26 12 24  4
  21711866.398     8451499.521 7   2614182.190 6
  24431110.744    21612602.999 5  16954870.118 2
  20636731.348   -17744995.607 8 -15421713.078 7
  22450757.674   -21969971.836 7 -12069801.801 4
  20980590.629    -2223279.402 8  -4166116.840 9
  23310525.479   -10192483.854 5  -2017948.178 3
  23492121.283   -10032007.472 6  -7621693.600 2
  24141011.775    -7428906.831 5  -5789607.082 2
  22042391.480   -23014988.948 7 -12913786.538 5
 94  2  2  3 30 59.9990000  0  9  2 27 13  9  7 26 12 24  4
  21719872.595     8493574.704 7   2646968.046 6
  24453290.199    21729136.334 4  17045675.275 2
  20630111.211   -17779789.644 8 -15448825.302 7
  22435506.242   -22050107.701 7 -12132245.348 4
  20990475.986    -2171333.258 8  -4125639.315 9
  23322666.924   -10128713.071 5  -1968256.658 3
  23475300.228   -10120380.981 6  -7690556.057 2
  24120827.469    -7534946.134 5  -5872235.160 2
  22026812.255   -23096861.654 7 -12977583.447 5
 94  2  2  3 31 29.9990000  0  9  2 27 13  9  7 26 12 24  4
  21727914.528     8535823.983 7   2679889.557 6
  24475501.523    21845786.397 5  17136571.398 2
  20623595.642   -17814016.530 8 -15475495.588 7
  22420313.030   -22129945.260 7 -12194456.407 4
  21000417.553    -2119095.169 8  -4084934.311 9
  23334848.061   -10064665.897 5  -1918349.785 3
  23458505.614   -10208671.659 6  -7759353.972 2
  24100653.954    -7640954.252 5  -5954838.839 2
  22011301.953   -23178380.314 7 -13041104.443 5
 94  2  2  3 31 59.9990000  0  9  2 27 13  9  7 26 12 24  4
  21735992.735     8578282.790 7   2712974.334 6
  24497689.702    21962552.972 4  17227558.315 2
  20617193.184   -17847675.530 8 -15501723.368 7
  22405177.498   -22209489.789 7 -12256439.156 4
  21010413.084    -2066577.877 8  -4044011.753 9
  23347094.463   -10000334.285 5  -1868221.305 2
  23441721.524   -10296877.105 6  -7828085.485 2
  24080493.241    -7746922.572 5  -6037411.542 2
  21995857.125   -23259546.357 7 -13104350.697 5
 94  2  2  3 32 29.9990000  0  9  2 27 13  9  7 26 12 24  4
  21744114.263     8620958.832 7   2746228.391 6
  24519946.684    22079432.955 4  17318633.582 2
  20610893.915   -17880770.062 8 -15527511.297 7
  22390098.028   -22288725.152 7 -12318180.970 4
  21020458.949    -2013783.897 8  -4002873.580 9
  23359386.433    -9935725.146 5  -1817876.513 2
  23424951.134   -10384998.700 6  -7896751.650 2
  24060328.931    -7852841.717 5  -6119945.981 2
  21980473.245   -23340373.209 7 -13167332.623 5
 94  2  2  3 32 59.9990000  0  9  2 27 13  9  7 26 12 24  4
  21752276.592     8663862.925 7   2779660.142 6
  24542211.281    22196426.973 4  17409797.777 2
  20604705.839   -17913298.689 8 -15552858.279 7
  22375081.124   -22367635.606 7 -12379669.633 4
  21030557.248    -1960713.139 8  -3961519.743 9
  23371734.255    -9870843.255 5  -1767319.191 2
  23408199.451   -10473032.986 6  -7965349.754 2
  24040188.214    -7958701.655 5  -6202434.230 2
  21965157.928   -23420856.231 7 -13230046.655 5
 94  2  2  3 33 29.9990000  0  9  2 27 13  9  7 26 12 24  4
  21760492.524     8707023.433 7   2813291.704 6
  24564495.334    22313539.834 4  17501054.510 2
  20598623.889   -17945258.269 8 -15577761.828 7
  22360125.917   -22446229.898 7 -12440911.918 5
  21040710.529    -1907362.388 8  -3919947.726 9
  23384138.917    -9805681.212 5  -1716543.565 2
  23391461.888   -10560974.839 6  -8033875.873 2
  24020062.966    -8064489.589 5  -6284866.394 2
  21949904.667   -23501006.182 7 -13292501.141 5
 94  2  2  3 33 59.9990000  0  9  2 27 13  9  7 26 12 24  4
  21768752.766     8750433.497 7   2847117.720 6
  24586781.216    22430752.782 4  17592389.257 2
  20592649.625   -17976652.141 8 -15602224.584 7
  22345228.660   -22524509.615 7 -12501909.086 5
  21050916.214    -1853723.210 8  -3878150.949 9
  23396590.078    -9740252.147 5  -1665559.899 2
  23374741.353   -10648825.396 6  -8102330.834 2
  23999940.507    -8170217.178 5  -6367251.514 2
  21934715.982   -23580823.402 7 -13354696.350 5
 94  2  2  3 34 29.9990000  0  8  2 13  9  7 26 12 24  4
  21777053.839     8794068.370 7   2881118.915 6
  20586782.717   -18007481.241 8 -15626247.250 7
  22330393.280   -22602476.170 7 -12562662.226 5
  21061181.587    -1799790.988 8  -3836125.852 9
  23409076.044    -9674589.458 5  -1614394.159 2
  23358044.862   -10736583.668 6  -8170713.911 2
  23979837.354    -8275897.315 5  -6449599.649 3
  21919593.311   -23660283.995 7 -13416613.676 5
 94  2  2  3 34 59.9990000  0  8  2 13  9  7 26 12 24  4
  21785400.751     8837926.838 7   2915294.337 6
  20581021.905   -18037745.450 8 -15649829.735 7
  22315612.283   -22680145.838 7 -12623184.043 5
  21071495.167    -1745571.731 8  -3793877.076 9
  23421620.709    -9608695.591 5  -1563048.312 2
  23341365.039   -10824247.328 6  -8239023.204 2
  23959724.188    -8381544.835 5  -6531922.385 3
  21904546.008   -23739383.791 7 -13478249.852 5
 94  2  2  3 35 29.9990000  0  8  2 13  9  7 26 12 24  4
  21793788.134     8882000.331 7   2949637.303 6
  20575371.027   -18067442.071 8 -15672969.944 7
  22300890.944   -22757507.672 7 -12683465.965 5
  21081868.016    -1691066.423 8  -3751405.396 9
  23434200.421    -9542579.166 5  -1511529.045 2
  23324701.135   -10911811.667 6  -8307255.154 2
  23939627.151    -8487162.837 5  -6614222.107 3
  21889558.934   -23818125.437 7 -13539606.952 5
 94  2  2  3 35 59.9990000  0  8  2 13  9  7 26 12 24  4
  21802213.741     8926266.303 7   2984130.254 6
  20569827.835   -18096571.355 8 -15695668.068 7
  22286231.783   -22834552.503 7 -12743500.888 5
  21092292.999    -1636291.185 8  -3708723.399 9
  23446821.683    -9476255.376 6  -1459848.183 2
  23308059.146   -10999274.590 6  -8375408.069 2
  23919529.334    -8592762.445 5  -6696507.464 3
  21874649.056   -23896486.624 7 -13600667.592 5
 94  2  2  3 36 29.9990000  0  8  2 13  9  7 26 12 24  4
  21810672.416     8970737.254 7   3018782.942 6
  20564391.668   -18125134.070 8 -15717924.736 7
  22271631.051   -22911284.043 7 -12803291.694 5
  21102763.011    -1581261.511 8  -3665843.130 9
  23459485.516    -9409714.778 5  -1407998.361 2
  23291434.336   -11086634.870 6  -8443481.017 2
  23899443.959    -8698342.421 5  -6778777.573 3
  21859808.759   -23974466.933 7 -13661431.456 5
 94  2  2  3 36 59.9990000  0  8  2 13  9  7 26 12 24  4
  21819179.776     9015428.235 7   3053607.064 6
  20559065.225   -18153131.342 8 -15739740.775 7
  22257089.558   -22987692.310 7 -12862830.572 5
  21113284.018    -1525988.539 8  -3622773.276 9
  23472196.746    -9342935.270 5  -1355962.395 2
  23274830.030   -11173891.104 6  -8511472.874 3
  23879357.355    -8803879.928 5  -6861014.555 3
  21845036.756   -24052091.166 7 -13721917.846 5
 94  2  2  3 37 29.9990000  0  8  2 13  9  7 26 12 24  4
  21827724.881     9060341.518 7   3088604.421 6
  20553846.858   -18180560.661 8 -15761114.265 7
  22242615.967   -23063763.692 7 -12922106.955 5
  21123845.526    -1470477.137 8  -3579517.640 9
  23484948.688    -9275918.612 5  -1303741.631 2
  23258245.692   -11261038.585 6  -8579379.954 3
  23859285.980    -8909356.654 5  -6943204.191 3
  21830333.644   -24129356.442 7 -13782124.534 5
 94  2  2  3 37 59.9990000  0  8  2 13  9  7 26 12 24  4
  21836318.162     9105487.314 7   3123782.930 6
  20548732.459   -18207427.067 8 -15782049.114 7
  22228197.989   -23139514.022 7 -12981133.197 5
  21134452.273    -1414733.129 8  -3536080.751 9
  23497746.978    -9208657.052 5  -1251330.037 2
  23241683.657   -11348079.993 6  -8647204.441 3
  23839231.573    -9014764.929 5  -7025340.498 3
  21815703.713   -24206264.411 7 -13842052.781 5
 94  2  2  3 38 29.9990000  0  8  2 13  9  7 26 12 24  4
  21844957.101     9150883.398 7   3159156.511 6
  20543729.102   -18233727.148 8 -15802542.675 7
  22213846.474   -23214926.832 7 -13039896.405 5
  21145106.867    -1358750.310 8  -3492457.772 9
  23510595.573    -9141141.405 5  -1198720.469 2
  23225139.820   -11435009.736 6  -8714941.874 3
  23819191.977    -9120090.221 5  -7107412.081 3
  21801125.615   -24282828.207 7 -13901712.876 5
 94  2  2  3 38 59.9990000  0  8  2 13  9  7 26 12 24  4
  21853637.951     9196514.042 7   3194712.849 6
  20538830.524   -18259462.613 8 -15822596.268 7
  22199561.723   -23289999.337 7 -13098394.461 5
  21155807.090    -1302519.806 8  -3448641.780 9
  23523492.585    -9073381.555 5  -1145920.602 2
  23208619.997   -11521826.974 6  -8782591.642 3
  23799161.853    -9225335.806 5  -7189421.632 3
  21786626.093   -24359042.907 7 -13961100.934 5
 94  2  2  3 39 29.9990000  0  8  2 13  9  7 26 12 24  4
  21862366.079     9242374.270 7   3230448.084 6
  20534040.649   -18284633.562 8 -15842209.977 7
  22185338.490   -23364738.089 7 -13156632.451 5
  21166553.750    -1246028.326 8  -3404622.444 9
  23536428.749    -9005391.204 5  -1092941.097 3
  23192123.107   -11608529.488 7  -8850152.012 3
  23779148.668    -9330524.059 5  -7271386.497 3
  21772196.032   -24434889.503 7 -14020202.157 5
 94  2  2  3 39 59.9990000  0  8  2 13  9  7 26 12 24  4
  21871136.867     9288464.147 7   3266362.271 6
  20529359.300   -18309238.729 8 -15861382.812 7
  22171181.480   -23439138.337 7 -13214606.648 5
  21177359.409    -1189263.692 8  -3360390.255 9
  23549401.968    -8937169.228 5  -1039781.160 3
  23175641.867   -11695113.462 6  -8917620.030 3
  23759142.798    -9435662.433 5  -7353312.482 3
  21757835.434   -24510344.433 7 -14078998.194 5
 94  2  2  3 40 29.9990000  0  8  2 13  9  7 26 12 24  4
  21879947.348     9334772.044 7   3302446.326 5
  20524784.108   -18333278.861 8 -15880115.378 7
  22157092.494   -23513191.253 7 -13272310.226 5
  21188211.357    -1132227.492 8  -3315946.466 9
  23562425.073    -8868727.284 5   -986449.771 3
  23159189.047   -11781577.287 7  -8984994.432 3
  23739136.538    -9540748.757 5  -7435197.917 3
  21743552.062   -24585399.925 7 -14137482.974 5
 94  2  2  3 40 59.9990000  0  8  2 13  9  7 26 12 24  4
  21888800.249     9381288.939 7   3338693.204 5
  20520316.181   -18356754.501 8 -15898408.117 7
  22143063.286   -23586902.331 7 -13329747.444 5
  21199118.136    -1074914.837 8  -3271287.297 9
  23575494.435    -8800072.620 5   -932952.679 3
  23142759.731   -11867918.732 6  -9052273.501 3
  23719155.790    -9645773.832 5  -7517035.669 3
  21729347.806   -24660044.563 7 -14195647.644 5
 94  2  2  3 41 29.9990000  0  9  2 13  9  7 26  5 12 24  4
  21897688.406     9428018.541 7   3375105.874 5
  20515958.008   -18379665.561 8 -15916260.869 7
  22129106.568   -23660262.651 7 -13386911.348 5
  21210072.073    -1017344.654 8  -3226427.410 9
  23588599.412    -8731206.227 5   -879290.587 3
  24740835.026   -22397005.19714   -678678.192 1
  23126353.319   -11954135.380 7  -9119455.281 3
  23699186.315    -9750709.452 5  -7598803.659 3
  21715219.846   -24734278.885 7 -14253492.570 5
 94  2  2  3 41 59.9990000  0  9  2 13  9  7 26  5 12 24  4
  21906625.759     9474958.056 7   3411682.112 5
  20511704.822   -18402011.892 8 -15933673.588 7
  22115212.147   -23733260.933 7 -13443793.125 5
  21221072.327     -959545.716 8  -3181389.265 9
  23601746.391    -8662130.179 5   -825465.124 3
  24726128.018   -22474291.216 4   -738901.039 1
  23109970.111   -12040224.450 6  -9186537.650 3
  23679239.234    -9855533.288 5  -7680484.547 3
  21701169.533   -24808107.744 7 -14311021.537 5
 94  2  2  3 42 29.9990000  0  9  2 13  9  7 26  5 12 24  4
  21915600.346     9522115.227 7   3448427.934 5
  20507561.720   -18423792.755 8 -15950645.670 7
  22101390.546   -23805894.150 7 -13500390.420 5
  21232111.885     -901534.111 8  -3136185.419 9
  23614929.764    -8592842.197 5   -771474.449 2
  24711394.747   -22551601.005 4   -799142.374 2
  23093613.104   -12126182.526 6  -9253517.982 3
  23659314.847    -9960232.600 5  -7762068.395 2
  21687198.035   -24881548.067 7 -14368247.744 6
 94  2  2  3 42 59.9990000  0  9  2 13  9  7 26  5 12 24  4
  21924617.113     9569499.488 7   3485350.713 5
  20503524.236   -18445007.885 8 -15967176.959 7
  22087638.706   -23878162.378 7 -13556703.317 5
  21243188.946     -843310.218 8  -3090816.149 9
  23628156.188    -8523337.303 5   -717314.815 2
  24696688.518   -22628947.209 4   -859412.069 2
  23077283.019   -12212006.693 7  -9320393.926 3
  23639404.851   -10064813.026 5  -7843559.600 3
  21673293.931   -24954600.975 7 -14425172.072 6
 94  2  2  3 43 29.9990000  0  9  2 13  9  7 26  5 12 24  4
  21933680.319     9617124.368 7   3522461.064 5
  20499592.547   -18465658.611 8 -15983268.365 7
  22073956.268   -23950072.164 7 -13612736.869 5
  21254308.848     -784888.201 8  -3045292.450 9
  23641424.912    -8453611.018 5   -662982.615 2
  24681960.584   -22706332.476 4   -919712.149 2
  23060973.320   -12297695.845 6  -9387164.640 3
  23619526.842   -10169282.494 5  -7924964.317 3
  21659465.674   -25027268.783 7 -14481796.288 6
 94  2  2  3 43 59.9990000  0  9  2 13  9  7 26  5 12 24  4
  21942788.554     9664997.620 7   3559764.871 5
  20495773.431   -18485746.779 8 -15998921.491 7
  22060337.266   -24021633.808 7 -13668499.185 6
  21265465.025     -726254.132 8  -2999603.585 9
  23654736.717    -8383664.429 5   -608478.785 2
  24667232.860   -22783740.554 4   -980030.137 2
  23044695.429   -12383248.894 7  -9453829.349 3
  23599685.348   -10273661.043 5  -8006298.262 3
  21645717.671   -25099541.438 7 -14538112.619 6
 94  2  2  3 44 29.9990000  0  9  2 13  9  7 26  5 12 24  4
  21951944.335     9713121.193 7   3597263.757 5
  20492055.435   -18505269.990 8 -16014134.362 7
  22046787.816   -24092847.251 7 -13723990.174 6
  21276673.665     -667371.780 8  -2953721.228 9
  23668090.012    -8313504.048 5   -553808.347 2
  24652504.686   -22861179.946 5  -1040372.524 2
  23028443.620   -12468660.588 7  -9520383.918 3
  23579821.040   -10377947.814 5  -8087560.643 3
  21632037.932   -25171411.108 7 -14594114.944 6
 94  2  2  3 44 59.9990000  0  9  2 13  9  7 26  5 12 24  4
  21961153.480     9761491.743 7   3634955.086 5
  20488448.662   -18524231.097 8 -16028909.249 7
  22033300.993   -24163708.593 7 -13779206.802 6
  21287927.035     -608231.003 8  -2907637.521 9
  23681476.495    -8243152.055 5   -498988.627 2
  24637754.807   -22938642.672 4  -1100733.015 2
  23012213.996   -12553931.103 7  -9586828.468 3
  23559991.507   -10482144.393 5  -8168752.760 3
  21618439.556   -25242872.764 7 -14649799.346 6
 94  2  2  3 45 29.9990000  0  9  2 13  9  7 26  5 12 24  4
  21970400.938     9810104.485 7   3672835.154 5
  20484947.956   -18542630.251 8 -16043246.254 7
  22019886.300   -24234206.071 7 -13834139.884 6
  21299227.951     -548827.463 8  -2861349.035 9
  23694896.584    -8172629.311 5   -444035.857 2
  24623014.612   -23016111.673 4  -1161098.399 2
  22996017.199   -12639057.734 7  -9653160.887 3
  23540188.627   -10586250.335 6  -8249874.233 3
  21604919.186   -25313922.211 7 -14705162.522 6
 94  2  2  3 45 59.9990000  0  9  2 13  9  7 26  5 12 24  4
  21979693.605     9858938.918 7   3710887.928 5
  20481551.007   -18560468.261 8 -16057145.984 7
  22006542.118   -24304325.940 7 -13888778.735 6
  21310586.758     -489144.581 8  -2814842.892 9
  23708344.075    -8101951.771 5   -388962.433 2
  24608270.279   -23093591.209 4  -1221471.988 2
  22979841.777   -12724038.660 7  -9719379.770 3
  23520393.540   -10690266.262 5  -8330925.595 3
  21591476.972   -25384550.830 7 -14760197.800 6
 94  2  2  3 46 29.9990000  0  9  2 13  9  7 26  5 12 24  4
  21989028.692     9907992.039 7   3749111.136 5
  20478263.243   -18577744.832 8 -16070608.242 7
  21993275.312   -24374053.916 7 -13943112.230 6
  21321993.951     -429199.722 8  -2768132.604 9
  23721818.847    -8031130.647 5   -333777.177 2
  24593532.302   -23171084.607 5  -1281856.454 2
  22963704.098   -12808870.595 7  -9785482.574 3
  23500617.671   -10794193.788 6  -8411908.046 3
  21578117.590   -25454767.321 7 -14814911.938 6
 94  2  2  3 46 59.9990000  0  9  2 13  9  7 26  5 12 24  4
  21998409.288     9957275.212 7   3787513.605 5
  20475083.225   -18594460.328 8 -16083633.281 7
  21980079.018   -24443387.806 7 -13997138.636 6
  21333445.363     -369026.858 8  -2721244.680 9
  23735324.107    -7960149.800 4   -278467.435 2
  24578781.014   -23248584.828 5  -1342246.189 2
  22947597.839   -12893550.898 7  -9851467.209 3
  23480869.442   -10898027.114 6  -8492817.134 3
  21564833.936   -25524574.264 7 -14869306.936 6
 94  2  2  3 47 29.9990000  0  9  2 13  9  7 26  5 12 24  4
  22007826.998    10006784.829 7   3826092.516 5
  20472009.153   -18610617.212 8 -16096223.070 7
  21966961.689   -24512333.725 7 -14050862.730 6
  21344935.928     -308641.896 8  -2674191.453 9
  23748878.234    -7888992.027 5   -223019.854 2
  24564027.238   -23326115.006 4  -1402659.340 2
  22931500.513   -12978079.249 7  -9917333.447 3
  23461114.678   -11001758.776 6  -8573646.962 3
  21551631.436   -25593960.205 7 -14923373.885 6
 94  2  2  3 47 59.9990000  0  9  2 13  9  7 26  5 12 24  4
  22017295.943    10056531.415 7   3864856.080 5
  20469041.747   -18626215.416 8 -16108377.501 7
  21953913.132   -24580895.770 7 -14104287.694 6
  21356466.426     -248059.680 8  -2626984.553 9
  23762449.239    -7817630.851 5   -167413.763 2
  24549259.192   -23403692.639 4  -1463109.355 2
  22915445.937   -13062452.587 6  -9983078.879 3
  23441402.785   -11105373.815 6  -8654385.938 3
  21538503.674   -25662923.380 7 -14977111.416 6
 94  2  2  3 48 29.9990000  0  9  2 13  9  7 26  5 12 24  4
  22026808.118    10106535.004 7   3903819.910 5
  20466178.669   -18641255.091 8 -16120096.713 7
  21940937.005   -24649082.672 7 -14157420.339 6
  21368028.042     -187289.518 8  -2579631.164 9
  23776069.260    -7746054.451 5   -111639.939 2
  24534485.659   -23481322.704 4  -1523600.290 2
  22899420.261   -13146667.874 7 -10048701.172 3
  23421707.889   -11208847.824 6  -8735015.017 3
  21525461.113   -25731476.448 7 -15030529.351 6
 94  2  2  3 48 59.9990000  0  9  2 13  9  7 26  5 12 24  4
  22036374.166    10156794.518 7   3942983.153 5
  20463421.778   -18655734.729 8 -16131379.526 7
  21928033.278   -24716895.995 7 -14210261.882 6
  21379630.280     -126323.537 8  -2532125.202 8
  23789734.789    -7674250.703 5    -55688.967 2
  24519698.516   -23559017.848 4  -1584141.947 2
  22883430.351   -13230720.891 6 -10114197.024 3
  23402044.382   -11312168.771 6  -8815524.817 3
  21512497.098   -25799606.323 7 -15083617.557 6
 94  2  2  3 49 29.9990000  0  9  2 13  9  7 26  5 12 24  4
  22045986.621    10207305.956 7   3982342.693 5
  20460771.583   -18669651.762 8 -16142223.972 7
  21915204.110   -24784329.179 7 -14262807.222 6
  21391268.373      -65145.244 8  -2484453.797 8
  23803431.857    -7602241.482 5       422.090 2
  24504911.523   -23636779.775 5  -1644735.585 2
  22867464.724   -13314605.705 7 -10179561.782 3
  23382411.993   -11415338.813 6  -8895917.030 3
  21499617.415   -25867291.626 7 -15136359.332 6
 94  2  2  3 49 59.9990000  0  9  2 13  9  7 26  5 12 24  4
  22055641.017    10258062.013 6   4021892.860 5
  20458234.769   -18683003.351 8 -16152627.799 7
  21902443.684   -24851376.690 7 -14315052.033 6
  21402956.532       -3744.696 8  -2436609.232 8
  23817174.793    -7530046.265 5     56678.121 2
  24490108.341   -23714575.943 4  -1705356.004 2
  22851535.161   -13398316.643 7 -10244791.082 3
  23362816.749   -11518361.708 6  -8976194.576 3
  21486819.095   -25934539.215 7 -15188760.034 6
 94  2  2  3 50 29.9990000  0  9  2 13  9  7 26  5 12 24  4
  22065346.349    10309049.179 6   4061623.101 5
  20455797.636   -18695793.182 8 -16162593.899 7
  21889757.156   -24918040.666 7 -14366997.964 6
  21414682.374       57874.516 8  -2388594.254 8
  23830943.331    -7457705.814 5    113047.273 2
  24475298.294   -23792388.732 4  -1765989.319 2
  22835638.247   -13481854.092 7 -10309885.211 3
  23343240.331   -11621251.429 6  -9056368.334 3
  21474103.787   -26001344.856 7 -15240816.356 6
 94  2  2  3 50 59.9990000  0  9  2 13  9  7 26  5 12 24  4
  22075091.822    10360259.336 6   4101527.101 5
  20453471.217   -18708025.801 8 -16172125.796 7
  21877145.877   -24984317.689 7 -14418642.396 6
  21426446.800      119703.660 8  -2340415.702 8
  23844732.135    -7385241.720 5    169512.804 3
  24460491.124   -23870198.225 5  -1826620.022 2
  22819773.739   -13565219.502 7 -10374845.263 4
  23323673.417   -11724025.620 6  -9136452.097 3
  21461480.636   -26067686.962 7 -15292511.492 6
 94  2  2  3 51 29.9990000  0  9  2 13  9  7 26  5 12 24  4
  22084878.577    10411685.923 7   4141599.754 5
  20451248.166   -18719705.891 8 -16181227.161 7
  21864605.619   -25050208.745 7 -14469986.076 6
  21438254.455      181744.733 8  -2292072.015 8
  23858545.103    -7312665.980 5    226065.304 3
  24445695.107   -23947980.443 5  -1887229.532 2
  22803943.978   -13648414.462 7 -10439672.483 4
  23304140.859   -11826680.970 6  -9216443.229 3
  21448942.356   -26133571.588 7 -15343850.134 6
 94  2  2  3 51 59.9990000  0  9  2 13  9  7 26  5 12 24  4
  22094706.643    10463330.092 6   4181841.955 5
  20449132.440   -18730835.861 8 -16189899.847 7
  21852140.068   -25115711.797 7 -14521027.418 6
  21450101.654      244001.676 8  -2243560.117 8
  23872370.931    -7239968.427 5    282712.765 3
  24430881.253   -24025728.975 4  -1947812.819 2
  22788144.796   -13731438.046 7 -10504366.171 4
  23284624.490   -11929205.761 6  -9296332.659 3
  21436491.316   -26199018.057 7 -15394847.384 6
 94  2  2  3 52 29.9990000  0  9  2 13  9  7 26  5 12 24  4
  22104576.260    10515209.432 6   4222267.391 5
  20447116.246   -18741421.014 8 -16198148.015 7
  21839750.815   -25180826.580 7 -14571766.196 6
  21461988.005      306463.472 8  -2194888.583 8
  23886234.774    -7167140.322 5    339461.915 3
  24416098.397   -24103471.425 5  -2008391.251 2
  22772376.912   -13814292.524 7 -10568928.096 4
  23265140.049   -12031587.569 6  -9376110.673 4
  21424118.761   -26264022.620 7 -15445500.277 6
 94  2  2  3 52 59.9990000  0  9  2 13  9  7 26  5 12 24  4
  22114495.463    10567328.604 6   4262879.735 4
  20445205.369   -18751465.199 8 -16205974.638 8
  21827438.669   -25245538.927 7 -14622191.405 6
  21473911.321      369133.829 8  -2146054.538 8
  23900120.891    -7094157.975 5    396331.247 3
  24401298.273   -24181233.074 5  -2068984.749 2
  22756643.264   -13896978.464 7 -10633358.663 4
  23245693.201   -12133814.694 6  -9455768.142 4
  21411834.585   -26328588.273 7 -15495811.164 6
 94  2  2  3 53 29.9990000  0  9  2 13  9  7 26  5 12 24  4
  22124458.736    10619684.639 6   4303676.581 4
  20443395.612   -18760970.315 8 -16213381.256 7
  21815202.460   -25309834.541 7 -14672291.926 6
  21485880.175      432013.965 8  -2097057.071 8
  23914035.578    -7021017.656 5    453323.608 2
  24386504.264   -24259031.807 5  -2129607.109 2
  22740939.235   -13979494.256 7 -10697656.735 4
  23226269.348   -12235880.441 6  -9535299.890 4
  21399625.897   -26392733.226 7 -15545794.267 6
 94  2  2  3 53 59.9990000  0  9  2 13  9  7 26  5 12 24  4
  22134478.250    10672282.523 6   4344661.981 4
  20441689.403   -18769939.416 8 -16220370.111 7
  21803046.205   -25373710.091 7 -14722065.011 6
  21497879.668      495085.747 8  -2047910.187 8
  23927985.880    -6947727.990 5    510432.503 2
  24371680.996   -24336890.172 5  -2190275.925 2
  22725268.124   -14061839.833 7 -10761822.062 4
  23206884.858   -12337790.393 6  -9614710.182 4
  21387501.691   -26456449.331 7 -15595443.122 6
 94  2  2  3 54 29.9990000  0  9  2 13  9  7 26  5 12 24  4
  22144521.537    10725112.365 6   4385828.081 5
  20440086.533   -18778376.216 8 -16226944.223 8
  21790970.415   -25437165.251 7 -14771510.600 6
  21509915.315      558329.752 8  -1998629.133 8
  23941960.795    -6874291.208 4    567655.963 2
  24356844.927   -24414821.468 5  -2251001.540 2
  22709632.748   -14144015.405 7 -10825854.957 4
  23187513.888   -12439561.430 6  -9694012.265 4
  21375462.325   -26519721.530 7 -15644746.130 6
 94  2  2  3 54 59.9990000  0  9  2 13  9  7 26  5 12 24  4
  22154619.356    10778153.188 6   4427158.559 5
  20438579.716   -18786285.249 8 -16233107.099 8
  21778975.569   -25500195.955 7 -14820625.443 6
  21521984.090      621745.347 8  -1949214.399 8
  23955960.474    -6800724.195 5    624980.873 2
  24342007.869   -24492821.782 5  -2311780.959 2
  22694027.502   -14226022.246 7 -10889756.391 4
  23168176.885   -12541209.425 6  -9773218.489 4
  21363506.182   -26582552.922 7 -15693705.640 6
 94  2  2  3 55 29.9990000  0  9  2 13  9  7 26  5 12 24  4
  22164745.056    10831394.671 6   4468645.434 5
  20437173.299   -18793668.277 8 -16238860.106 8
  21767059.298   -25562822.898 7 -14869425.646 6
  21534084.793      685332.458 8  -1899665.997 8
  23969976.730    -6727044.730 4    682393.414 2
  24327152.463   -24570884.212 5  -2372608.813 2
  22678452.054   -14307858.924 7 -10953525.224 4
  23148857.270   -12642735.620 6  -9852329.773 4
  21351635.211   -26644939.492 7 -15742318.538 6
 94  2  2  3 55 59.9990000  0  9  2 13  9  7 26  5 12 24  4
  22174914.796    10884827.981 6   4510281.778 5
  20435871.481   -18800527.142 8 -16244204.672 8
  21755216.057   -25625064.556 7 -14917925.639 6
  21546216.315      749094.015 8  -1849981.658 8
  23984009.596    -6653256.136 4    739890.982 2
  24312281.917   -24649014.041 5  -2433489.172 2
  22662917.139   -14389523.375 7 -11017159.841 4
  23129553.753   -12744149.375 6  -9931353.481 4
  21339847.701   -26706874.109 7 -15790579.261 6
 94  2  2  3 56 29.9990000  0  9  2 13  9  7 26  5 12 24  4
  22185120.481    10938449.353 6   4552064.578 4
  20434665.146   -18806862.606 8 -16249141.440 7
  21743444.796   -25686920.838 7 -14966125.378 6
  21558386.270      813041.902 8  -1800152.181 8
  23998084.912    -6579358.996 4    797473.110 2
  24297414.430   -24727198.903 5  -2494412.467 2
  22647404.258   -14471013.030 7 -11080658.312 4
  23110280.636   -12845445.302 6 -10010285.374 4
  21328145.152   -26768366.841 7 -15838495.698 6
 94  2  2  3 56 59.9990000  0  9  2 13  9  7 26  5 12 24  4
  22195356.894    10992258.032 6   4593993.423 4
  20433556.273   -18812678.189 8 -16253673.051 7
  21731745.546   -25748395.767 7 -15014027.915 6
  21570590.221      877178.539 8  -1750175.590 8
  24012161.516    -6505369.874 4    855127.004 2
  24282520.591   -24805425.247 5  -2555368.032 2
  22631932.389   -14552328.023 7 -11144020.636 4
  23091029.133   -12946608.243 6 -10089113.643 4
  21316526.726   -26829430.125 7 -15886077.458 6
 94  2  2  3 57 29.9990000  0  9  2 13  9  7 26  5 12 24  4
  22205632.520    11046262.276 6   4636074.616 4
  20432550.200   -18817974.293 8 -16257799.885 7
  21720119.264   -25809500.365 7 -15061641.880 6
  21582829.068      941498.056 8  -1700056.485 8
  24026260.786    -6431293.690 4    912848.686 2
  24267628.550   -24883683.615 5  -2616348.531 2
  22616494.786   -14633465.322 7 -11207244.514 4
  23071800.085   -13047637.992 6 -10167838.090 4
  21304987.534   -26890059.468 7 -15933321.079 6
 94  2  2  3 57 59.9990000  0  9  2 13  9  7 26  5 12 24  4
  22215949.039    11100478.069 6   4678320.709 4
  20431639.520   -18822750.938 8 -16261521.905 7
  21708562.685   -25870219.607 7 -15108955.557 6
  21595100.563     1005983.057 8  -1649808.420 8
  24040371.147    -6357127.145 4    970640.785 2
  24252738.429   -24961954.424 5  -2677338.687 2
  22601088.272   -14714421.295 7 -11270327.061 4
  23052604.044   -13148526.041 6 -10246452.142 4
  21293532.644   -26950254.396 7 -15980226.178 6
 94  2  2  3 58 29.9990000  0  9  2 13  9  7 26  5 12 24  4
  22226308.727    11154921.849 6   4720744.416 4
  20430829.631   -18827009.578 8 -16264840.345 7
  21697084.651   -25930540.056 7 -15155958.503 6
  21607400.238     1070617.778 7  -1599443.735 7
  24054507.681    -6282876.253 4   1028498.551 2
  24237832.508   -25040230.703 5  -2738333.190 2
  22585719.202   -14795193.821 7 -11333266.708 4
  23033436.784   -13249252.176 6 -10324940.050 3
  21282162.206   -27010010.214 7 -16026789.167 6
 94  2  2  3 58 59.9990000  0  9  2 13  9  7 26  5 12 24  4
  22236717.970    11209602.207 6   4763352.479 4
  20430117.084   -18830750.013 8 -16267754.937 7
  21685683.004   -25990457.967 7 -15202647.782 6
  21619727.914     1135399.837 8  -1548964.207 7
  24068647.002    -6208550.793 4   1086414.524 2
  24222939.628   -25118528.067 5  -2799344.128 2
  22570383.409   -14875779.306 7 -11396060.564 4
  23014304.778   -13349816.504 6 -10403301.848 3
  21270878.707   -27069313.614 7 -16072999.586 6
 94  2  2  3 59 29.9990000  0  9  2 13  9  7 26  5 12 24  4
  22247168.346    11264527.931 6   4806151.730 4
  20429508.566   -18833970.823 8 -16270264.670 7
  21674357.475   -26049964.420 7 -15249016.452 6
  21632086.888     1200337.288 8  -1498363.581 7
  24082804.312    -6134150.350 4   1144388.857 2
  24208030.469   -25196852.708 5  -2860376.259 2
  22555085.809   -14956172.409 7 -11458704.527 4
  22995198.765   -13450219.237 6 -10481537.730 3
  21259681.639   -27128154.563 7 -16118849.669 6
 94  2  2  3 59 59.9990000  0  9  2 13  9  7 26  5 12 24  4
  22257667.617    11319687.502 6   4849133.205 4
  20428988.845   -18836676.865 8 -16272373.271 7
  21663116.876   -26109046.714 8 -15295054.593 6
  21644472.094     1265432.394 7  -1447640.142 7
  24096973.912    -6059671.498 4   1202424.370 2
  24193121.101   -25275231.339 5  -2921450.463 2
  22539823.195   -15036374.551 7 -11521199.693 4
  22976116.106   -13550448.787 6 -10559638.665 3
  21248570.581   -27186541.650 7 -16164346.076 6
 94  2  2  4  0 29.9990000  0  9  2 13  9  7 26  5 12 24  4
  22268206.461    11375064.393 6   4892284.010 4
  20428573.903   -18838868.746 8 -16274081.206 7
  21651955.033   -26167703.281 7 -15340760.999 6
  21656892.705     1330697.965 7  -1396783.848 7
  24111154.935    -5985127.328 4   1260510.696 2
  24178190.297   -25353684.385 5  -2982582.677 2
  22524596.256   -15116382.538 7 -11583543.562 4
  22957074.788   -13650513.387 6 -10637611.056 3
  21237545.413   -27244478.678 7 -16209491.796 6
 94  2  2  4  0 59.9990000  0  9  2 13  9  7 26  5 12 24  4
  22278778.103    11430644.193 6   4935592.934 4
  20428254.504   -18840550.295 8 -16275391.502 7
  21640871.436   -26225937.166 7 -15386138.058 6
  21669344.945     1396130.803 7  -1345797.231 7
  24125355.984    -5910525.514 4   1318641.993 2
  24163249.780   -25432205.299 5  -3043767.784 2
  22509409.460   -15196196.604 7 -11645736.324 4
  22938065.068   -13750418.686 6 -10715459.339 3
  21226608.984   -27301968.119 7 -16254288.746 6
 94  2  2  4  1 29.9990000  0  9  2 13  9  7 26  5 12 24  4
  22289396.752    11486430.625 6   4979062.846 4
  20428030.888   -18841720.085 8 -16276303.034 7
  21629873.640   -26283744.073 7 -15431182.407 6
  21681827.403     1461722.367 7  -1294686.922 7
  24139571.213    -5835845.711 5   1376834.033 2
  24148298.951   -25510770.720 5  -3104987.594 2
  22494258.699   -15275811.526 7 -11707773.919 4
  22919086.407   -13850146.719 6 -10793169.478 3
  21215752.630   -27359007.413 7 -16298734.949 6
 94  2  2  4  1 59.9990000  0  9  2 13  9  7 26  5 12 24  4
  22300052.965    11542432.931 6   5022701.011 4
  20427908.273   -18842375.942 8 -16276814.069 7
  21618952.770   -26341122.933 8 -15475893.212 6
  21694335.164     1527467.365 7  -1243457.045 7
  24153799.543    -5761073.069 5   1435098.426 2
  24133343.174   -25589371.481 5  -3166234.900 2
  22479150.988   -15355221.312 7 -11769651.641 5
  22900141.502   -13949695.073 6 -10870739.601 4
  21204987.922   -27415586.285 7 -16342822.365 6
 94  2  2  4  2 29.9990000  0  9  2 13  9  7 26  5 12 24  4
  22310751.808    11598666.527 6   5066519.379 4
  20427880.063   -18842521.068 8 -16276927.151 7
  21608115.993   -26398078.257 7 -15520273.981 6
  21706876.232     1593356.967 7  -1192114.520 7
  24168043.342    -5686211.977 4   1493431.727 2
  24118380.593   -25667982.335 5  -3227490.109 2
  22464074.755   -15434425.760 7 -11831369.404 5
  22881236.530   -14049066.729 6 -10948172.069 4
  21194309.135   -27471698.246 7 -16386545.969 6
 94  2  2  4  2 59.9990000  0  9  2 13  9  7 26  5 12 24  4
  22321500.537    11655146.957 6   5110530.070 4
  20427948.056   -18842157.238 8 -16276643.639 7
  21597356.291   -26454610.959 7 -15564325.430 6
  21719441.673     1659392.702 7  -1140658.107 7
  24182303.420    -5611250.738 4   1551843.074 2
  24103424.217   -25746595.830 5  -3288747.349 2
  22449041.392   -15513422.432 7 -11892925.238 5
  22862365.614   -14148254.602 6 -11025461.280 4
  21183721.635   -27527323.856 7 -16429890.583 6
 94  2  2  4  3 29.9990000  0  9  2 13  9  7 26  5 12 24  4
  22332292.496    11711870.886 6   5154730.515 4
  20428113.122   -18841287.472 8 -16275965.898 7
  21586679.902   -26510722.368 8 -15608048.614 6
  21732038.143     1725580.359 7  -1089083.305 7
  24196595.515    -5536195.820 4   1610327.410 2
  24088446.046   -25825232.369 5  -3350022.572 2
  22434052.579   -15592210.740 7 -11954318.717 5
  22843515.144   -14247264.795 6 -11102612.080 4
  21173230.847   -27582457.630 7 -16472851.944 6
 94  2  2  4  3 59.9990000  0  9  2 13  9  7 26  5 12 24  4
  22343133.381    11768821.756 6   5199107.813 4
  20428374.840   -18839913.647 8 -16274895.377 7
  21576087.306   -26566406.753 8 -15651439.049 6
  21744658.206     1791917.998 7  -1037391.630 7
  24210883.384    -5461064.383 4   1668871.374 2
  24073487.781   -25903919.263 5  -3411336.986 2
  22419095.393   -15670788.649 7 -12015548.234 5
  22824707.244   -14346102.011 6 -11179628.090 4
  21162832.126   -27637099.660 7 -16515430.144 6
 94  2  2  4  4 29.9990000  0  9  2 13  9  7 26  5 12 24  4
  22354011.350    11825980.684 6   5243647.232 4
  20428732.733   -18838037.093 8 -16273433.090 7
  21565572.535   -26621654.943 7 -15694489.566 6
  21757310.857     1858397.893 7   -985589.109 7
  24225201.022    -5385870.066 4   1727464.342 2
  24058504.904   -25982660.158 5  -3472693.459 2
  22404184.706   -15749153.695 7 -12076611.882 5
  22805932.052   -14444752.882 6 -11256498.848 4
  21152526.371   -27691248.253 7 -16557623.822 6
 94  2  2  4  4 59.9990000  0  9  2 13  9  7 26  5 12 24  4
  22364925.924    11883329.528 6   5288334.610 4
  20429184.670   -18835660.553 8 -16271581.257 7
  21555137.209   -26676469.207 7 -15737201.983 6
  21769984.583     1925010.303 7   -933683.348 7
  24239519.230    -5310628.837 4   1786093.828 2
  24043504.488   -26061466.973 5  -3534101.382 2
  22389316.409   -15827304.667 7 -12137508.748 5
  22787196.012   -14543215.646 6 -11333223.070 4
  21142324.074   -27744891.959 7 -16599424.104 6
 94  2  2  4  5 30.0000000  0  9  2 13  9  7 26  5 12 24  4
  22375876.923    11940872.862 6   5333173.555 4
  20429731.971   -18832784.365 8 -16269340.077 7
  21544791.461   -26730843.151 7 -15779571.296 7
  21782686.340     1991750.049 7   -881678.351 7
  24253846.162    -5235349.794 4   1844752.805 2
  24028498.407   -26140340.526 5  -3595561.271 2
  22374483.158   -15905240.559 7 -12198238.023 5
  22768504.342   -14641481.921 6 -11409794.180 4
  21132206.138   -27798039.797 7 -16640837.995 7
 94  2  2  4  6  0.0000000  0  9  2 13  9  7 26  5 12 24  4
  22386867.674    11998629.626 6   5378178.807 4
  20430375.715   -18829409.751 8 -16266710.493 7
  21534530.735   -26784773.523 7 -15821594.957 7
  21795408.093     2058600.066 7   -829587.431 7
  24268172.104    -5160027.414 4   1903445.543 2
  24013479.764   -26219248.682 5  -3657048.126 2
  22359692.417   -15982953.534 7 -12258793.570 5
  22749839.924   -14739540.266 6 -11486203.262 4
  21122189.712   -27850683.565 7 -16681859.111 7
 94  2  2  4  6 30.0000000  0  9  2 13  9  7 26  5 12 24  4
  22397903.184    12056628.895 6   5423373.025 4
  20431111.226   -18825537.573 8 -16263693.196 7
  21524347.684   -26838271.277 7 -15863281.500 7
  21808149.962     2125569.792 7   -777403.221 7
  24282521.340    -5084668.017 4   1962167.206 2
  23998465.408   -26298164.806 5  -3718541.157 2
  22344949.553   -16060443.178 7 -12319175.075 5
  22731221.313   -14837396.473 6 -11562454.834 4
  21112267.152   -27902815.863 7 -16722481.649 7
 94  2  2  4  7  0.0000000  0  9  2 13  9  7 26  5 12 24  4
  22408987.291    12114887.785 6   5468769.545 4
  20431940.122   -18821169.235 8 -16260289.306 7
  21514253.522   -26891342.172 7 -15904635.448 7
  21820918.003     2192668.408 7   -725118.583 7
  24296859.934    -5009282.471 4   2020909.094 2
  23983444.127   -26377094.308 5  -3780044.643 2
  22330245.723   -16137706.773 7 -12379380.498 5
  22712632.262   -14935054.836 6 -11638552.243 4
  21102443.492   -27954444.799 7 -16762711.981 7
 94  2  2  4  7 30.0000000  0  9  2 13  9  7 26  5 12 24  4
  22420124.161    12173419.114 6   5514378.396 4
  20432869.659   -18816306.418 8 -16256500.072 8
  21504235.717   -26943977.729 7 -15945650.159 7
  21833716.113     2259899.772 7   -672730.507 7
  24311214.117    -4933866.071 4   2079675.163 2
  23968414.902   -26456040.854 5  -3841561.412 2
  22315586.801   -16214741.998 7 -12439407.917 5
  22694091.747   -15032518.269 6 -11714497.739 4
  21092709.411   -28005595.225 8 -16802569.431 7
 94  2  2  4  8  0.0000000  0  9  2 13  9  7 26  5 12 24  4
  22431312.805    12232194.809 6   5560177.587 4
  20433886.705   -18810951.927 8 -16252327.752 8
  21494301.735   -26996176.106 7 -15986324.236 7
  21846533.410     2327264.922 7   -620238.194 7
  24325566.231    -4858414.015 4   2138468.941 2
  23953396.169   -26535006.806 5  -3903093.326 2
  22300970.449   -16291547.502 7 -12499256.390 5
  22675582.651   -15129792.515 6 -11790295.846 4
  21083067.576   -28056269.704 8 -16842056.035 7
 94  2  2  4  8 30.0000000  0  9  2 13  9  7 26  5 12 24  4
  22442534.607    12291181.865 6   5606141.503 4
  20434999.055   -18805105.292 8 -16247771.933 7
  21484454.032   -27047929.158 7 -16026651.299 7
  21859379.427     2394777.354 7   -567631.108 7
  24339927.249    -4782939.052 4   2197280.564 2
  23938356.780   -26614016.051 5  -3964658.954 2
  22286396.998   -16368118.960 7 -12558922.450 5
  22657108.180   -15226856.935 6 -11865930.450 4
  21073513.580   -28106475.319 8 -16881177.302 7
 94  2  2  4  9  0.0000000  0  9  2 13  9  7 26  5 12 24  4
  22453801.017    12350361.165 6   5652255.198 4
  20436206.259   -18798767.479 8 -16242833.390 7
  21474689.522   -27099223.177 7 -16066620.666 7
  21872256.142     2462438.822 7   -514907.899 7
  24354296.361    -4707432.303 4   2256117.018 2
  23923310.197   -26693077.813 5  -4026265.485 2
  22271875.831   -16444453.386 7 -12618403.832 5
  22638680.598   -15323701.616 6 -11941393.821 4
  21064047.483   -28156219.290 8 -16919938.830 7
 94  2  2  4  9 30.0000000  0  9  2 13  9  7 26  5 12 24  4
  22465092.310    12409727.200 6   5698514.445 4
  20437503.880   -18791937.374 8 -16237511.214 7
  21465022.534   -27150052.077 7 -16106227.614 7
  21885159.509     2530251.269 7   -462067.041 7
  24368682.082    -4631873.039 3   2314994.319 1
  23908260.915   -26772183.777 5  -4087906.504 2
  22257395.076   -16520545.375 8 -12677696.281 5
  22620293.217   -15420319.764 6 -12016680.672 4
  21054670.935   -28205488.514 8 -16958330.429 7
 94  2  2  4 10  0.0000000  0  9  2 13  9  7 26  5 12 24  4
  22476423.506    12469269.698 6   5744911.188 4
  20438897.496   -18784618.749 8 -16231808.381 7
  21455431.784   -27200430.894 7 -16145483.815 7
  21898095.164     2598211.041 7   -409111.376 7
  24383066.574    -4556271.732 4   2373904.414 1
  23893201.291   -26851324.795 5  -4149574.825 2
  22242964.086   -16596394.879 7 -12736799.789 5
  22601949.726   -15516711.194 6 -12091790.855 4
  21045390.619   -28254267.211 8 -16996339.773 7
 94  2  2  4 10 30.0000000  0  9  2 13  9  7 26  5 12 24  4
  22487795.173    12529019.596 6   5791469.544 3
  20440382.368   -18776812.922 8 -16225725.914 7
  21445934.359   -27250361.761 7 -16184391.004 7
  21911051.804     2666315.510 7   -356042.945 6
  24397459.910    -4480637.043 4   2432840.536 1
  23878134.561   -26930499.427 5  -4211269.329 2
  22228573.689   -16671998.673 7 -12795711.826 5
  22583649.465   -15612877.134 6 -12166725.321 4
  21036202.100   -28302548.490 8 -17033961.541 7
 94  2  2  4 11  0.0000000  0  9  2 13  9  7 26  5 12 24  4
  22499212.170    12589000.490 6   5838207.862 3
  20441962.904   -18768518.312 8 -16219262.566 7
  21436515.479   -27299838.179 7 -16222944.057 7
  21924038.124     2734553.720 7   -302870.334 6
  24411854.535    -4404969.720 4   2491802.062 1
  23863065.224   -27009689.254 5  -4272975.640 2
  22214235.934   -16747351.158 7 -12854428.059 5
  22565393.363   -15708838.818 6 -12241500.646 4
  21027111.254   -28350327.072 7 -17071191.602 7
 94  2  2  4 11 30.0000000  0  9  2 13  9  7 26  5 12 24  4
  22510665.051    12649210.154 6   5885124.458 3
  20443632.178   -18759738.917 8 -16212421.487 7
  21427190.315   -27348857.008 7 -16261140.552 7
  21937045.849     2802905.966 7   -249608.843 6
  24426258.333    -4329281.473 4   2550779.944 1
  23847987.912   -27088897.071 6  -4334695.984 2
  22199943.569   -16822452.262 8 -12912948.377 5
  22547163.494   -15804600.580 6 -12316120.175 4
  21018115.381   -28397595.775 8 -17108024.335 7
 94  2  2  4 12  0.0000000  0  9  2 13  9  7 26  5 12 24  4
  22522165.779    12709653.406 6   5932223.078 3
  20445392.259   -18750478.093 8 -16205205.246 7
  21417947.384   -27397406.458 7 -16298971.300 7
  21950070.452     2871356.333 7   -196270.910 6
  24440666.868    -4253591.713 4   2609758.937 1
  23832916.505   -27168124.510 5  -4396431.665 2
  22185700.549   -16897301.237 7 -12971272.259 5
  22528974.965   -15900151.004 6 -12390575.052 4
  21009217.601   -28444353.187 8 -17144458.671 7
 94  2  2  4 12 30.0000000  0  9  2 13  9  7 26  5 12 24  4
  22533713.305    12770339.570 6   5979510.974 3
  20447250.163   -18740737.260 8 -16197614.985 7
  21408803.354   -27445468.308 7 -16336422.093 7
  21963114.362     2939904.384 7   -142856.842 6
  24455066.530    -4177904.095 4   2668736.283 1
  23817835.715   -27247379.725 5  -4458188.933 2
  22171506.036   -16971896.284 7 -13029397.482 5
  22510844.926   -15995471.939 6 -12464851.095 4
  21000416.025   -28490599.784 8 -17180494.974 7
 94  2  2  4 13  0.0000000  0  9  2 13  9  7 26  5 12 24  4
  22545307.868    12831259.712 6   6026981.232 3
  20449191.409   -18730517.378 8 -16189651.413 7
  21399752.350   -27493038.159 7 -16373489.507 7
  21976180.367     3008549.712 7    -89366.967 6
  24469474.076    -4102227.187 4   2727705.316 2
  23802742.244   -27326665.165 5  -4519969.763 2
  22157361.228   -17046231.986 7 -13087321.398 5
  22492756.559   -16090549.249 6 -12538937.264 4
  20991715.178   -28536330.939 8 -17216129.616 7
 94  2  2  4 13 30.0000000  0  9  2 13  9  7 26  5 12 24  4
  22556948.360    12892418.772 6   6074637.592 3
  20451226.341   -18719818.266 8 -16181314.447 7
  21390794.731   -27540113.211 7 -16410171.372 7
  21989260.042     3077294.876 7    -35799.292 6
  24483871.249    -4026553.887 4   2786671.501 2
  23787658.157   -27405976.957 5  -4581771.158 2
  22143261.689   -17120304.993 8 -13145040.629 5
  22474711.811   -16185355.313 6 -12612812.113 4
  20983112.783   -28581539.915 8 -17251357.376 7
 94  2  2  4 14  0.0000000  0  9  2 13  9  7 26  5 12 24  4
  22568631.691    12953827.379 6   6122488.433 3
  20453358.195   -18708642.655 8 -16172606.170 7
  21381924.981   -27586708.644 7 -16446479.510 7
  22002361.962     3146155.646 7     17858.447 6
  24498274.208    -3950882.584 4   2845636.114 2
  23772549.486   -27485305.504 5  -4643585.591 2
  22129219.140   -17194113.756 8 -13202553.960 5
  22456725.133   -16279889.648 6 -12686475.216 4
  20974607.551   -28626236.609 8 -17286185.965 7
 94  2  2  4 14 30.0000000  0  9  2 13  9  7 26  5 12 24  4
  22580360.352    13015475.285 6   6170525.729 3
  20455572.582   -18696993.743 8 -16163529.093 7
  21373146.818   -27632837.606 7 -16482424.154 7
  22015490.203     3215143.322 7     71615.065 6
  24512667.603    -3875203.462 4   2904606.796 2
  23757460.812   -27564640.183 5  -4705404.772 2
  22115224.499   -17267657.152 7 -13259860.503 5
  22438783.723   -16374172.376 6 -12759942.246 5
  20966197.234   -28670432.745 8 -17320624.505 7
 94  2  2  4 15  0.0000000  0  9  2 13  9  7 26  5 12 24  4
  22592136.230    13077350.803 6   6218740.393 3
  20457877.356   -18684872.881 8 -16154084.256 8
  21364460.182   -27678501.703 7 -16518006.571 7
  22028642.998     3284257.686 7    125470.416 6
  24527072.571    -3799497.704 4   2963598.301 2
  23742367.401   -27643969.212 6  -4767219.591 2
  22101279.982   -17340932.376 7 -13316958.046 5
  22420888.572   -16468214.621 6 -12833221.921 5
  20957882.460   -28714133.845 8 -17354677.298 7
 94  2  2  4 15 30.0000000  0  9  2 13  9  7 26  5 12 24  4
  22603957.226    13139461.886 6   6267138.630 3
  20460274.826   -18672279.966 8 -16144271.575 8
  21355860.845   -27723690.114 7 -16553218.300 7
  22041818.786     3353503.837 7    179428.459 6
  24541485.993    -3723756.701 4   3022617.253 2
  23727272.671   -27723279.769 6  -4829019.999 2
  22087392.516   -17413934.888 7 -13373843.116 5
  22403035.032   -16562026.034 6 -12906321.692 5
  20949656.035   -28757342.128 7 -17388346.047 7
 94  2  2  4 16  0.0000000  0  9  2 13  9  7 26  5 12 24  4
  22615812.549    13201799.580 5   6315713.410 3
  20462761.635   -18659218.240 8 -16134093.626 8
  21347351.446   -27768400.695 7 -16588057.735 7
  22055025.783     3422886.277 7    233492.671 6
  24555898.305    -3647993.143 4   3081653.740 2
  23712175.542   -27802590.345 6  -4890820.424 2
  22073550.859   -17486663.771 7 -13430514.981 5
  22385225.321   -16655621.400 6 -12979253.148 5
  20941530.340   -28800047.889 8 -17421623.273 8
 94  2  2  4 16 30.0000000  0  9  2 13  9  7 26  5 12 24  4
  22627720.455    13264363.164 5   6364464.224 3
  20465336.013   -18645686.788 8 -16123549.609 8
  21338938.250   -27812622.241 7 -16622516.067 7
  22068248.669     3492390.920 7    287652.159 6
  24570323.989    -3572220.708 4   3140697.199 2
  23697083.031   -27881918.016 6  -4952634.138 2
  22059761.815   -17559113.679 7 -13486969.452 5
  22367455.483   -16748983.992 6 -13052003.193 5
  20933501.449   -28842232.988 8 -17454494.757 8
 94  2  2  4 17  0.0000000  0  9  2 13  9  7 26  5 12 24  4
  22639671.891    13327160.203 6   6413396.931 3
  20467999.849   -18631688.876 8 -16112642.166 8
  21330615.802   -27856349.814 7 -16656589.535 7
  22081492.331     3561994.045 7    341888.359 6
  24584746.974    -3496468.552 4   3199724.803 2
  23681981.705   -27961283.236 5  -5014477.150 2
  22046031.050   -17631283.668 7 -13543205.829 5
  22349737.389   -16842099.562 6 -13124560.795 5
  20925576.825   -28883877.122 8 -17486944.746 8
 94  2  2  4 17 30.0000000  0  9  2 13  9  7 26  5 12 24  4
  22651673.693    13390198.066 5   6462517.371 3
  20470750.175   -18617225.165 8 -16101371.708 8
  21322387.968   -27899587.326 7 -16690281.074 7
  22094755.089     3631681.916 7    396190.609 6
  24599146.096    -3420762.166 4   3258716.805 2
  23666869.827   -28040699.488 6  -5076359.957 2
  22032350.381   -17703169.739 8 -13599220.919 5
  22332066.182   -16934964.280 6 -13196922.878 5
  20917759.916   -28924962.773 8 -17518959.494 8
 94  2  2  4 18  0.0000000  0  9  2 13  9  7 26  5 12 24  4
  22663710.630    13453458.823 5   6511811.403 3
  20473591.757   -18602297.951 8 -16089740.143 7
  21314250.431   -27942352.375 7 -16723604.546 7
  22108032.837     3701444.131 7    450550.742 6
  24613550.434    -3345107.485 4   3317668.402 2
  23651746.077   -28120167.587 5  -5138283.179 2
  22018723.975   -17774769.755 7 -13655013.181 5
  22314447.290   -17027557.427 7 -13269073.398 5
  20910049.344   -28965485.631 8 -17550535.777 8
 94  2  2  4 18 30.0000000  0  9  2 13  9  7 26  5 12 24  4
  22675787.289    13516945.381 5   6561281.401 3
  20476518.211   -18586908.490 8 -16077748.344 7
  21306201.484   -27984644.478 7 -16756559.413 7
  22121315.382     3771267.979 7    504958.926 6
  24627932.947    -3269491.706 3   3376589.799 2
  23636620.138   -28199677.887 6  -5200239.214 2
  22005154.439   -17846080.725 7 -13710580.157 5
  22296880.951   -17119868.885 6 -13341004.388 5
  20902443.370   -29005454.949 8 -17581680.687 8
 94  2  2  4 19  0.0000000  0  9  2 13  9  7 26  5 12 24  4
  22687914.314    13580650.785 5   6610921.963 3
  20479539.100   -18571056.025 8 -16065395.758 7
  21298246.431   -28026451.225 7 -16789136.096 7
  22134615.225     3841165.938 7    559424.860 6
  24642305.987    -3193902.155 3   3435490.751 2
  23621477.441   -28279220.777 6  -5262220.620 2
  21991640.244   -17917097.647 7 -13765918.011 5
  22279365.336   -17211917.175 6 -13412730.298 5
  20894939.684   -29044873.130 7 -17612396.122 7
 94  2  2  4 19 30.0000000  0  9  2 13  9  7 26  5 12 24  4
  22700075.635    13644557.257 5   6660719.190 3
  20482640.093   -18554753.342 8 -16052692.377 7
  21290377.928   -28067787.273 7 -16821346.002 7
  22147937.162     3911156.859 7    613963.251 6
  24656693.896    -3118332.949 3   3494375.807 2
  23606336.214   -28358801.321 6  -5324231.421 2
  21978181.452   -17987828.668 7 -13821033.099 5
  22261891.453   -17303711.375 6 -13484258.237 5
  20887538.558   -29083767.922 7 -17642703.764 7
 94  2  2  4 20  0.0000000  0  9  2 13  9  7 26  5 12 24  4
  22712285.492    13708689.271 6   6710692.157 2
  20485832.134   -18537983.251 8 -16039624.763 7
  21282609.016   -28108632.510 7 -16853173.462 7
  22161281.734     3981274.999 7    668600.774 6
  24671087.981    -3042755.512 3   3553267.352 2
  23591186.801   -28438395.752 6  -5386253.043 2
  21964779.619   -18058252.264 7 -13875908.624 5
  22244483.285   -17395229.702 6 -13555571.210 5
  20880239.511   -29122131.592 7 -17672597.519 7
 94  2  2  4 20 30.0000000  0  9  2 13  9  7 26  5 12 24  4
  22724530.095    13773059.339 6   6760850.610 3
  20489109.944   -18520748.527 8 -16026195.110 7
  21274930.732   -28148970.630 7 -16884605.771 7
  22174650.349     4051532.128 7    723346.566 6
  24685454.396    -2967174.307 3   3612161.718 2
  23576036.130   -28518015.883 6  -5448294.696 2
  21951438.076   -18128366.639 7 -13930543.178 5
  22227111.331   -17486485.889 7 -13626679.924 5
  20873041.794   -29159965.979 7 -17702078.848 7
 94  2  2  4 21  0.0000000  0  9  2 13  9  7 26  5 12 24  4
  22736820.387    13837662.857 5   6811191.013 2
  20492478.502   -18503050.084 8 -16012404.097 7
  21267352.218   -28188795.976 7 -16915638.494 7
  22188051.012     4121946.934 7    778215.246 6
  24699841.406    -2891602.325 3   3671048.920 2
  23560891.095   -28597645.872 6  -5510343.990 2
  21938154.182   -18198168.185 7 -13984933.992 5
  22209799.276   -17577466.455 7 -13697573.850 5
  20865943.998   -29197262.691 7 -17731141.207 7
 94  2  2  4 21 30.0000000  0  9  2 13  9  7 26  5 12 24  4
  22749162.572    13902509.188 5   6861720.604 2
  20495935.319   -18484892.328 8 -15998255.209 7
  21259869.579   -28228116.984 7 -16946278.263 7
  22201477.067     4192510.362 7    833199.709 6
  24714213.006    -2816047.861 3   3729922.578 2
  23545731.999   -28677276.806 6  -5572394.030 2
  21924931.206   -18267656.991 7 -14039081.112 5
  22192549.278   -17668142.131 7 -13768230.197 5
  20858947.201   -29234025.626 7 -17759787.637 7
 94  2  2  4 22  0.0000000  0  9  2 13  9  7 26  5 12 24  4
  22761548.408    13967599.530 5   6912440.362 2
  20499475.209   -18466281.004 8 -15983752.832 7
  21252486.979   -28266922.312 7 -16976516.153 7
  22214926.357     4263194.625 7    888278.404 6
  24728595.340    -2740522.488 4   3788773.519 2
  23530583.876   -28756902.683 6  -5634440.128 2
  21911766.090   -18336834.290 7 -14092985.459 5
  22175351.863   -17758516.223 7 -13838651.539 5
  20852054.313   -29270245.648 7 -17788010.995 8
 94  2  2  4 22 30.0000000  0  8  2 13  9  7  5 12 24  4
  22773972.287    14032907.319 5   6963329.493 2
  20503100.929   -18447230.198 8 -15968908.084 7
  21245201.453   -28305205.451 7 -17006347.203 8
  22228395.972     4333973.304 7    943430.592 6
  23515426.759   -28836516.635 6  -5696476.948 2
  21898660.663   -18405709.562 7 -14146654.519 6
  22158212.099   -17848587.841 7 -13908837.229 5
  20845263.235   -29305936.339 7 -17815821.938 8
 94  2  2  4 23  0.0000000  0  8  2 13  9  7  5 12 24  4
  22786440.206    14098422.368 5   7014380.188 2
  20506805.524   -18427749.589 8 -15953728.336 7
  21238012.400   -28342983.514 7 -17035784.619 8
  22241874.761     4404816.579 7    998633.185 6
  23500279.295   -28916120.240 6  -5758505.685 2
  21885610.487   -18474287.990 8 -14200092.231 6
  22141127.257   -17938356.592 7 -13978786.853 5
  20838572.347   -29341105.349 7 -17843226.305 8
 94  2  2  4 23 30.0000000  0  8  2 13  9  7  5 12 24  4
  22798948.806    14164139.448 5   7065588.258 2
  20510593.312   -18407852.319 8 -15938223.999 7
  21230919.250   -28380266.420 7 -17064836.268 8
  22255364.881     4475693.437 7   1053861.846 6
  23485133.121   -28995731.093 6  -5820540.110 2
  21872614.094   -18542578.019 8 -14253305.271 6
  22124094.158   -18027854.069 7 -14048525.177 5
  20831975.144   -29375765.233 7 -17870234.037 8
 94  2  2  4 24  0.0000000  0  8  2 13  9  7  5 12 24  4
  22811486.277    14230043.968 5   7116942.400 2
  20514459.375   -18387544.584 8 -15922399.792 7
  21223914.090   -28417057.517 7 -17093504.672 8
  22268857.101     4546595.780 7   1109110.400 6
  23469980.081   -29075358.387 5  -5882587.363 2
  21859674.422   -18610581.644 8 -14306295.105 6
  22107112.325   -18117101.052 7 -14118068.261 5
  20825478.821   -29409917.537 8 -17896846.220 8
 94  2  2  4 24 30.0000000  0  8  2 13  9  7  5 12 24  4
  22824064.429    14296131.011 5   7168438.778 2
  20518400.087   -18366828.066 8 -15906257.038 7
  21217001.476   -28453375.861 7 -17121804.690 8
  22282357.535     4617534.338 7   1164387.219 6
  23454823.983   -29155018.712 6  -5944660.291 2
  21846788.353   -18678295.810 8 -14359059.389 6
  22090180.376   -18206090.828 7 -14187410.921 5
  20819075.284   -29443567.356 8 -17923066.839 8
 94  2  2  4 25  0.0000000  0  8  2 13  9  7  5 12 24  4
  22836676.188    14362405.275 5   7220081.033 2
  20522420.574   -18345706.433 8 -15889798.629 7
  21210180.987   -28489244.918 8 -17149754.598 8
  22295864.954     4688511.817 7   1219694.356 6
  23439650.618   -29234735.572 6  -6006777.345 2
  21833958.465   -18745719.684 8 -14411597.475 6
  22073289.739   -18294837.839 7 -14256564.418 5
  20812765.462   -29476703.429 7 -17948887.148 8
 94  2  2  4 25 30.0000000  0  8  2 13  9  7  5 12 24  4
  22849320.355    14428871.399 5   7271872.772 2
  20526516.428   -18324180.673 8 -15873025.303 7
  21203443.002   -28524661.046 8 -17177351.596 8
  22309376.240     4759535.110 6   1275037.172 6
  23424468.258   -29314504.135 6  -6068934.634 2
  21821185.658   -18812849.556 8 -14463906.459 6
  22056450.487   -18383330.065 7 -14325519.401 5
  20806555.142   -29509331.008 8 -17974311.231 8
 94  2  2  4 26  0.0000000  0  8  2 13  9  7  5 12 24  4
  22862008.831    14495534.904 5   7323818.326 2
  20530689.479   -18302253.970 8 -15855939.553 7
  21196784.491   -28559632.109 8 -17204601.785 8
  22322901.137     4830612.288 6   1330421.988 6
  23409278.194   -29394332.639 6  -6131138.654 2
  21808466.333   -18879684.205 8 -14515985.413 6
  22039663.998   -18471544.688 7 -14394258.054 5
  20800447.740   -29541455.032 8 -17999342.935 8
 94  2  2  4 26 30.0000000  0  8  2 13  9  7  5 12 24  4
  22874736.070    14562402.525 5   7375922.915 2
  20534934.810   -18279927.148 8 -15838542.031 7
  21190217.837   -28594152.723 8 -17231500.960 8
  22336444.082     4901749.967 7   1385853.917 6
  23394079.226   -29474210.331 6  -6193381.004 3
  21795805.378   -18946219.619 8 -14567831.182 6
  22022931.712   -18559473.415 7 -14462773.923 5
  20794427.937   -29573072.859 8 -18023980.185 8
 94  2  2  4 27  0.0000000  0  8  2 13  9  7  5 12 24  4
  22887499.194    14629482.564 5   7428193.108 2
  20539263.424   -18257201.946 8 -15820834.072 7
  21183737.314   -28628200.521 7 -17258031.708 8
  22349988.195     4972943.089 7   1441329.104 6
  23378875.851   -29554111.092 6  -6255641.325 3
  21783202.103   -19012453.295 8 -14619441.828 6
  22006254.497   -18647118.345 7 -14531068.659 5
  20788509.494   -29604182.824 8 -18048221.697 8
 94  2  2  4 27 30.0000000  0  8  2 13  9  7  5 12 24  4
  22900306.867    14696779.801 5   7480632.452 2
  20543663.987   -18234078.607 8 -15802815.892 7
  21177353.803   -28661752.661 8 -17284176.249 8
  22363548.557     5044207.267 6   1496859.587 6
  23363669.748   -29634018.129 6  -6317906.520 3
  21770655.729   -19078380.406 8 -14670813.623 6
  21989632.774   -18734465.724 7 -14599131.555 5
  20782685.156   -29634786.389 8 -18072068.631 8
 94  2  2  4 28  0.0000000  0  8  2 13  9  7  5 12 24  4
  22913149.856    14764291.473 5   7533238.895 2
  20548138.600   -18210555.369 8 -15784486.106 7
  21171063.498   -28694797.376 8 -17309925.398 8
  22377128.047     5115556.912 6   1552456.716 6
  23348460.257   -29713934.810 6  -6380179.234 3
  21758169.942   -19143994.749 8 -14721941.688 6
  21973066.752   -18821523.218 7 -14666968.561 5
  20776958.671   -29664873.093 8 -18095512.803 8
 94  2  2  4 28 30.0000000  0  8  2 13  9  7  5 12 24  4
  22926037.724    14832010.189 5   7586006.718 2
  20552691.848   -18186631.073 8 -15765843.776 7
  21164874.252   -28727323.196 8 -17335270.187 8
  22390717.609     5186981.486 6   1608112.226 5
  23333254.094   -29793860.075 6  -6442458.638 3
  21745743.305   -19209290.758 8 -14772821.680 6
  21956556.222   -18908297.466 7 -14734584.834 5
  20771337.442   -29694429.830 8 -18118544.015 8
 94  2  2  4 29  0.0000000  0  8  2 13  9  7  5 12 24  4
  22938964.745    14899944.061 5   7638942.212 2
  20557319.984   -18162308.022 8 -15746890.751 7
  21158786.877   -28759321.514 8 -17360203.924 8
  22404323.779     5258467.921 7   1663815.958 5
  23318043.644   -29873805.806 6  -6504753.989 3
  21733377.916   -19274265.837 8 -14823451.600 6
  21940094.319   -18994781.744 7 -14801975.159 5
  20765814.306   -29723450.379 8 -18141157.401 8
 94  2  2  4 29 30.0000000  0  8  2 13  9  7  5 12 24  4
  22951937.994    14968092.605 5   7692044.969 2
  20562023.667   -18137584.884 8 -15727625.920 7
  21152795.225   -28790798.624 8 -17384731.521 8
  22417936.396     5330009.149 7   1719562.404 6
  23302821.952   -29953783.902 6  -6567074.525 3
  21721077.431   -19338913.942 8 -14873826.703 6
  21923697.170   -19080964.278 7 -14869130.309 6
  20760395.407   -29751915.894 7 -18163338.274 8
 94  2  2  4 30  0.0000000  0  8  2 13  9  7  5 12 24  4
  22964946.558    15036448.002 5   7745308.881 2
  20566804.248   -18112464.274 8 -15708051.413 7
  21146905.922   -28821758.929 8 -17408856.431 8
  22431557.796     5401584.030 6   1775335.033 6
  23287595.943   -30033790.977 6  -6629417.717 3
  21708835.916   -19403233.459 8 -14923945.806 6
  21907358.092   -19166842.567 7 -14936048.452 6
  20755088.301   -29779810.106 7 -18185074.005 8
 94  2  2  4 30 30.0000000  0  8  2 13  9  7  5 12 24  4
  22977984.832    15105010.836 5   7798734.412 2
  20571658.397   -18086948.284 8 -15688168.818 7
  21141114.021   -28852192.107 7 -17432570.600 8
  22445182.553     5473179.288 6   1831123.510 6
  23272362.888   -30113817.861 6  -6691776.303 3
  21696660.235   -19467221.500 8 -14973806.624 6
  21891072.496   -19252405.470 7 -15002720.821 6
  20749889.780   -29807123.103 7 -18206356.856 8
 94  2  2  4 31  0.0000000  0  8  2 13  9  7  5 12 24  4
  22991076.739    15173782.152 5   7852322.440 2
  20576591.692   -18061038.831 8 -15667979.639 7
  21135421.382   -28882103.670 8 -17455878.334 8
  22458810.909     5544806.986 6   1886937.296 5
  23257137.839   -30193855.343 6  -6754143.160 3
  21684546.551   -19530875.470 8 -15023407.115 7
  21874852.465   -19337648.191 7 -15069143.709 6
  20744804.131   -29833864.003 7 -18227193.909 8
 94  2  2  4 31 30.0000000  0  8  2 13  9  7  5 12 24  4
  23004193.858    15242746.187 5   7906060.616 2
  20581598.466   -18034736.166 8 -15647484.041 7
  21129827.525   -28911500.745 8 -17478785.159 8
  22472453.294     5616481.190 7   1942787.344 5
  23241902.865   -30273894.477 6  -6816511.304 3
  21672497.502   -19594190.651 8 -15072743.629 7
  21858692.572   -19422572.815 7 -15135318.747 6
  20739821.520   -29860040.671 7 -18247591.306 8
 94  2  2  4 32  0.0000000  0  8  2 13  9  7  5 12 24  4
  23017356.246    15311901.061 5   7959947.504 2
  20586675.691   -18008042.656 8 -15626683.908 7
  21124331.310   -28940384.718 8 -17501292.145 8
  22486101.556     5688210.264 7   1998680.112 5
  23226672.179   -30353933.008 6  -6878878.963 3
  21660515.157   -19657165.014 8 -15121814.554 7
  21842591.948   -19507185.468 7 -15201250.654 6
  20734944.077   -29885673.012 7 -18267564.557 9
 94  2  2  4 32 30.0000000  0  8  2 13  9  7  5 12 24  4
  23030553.560    15381260.561 5   8013993.824 2
  20591830.293   -17980958.795 8 -15605579.600 7
  21118931.658   -28968757.240 8 -17523400.610 8
  22499760.790     5760001.760 7   2054621.549 5
  23211444.102   -30433980.036 6  -6941253.281 3
  21648598.077   -19719794.398 8 -15170616.656 7
  21826544.957   -19591494.940 7 -15266946.336 6
  20730168.503   -29910778.313 7 -18287127.120 9
 94  2  2  4 33  0.0000000  0  8  2 13  9  7  5 12 24  4
  23043794.583    15450823.849 5   8068198.935 2
  20597057.204   -17953486.247 8 -15584172.406 7
  21113625.991   -28996630.284 7 -17545119.852 8
  22513435.523     5831860.486 6   2110615.339 5
  23196209.968   -30514037.444 6  -7003635.665 3
  21636746.382   -19782075.758 8 -15219147.586 7
  21810557.625   -19675507.385 7 -15332410.571 6
  20725491.531   -29935356.372 7 -18306278.843 9
 94  2  2  4 33 30.0000000  0  8  2 13  9  7  5 12 24  4
  23057080.485    15520590.922 5   8122562.835 2
  20602361.072   -17925625.696 8 -15562462.891 7
  21108421.744   -29023992.315 8 -17566440.920 8
  22527119.640     5903783.666 6   2166659.363 6
  23180964.622   -30594112.112 6  -7066031.483 3
  21624961.780   -19844005.045 8 -15267404.174 7
  21794625.785   -19759222.812 7 -15397643.365 6
  20720917.028   -29959392.054 7 -18325007.942 9
 94  2  2  4 34  0.0000000  0  8  2 13  9  7  5 12 24  4
  23070395.258    15590577.320 5   8177097.651 2
  20607732.724   -17897379.624 8 -15540452.966 7
  21103310.702   -29050845.813 8 -17587365.739 8
  22540818.026     5975757.570 6   2222742.888 6
  23165726.022   -30674206.179 6  -7128442.451 3
  21613244.512   -19905579.921 8 -15315384.596 7
  21778750.934   -19842636.106 7 -15462640.716 6
  20716444.874   -29982882.968 7 -18343312.530 9
 94  2  2  4 34 30.0000000  0  8  2 13  9  7  5 12 24  4
  23083752.870    15660787.727 5   8231807.000 2
  20613180.552   -17868750.920 8 -15518144.877 7
  21098297.603   -29077193.645 8 -17607896.521 8
  22554524.598     6047778.225 6   2278862.870 6
  23150487.271   -30754321.368 6  -7190869.871 3
  21601594.787   -19966798.639 8 -15363087.499 7
  21762943.478   -19925732.239 7 -15527390.938 6
  20712077.677   -30005828.290 7 -18361192.002 9
 94  2  2  4 35  0.0000000  0  8  2 13  9  7  5 12 24  4
  23097152.214    15731218.634 5   8286688.220 2
  20618702.070   -17839741.152 8 -15495539.849 7
  21093377.738   -29103044.183 7 -17628039.792 8
  22568240.282     6119840.770 6   2335015.496 5
  23135236.259   -30834445.369 6  -7253304.135 3
  21590014.164   -20027658.234 8 -15410510.547 7
  21747192.682   -20008494.057 7 -15591880.634 6
  20707817.416   -30028228.396 8 -18378646.611 9
 94  2  2  4 35 30.0000000  0  8  2 13  9  7  5 12 24  4
  23110603.392    15801881.197 5   8341749.858 2
  20624296.916   -17810351.538 8 -15472638.893 7
  21088558.275   -29128390.474 8 -17647790.199 8
  22581957.256     6191940.679 6   2391197.189 5
  23119993.282   -30914569.093 6  -7315738.222 3
  21578502.104   -20088155.051 8 -15457650.975 7
  21731512.427   -20090905.726 7 -15656097.545 6
  20703656.627   -30050086.194 7 -18395678.699 9
 94  2  2  4 36  0.0000000  0  8  2 13  9  7  5 12 24  4
  23124094.742    15872780.477 5   8396996.002 2
  20629961.375   -17780585.330 8 -15449444.432 7
  21083828.539   -29153226.013 8 -17667142.582 8
  22595682.055     6264073.533 6   2447404.614 5
  23104747.486   -30994682.040 6  -7378163.888 3
  21567059.895   -20148287.789 8 -15504507.652 7
  21715896.598   -20172959.766 7 -15720035.749 6
  20699594.619   -30071411.216 7 -18412295.594 9
 94  2  2  4 36 30.0000000  0  8  2 13  9  7  5 12 24  4
  23137625.065    15943905.189 5   8452417.831 2
  20635696.465   -17750445.886 8 -15425959.144 7
  21079203.371   -29177537.037 7 -17686086.229 8
  22609417.346     6336249.884 6   2503645.907 5
  23089497.973   -31074784.637 6  -7440581.457 3
  21555684.540   -20208055.236 8 -15551079.679 7
  21700347.592   -20254663.515 7 -15783700.977 6
  20695645.063   -30092189.003 8 -18428486.054 9
 94  2  2  4 37  0.0000000  0  8  2 13  9  7  5 12 24  4
  23151199.158    16015254.147 5   8508014.388 2
  20641500.147   -17719932.765 8 -15402182.676 7
  21074681.092   -29201302.155 8 -17704604.505 8
  22623159.503     6408463.808 6   2559916.494 5
  23074265.638   -31154869.398 6  -7502985.180 3
  21544381.405   -20267451.896 8 -15597362.808 7
  21684865.980   -20336031.257 7 -15847104.412 6
  20691798.966   -30112394.587 7 -18444230.654 9
 94  2  2  4 37 30.0000000  0  8  2 13  9  7  5 12 24  4
  23164824.576    16086821.928 5   8563781.440 2
  20647379.557   -17689048.200 8 -15378116.781 7
  21070266.648   -29224503.146 8 -17722683.204 8
  22636908.165     6480720.016 6   2616220.028 5
  23059022.001   -31234944.609 6  -7565381.426 3
  21533149.891   -20326475.631 8 -15643355.296 7
  21669442.047   -20417063.084 7 -15910246.088 6
  20688060.824   -30132024.378 7 -18459526.590 9
 94  2  2  4 38  0.0000000  0  8  2 13  9  7  5 12 24  4
  23178479.582    16158598.198 5   8619711.028 2
  20653325.280   -17657791.496 8 -15353760.860 7
  21065954.313   -29247147.350 8 -17740328.005 8
  22650668.039     6553018.588 6   2672556.603 5
  23043788.677   -31315016.690 6  -7627775.217 3
  21521989.307   -20385120.659 8 -15689052.682 7
  21654084.669   -20497762.574 7 -15973128.744 6
  20684438.851   -30151079.124 7 -18474374.391 9
 94  2  2  4 38 30.0000000  0  8  2 13  9  7  5 12 24  4
  23192179.768    16230574.752 5   8675796.551 2
  20659344.663   -17626164.001 8 -15329116.087 7
  21061752.062   -29269241.488 8 -17757544.252 8
  22664436.727     6625361.536 6   2728927.675 5
  23028551.396   -31395090.188 6  -7690170.158 3
  21510905.230   -20443383.797 8 -15734452.566 7
  21638794.115   -20578123.898 7 -16035747.977 6
  20680922.106   -30169559.243 7 -18488774.520 9
 94  2  2  4 39  0.0000000  0  8  2 13  9  7  5 12 24  4
  23205911.762    16302745.185 5   8732033.229 2
  20665431.410   -17594169.532 8 -15304185.331 7
  21057650.152   -29290794.569 7 -17774338.885 8
  22678210.721     6697742.651 6   2785328.548 5
  23013315.643   -31475153.076 6  -7752556.831 3
  21499888.967   -20501264.387 8 -15779554.327 7
  21623573.921   -20658127.995 7 -16098088.818 6
  20677506.420   -30187491.752 8 -18502747.902 9
 94  2  2  4 39 30.0000000  0  8  2 13  9  7  5 12 24  4
  23219678.381    16375095.828 5   8788410.353 2
  20671593.464   -17561809.345 8 -15278969.573 7
  21053646.993   -29311815.913 7 -17790719.122 8
  22691994.309     6770173.311 6   2841768.007 5
  22998079.231   -31555208.342 6  -7814937.526 3
  21488949.840   -20558758.657 8 -15824355.048 7
  21608416.864   -20737760.779 7 -16160140.314 6
  20674197.251   -30204906.275 7 -18516317.627 9
 94  2  2  4 40  0.0000000  0  8  2 13  9  7  5 12 24  4
  23233478.727    16447625.202 5   8844926.695 2
  20677818.084   -17529084.810 8 -15253469.954 7
  21049751.730   -29332310.166 7 -17806688.709 8
  22705782.154     6842647.717 6   2898241.555 5
  22982849.444   -31635249.915 6  -7877307.603 3
  21478081.943   -20615863.390 8 -15868852.258 7
  21593335.145   -20817018.630 7 -16221899.694 6
  20670980.508   -30221799.284 7 -18529481.028 9
 94  2  2  4 40 30.0000000  0  8  2 13  9  7  5 12 24  4
  23247325.422    16520347.968 5   8901593.783 2
  20684116.424   -17495997.775 8 -15227687.828 7
  21045952.520   -29352269.041 7 -17822241.030 8
  22719584.179     6915170.734 6   2954753.022 5
  22967619.928   -31715264.674 6  -7939656.702 3
  21467288.246   -20672575.735 8 -15913043.649 7
  21578323.667   -20895895.721 7 -16283362.310 7
  20667863.985   -30238167.255 7 -18542235.258 9
 94  2  2  4 41  0.0000000  0  8  2 13  9  7  5 12 24  4
  23261196.339    16593276.846 5   8958421.408 2
  20690478.560   -17462551.128 8 -15201625.525 7
  21042256.589   -29371694.626 7 -17837377.889 8
  22733395.528     6987730.358 6   3011292.973 5
  22952401.623   -31795255.122 6  -8001986.950 3
  21456572.914   -20728893.825 8 -15956927.914 7
  21563390.016   -20974397.510 7 -16344532.547 7
  20664849.662   -30254010.323 7 -18554580.528 9
 94  2  2  4 41 30.0000000  0  8  2 13  9  7  5 12 24  4
  23275117.082    16666429.822 5   9015423.766 2
  20696912.466   -17428745.956 8 -15175283.785 7
  21038664.596   -29390571.021 8 -17852086.734 8
  22747208.555     7060326.931 6   3067861.773 4
  22937181.730   -31875226.690 6  -8064302.397 3
  21445930.791   -20784814.291 8 -16000502.258 7
  21548520.220   -21052521.348 7 -16405408.209 7
  20661939.247   -30269308.915 7 -18566501.466 9
 94  2  2  4 42  0.0000000  0  8  2 13  9  7  5 12 24  4
  23289084.292    16739831.333 5   9072619.675 2
  20703413.045   -17394584.966 8 -15148664.875 7
  21035177.919   -29408896.850 7 -17866366.658 8
  22761026.319     7132955.288 6   3124455.250 5
  22921970.740   -31955165.546 6  -8126592.469 3
  21435367.274   -20840334.959 8 -16043765.157 7
  21533726.152   -21130269.915 7 -16465991.535 7
  20659140.595   -30284032.608 7 -18577974.499 9
 94  2  2  4 42 30.0000000  0  8  2 13  9  7  5 12 24  4
  23303102.918    16813487.007 5   9130013.684 2
  20709980.419   -17360071.503 8 -15121771.242 7
  21031789.935   -29426680.773 7 -17880224.235 8
  22774852.208     7205619.479 6   3181076.684 5
  22906763.737   -32035070.144 6  -8188855.728 3
  21424878.136   -20895454.509 8 -16086715.432 7
  21519004.723   -21207644.069 7 -16526283.044 7
  20656445.790   -30298187.311 7 -18589004.113 9
 94  2  2  4 43  0.0000000  0  8  2 13  9  7  5 12 24  4
  23317160.995    16887382.962 5   9187594.885 2
  20716614.406   -17325207.304 8 -15094604.348 7
  21028514.163   -29443919.942 7 -17893657.393 8
  22788689.219     7278320.634 6   3237726.908 5
  22891566.628   -32114943.533 6  -8251094.760 3
  21414464.665   -20950169.775 8 -16129350.738 7
  21504351.078   -21284638.184 7 -16586278.462 7
  20653859.151   -30311766.883 7 -18599585.617 9
 94  2  2  4 43 30.0000000  0  8  2 13  9  7  5 12 24  4
  23331272.946    16961513.284 5   9245358.766 2
  20723317.166   -17289992.081 8 -15067163.880 7
  21025332.435   -29460620.808 7 -17906670.997 8
  22802532.675     7351075.389 6   3294418.967 5
  22876373.326   -32194777.666 6  -8313303.156 3
  21404130.489   -21004476.060 8 -16171667.255 7
  21489773.010   -21361255.804 7 -16645980.448 7
  20651391.829   -30324753.139 8 -18609704.720 9
 94  2  2  4 44  0.0000000  0  8  2 13  9  7  5 12 24  4
  23345422.820    17035867.154 5   9303296.805 2
  20730084.111   -17254429.513 8 -15039452.777 7
  21022253.117   -29476810.523 7 -17919286.377 8
  22816388.213     7423880.236 6   3351150.017 5
  22861186.860   -32274585.098 6  -8375490.716 3
  21393876.418   -21058372.314 8 -16213664.352 7
  21475258.708   -21437508.815 7 -16705398.382 7
  20649033.542   -30337145.801 8 -18619361.324 9
 94  2  2  4 44 30.0000000  0  8  2 13  9  7  5 12 24  4
  23359615.505    17110429.655 5   9361397.433 2
  20736915.092   -17218521.622 8 -15011472.611 7
  21019273.810   -29492476.551 7 -17931493.674 8
  22830249.387     7496727.009 6   3407913.731 5
  22846002.012   -32354384.238 6  -8437671.889 3
  21383698.224   -21111855.783 8 -16255339.767 8
  21460824.780   -21513380.841 7 -16764519.427 7
  20646787.137   -30348954.209 8 -18628562.679 9
 94  2  2  4 45  0.0000000  0  8  2 13  9  7  5 12 24  4
  23373845.394    17185200.067 5   9419660.047 2
  20743815.206   -17182270.340 8 -14983224.850 7
  21016392.204   -29507601.495 7 -17943279.343 8
  22844118.956     7569611.173 6   3464706.571 5
  22830817.314   -32434178.661 6  -8499849.354 4
  21373601.484   -21164923.792 8 -16296691.456 8
  21446457.197   -21588868.229 7 -16823340.754 7
  20644652.464   -30360157.892 8 -18637292.820 9
 94  2  2  4 45 30.0000000  0  8  2 13  9  7  5 12 24  4
  23388105.651    17260179.317 5   9478085.410 2
  20750779.264   -17145676.694 8 -14954710.323 7
  21013617.295   -29522182.198 7 -17954640.961 8
  22857991.941     7642527.924 6   3521524.791 5
  22815636.783   -32513968.667 6  -8562023.348 4
  21363580.771   -21217572.722 8 -16337716.597 8
  21432168.429   -21663966.091 7 -16881858.550 7
  20642633.932   -30370755.907 8 -18645550.996 9
 94  2  2  4 46  0.0000000  0  8  2 13  9  7  5 12 24  4
  23402415.105    17335356.646 5   9536665.101 2
  20757806.789   -17108744.760 8 -14925932.186 7
  21010949.862   -29536205.170 7 -17965567.953 8
  22871870.054     7715451.861 6   3578348.635 5
  22800450.137   -32593758.466 6  -8624197.246 4
  21353641.182   -21269801.917 8 -16378414.670 8
  21417955.178   -21738658.492 7 -16940060.413 7
  20640732.079   -30380770.900 8 -18653354.873 9
 94  2  2  4 46 30.0000000  0  8  2 13  9  7  5 12 24  4
  23416758.855    17410731.722 5   9595398.886 2
  20764899.789   -17071475.060 8 -14896890.854 7
  21008393.532   -29549651.214 7 -17976045.387 8
  22885752.573     7788383.338 6   3635178.348 5
  22785268.557   -32673532.428 6  -8686358.752 4
  21343785.775   -21321607.455 8 -16418782.628 8
  21403816.516   -21812944.685 7 -16997945.745 7
  20638932.784   -30390217.234 8 -18660715.651 9
 94  2  2  4 47  0.0000000  0  8  2 13  9  7  5 12 24  4
  23431136.362    17486303.372 5   9654285.831 2
  20772052.747   -17033868.835 8 -14867587.298 7
  21005945.007   -29562528.284 8 -17986079.492 8
  22899629.846     7861335.217 6   3692023.982 4
  22770098.129   -32753268.446 6  -8748490.709 4
  21334006.425   -21372985.661 8 -16458817.579 8
  21389755.980   -21886838.779 7 -17055525.545 7
  20637239.646   -30399101.705 7 -18667638.600 9
 94  2  2  4 47 30.0000000  0  8  2 13  9  7  5 12 24  4
  23445558.028    17562064.001 5   9713320.074 2
  20779273.278   -16995928.619 8 -14838023.499 7
  21003596.163   -29574845.878 7 -17995677.621 8
  22913518.092     7934302.686 6   3748881.739 4
  22754931.629   -32832963.084 6  -8810590.416 4
  21324314.045   -21423934.492 8 -16498517.976 8
  21375764.756   -21960344.076 7 -17112802.402 7
  20635649.697   -30407456.175 7 -18674148.568 9
 94  2  2  4 48  0.0000000  0  8  2 13  9  7  5 12 24  4
  23460008.054    17638022.538 5   9772508.513 2
  20786557.576   -16957656.707 8 -14808201.235 7
  21001360.131   -29586602.235 7 -18004838.418 8
  22927407.986     8007289.067 6   3805754.230 4
  22739774.931   -32912606.679 6  -8872650.341 4
  21314700.390   -21474451.573 8 -16537881.930 8
  21361856.065   -22033457.310 7 -17169773.733 7
  20634158.289   -30415293.365 7 -18680255.466 9
 94  2  2  4 48 30.0000000  0  8  2 13  9  7  5 12 24  4
  23474508.056    17714188.909 5   9831858.886 2
  20793903.030   -16919055.036 8 -14778122.001 7
  20999229.716   -29597805.426 7 -18013568.197 9
  22941302.647     8080313.461 6   3862656.352 4
  22724630.016   -32992188.031 6  -8934661.777 4
  21305168.039   -21524534.275 8 -16576907.415 8
  21348019.114   -22106176.533 7 -17226438.042 7
  20632770.071   -30422601.337 8 -18685949.968 9
 94  2  2  4 49  0.0000000  0  8  2 13  9  7  5 12 24  4
  23489035.669    17790567.455 5   9891374.625 2
  20801311.502   -16880124.503 8 -14747786.526 7
  20997201.200   -29608467.238 7 -18021876.101 9
  22955207.141     8153377.374 6   3919589.260 5
  22709505.996   -33071701.254 6  -8996620.135 4
  21295719.001   -21574178.837 8 -16615591.498 8
  21334255.342   -22178496.288 7 -17282791.086 7
  20631483.091   -30429368.319 8 -18691222.935 9
 94  2  2  4 49 30.0000000  0  8  2 13  9  7  5 12 24  4
  23503615.715    17867172.964 5   9951067.172 2
  20808783.559   -16840869.777 8 -14717198.424 7
  20995273.145   -29618592.632 7 -18029766.017 9
  22969113.853     8226469.518 6   3976544.152 4
  22694378.978   -33151160.359 6  -9058536.317 4
  21286358.101   -21623385.434 8 -16653934.290 8
  21320567.988   -22250412.229 7 -17338829.475 7
  20630297.112   -30435589.677 8 -18696070.749 9
 94  2  2  4 50  0.0000000  0  8  2 13  9  7  5 12 24  4
  23518226.611    17944020.898 4  10010948.656 2
  20816313.326   -16801290.802 8 -14686357.670 7
  20993447.978   -29628176.633 7 -18037234.090 9
  22983027.131     8299602.809 6   4033531.146 4
  22679267.310   -33230568.578 6  -9120412.832 4
  21277077.066   -21672149.310 8 -16691932.121 8
  21306963.346   -22321922.946 7 -17394552.098 7
  20629223.945   -30441241.440 8 -18700474.708 9
 94  2  2  4 50 30.0000000  0  8  2 13  9  7  5 12 24  4
  23532904.749    18021110.337 5  10071018.291 2
  20823906.470   -16761387.265 8 -14655264.008 7
  20991729.748   -29637208.742 7 -18044272.108 9
  22996957.198     8372781.815 6   4090553.729 4
  22664169.822   -33309932.159 6  -9182254.587 4
  21267882.701   -21720465.717 8 -16729581.277 8
  21293428.676   -22393040.627 7 -17449968.471 7
  20628257.774   -30446308.220 8 -18704422.852 9
 94  2  2  4 51  0.0000000  0  8  2 13  9  7  5 12 24  4
  23547619.103    18098445.031 5  10131279.077 2
  20831561.160   -16721161.002 8 -14623918.871 7
  20990121.601   -29645662.401 7 -18050859.376 9
  23010891.941     8445996.573 6   4147604.178 4
  22649072.184   -33389259.577 6  -9244068.160 4
  21258775.096   -21768331.659 8 -16766879.418 8
  21279971.562   -22463764.067 7 -17505077.622 7
  20627407.803   -30450784.212 8 -18707910.618 9
 94  2  2  4 51 30.0000000  0  8  2 13  9  7  5 12 24  4
  23562389.517    18176022.826 5  10191729.232 2
  20839279.077   -16680614.380 8 -14592324.100 7
  20988625.907   -29653516.393 7 -18056979.380 9
  23024826.384     8519240.650 6   4204677.475 4
  22633976.644   -33468554.911 6  -9305856.714 4
  21249755.420   -21815745.087 8 -16803824.938 8
  21266591.375   -22534072.881 7 -17559863.709 7
  20626665.996   -30454668.492 7 -18710937.328 9
 94  2  2  4 52  0.0000000  0  8  2 13  9  7  5 12 24  4
  23577187.962    18253826.473 5  10252355.412 2
  20847052.246   -16639753.813 8 -14560484.700 7
  20987248.780   -29660764.558 7 -18062627.308 8
  23038771.500     8592512.205 6   4261772.183 4
  22618901.011   -33547803.297 6  -9367608.709 4
  21240817.108   -21862707.641 8 -16840419.148 8
  21253292.162   -22603955.931 7 -17614318.035 7
  20626037.002   -30457972.157 7 -18713511.611 9
 94  2  2  4 52 30.0000000  0  8  2 13  9  7  5 12 24  4
  23592038.272    18331856.905 4  10313158.324 2
  20854887.742   -16598577.910 8 -14528399.564 7
  20985985.305   -29667411.812 7 -18067806.983 8
  23052716.646     8665803.706 6   4318882.443 4
  22603833.172   -33626987.050 7  -9429310.331 5
  21231965.196   -21909213.714 8 -16876657.640 8
  21240078.360   -22673389.986 7 -17668422.472 7
  20625522.378   -30460695.007 8 -18715633.291 9
 94  2  2  4 53  0.0000000  0  8  2 13  9  7  5 12 24  4
  23606934.629    18410110.742 5  10374135.303 2
  20862781.547   -16557090.974 8 -14496072.098 7
  20984826.067   -29673483.926 7 -18072538.522 8
  23066669.497     8739109.500 6   4376003.840 4
  22588778.194   -33706102.481 7  -9490958.706 4
  21223205.680   -21955262.744 8 -16912540.010 8
  21226955.275   -22742355.547 7 -17722161.866 7
  20625112.112   -30462846.501 8 -18717309.787 9
 94  2  2  4 53 30.0000000  0  8  2 13  9  7  5 12 24  4
  23621864.114    18488576.266 5  10435277.232 2
  20870738.219   -16515294.669 8 -14463503.541 7
  20983774.815   -29679016.029 7 -18076849.236 8
  23080617.341     8812441.655 6   4433145.743 4
  22573737.427   -33785147.122 7  -9552551.915 5
  21214527.948   -22000851.944 8 -16948064.052 8
  21213920.718   -22810862.016 7 -17775543.511 7
  20624808.212   -30464436.446 7 -18718548.684 9
 94  2  2  4 54  0.0000000  0  8  2 13  9  7  5 12 24  4
  23636826.875    18567242.591 5  10496575.610 2
  20878746.545   -16473193.386 8 -14430697.339 7
  20982820.456   -29684030.179 7 -18080756.383 8
  23094583.023     8885798.211 6   4490306.718 4
  22558707.152   -33864128.902 7  -9614096.162 5
  21205939.074   -22045981.275 8 -16983229.771 8
  21200967.376   -22878934.840 7 -17828587.247 7
  20624611.279   -30465467.573 8 -18719352.169 9
 94  2  2  4 54 30.0000000  0  8  2 13  9  7  5 12 24  4
  23651836.554    18646101.589 5  10558024.158 2
  20886817.077   -16430785.887 8 -14397652.529 7
  20981960.921   -29688531.924 7 -18084264.240 8
  23108544.118     8959180.705 6   4547487.875 4
  22543686.531   -33943059.765 7  -9675600.730 5
  21197440.917   -22090644.862 8 -17018032.572 8
  21188093.448   -22946595.878 7 -17881310.121 7
  20624525.628   -30465928.766 8 -18719711.520 9
 94  2  2  4 55  0.0000000  0  8  2 13  9  7  5 12 24  4
  23666881.429    18725140.438 5  10619612.821 2
  20894943.821   -16388076.484 8 -14364372.480 7
  20981207.482   -29692512.139 7 -18087365.720 8
  23122515.586     9032589.816 6   4604689.745 4
  22528678.231   -34021943.994 6  -9737068.962 5
  21189029.580   -22134842.551 8 -17052472.328 8
  21175289.612   -23013871.275 7 -17933732.493 7
  20624546.134   -30465820.234 8 -18719626.957 9
 94  2  2  4 55 30.0000000  0  8  2 13  9  7  5 12 24  4
  23681958.741    18804361.726 5  10681343.614 2
  20903130.644   -16345065.384 8 -14330857.330 7
  20980555.104   -29695946.790 7 -18090042.080 8
  23136489.122     9106026.150 6   4661912.857 4
  22513675.297   -34100772.282 7  -9798493.589 5
  21180709.680   -22178570.296 8 -17086545.893 8
  21162558.176   -23080769.037 7 -17985860.604 7
  20624673.935   -30465130.043 8 -18719089.130 9
 94  2  2  4 56  0.0000000  0  8  2 13  9  7  5 12 24  4
  23697067.232    18883775.571 5  10743224.455 2
  20911372.028   -16301755.560 8 -14297109.413 7
  20980006.394   -29698810.472 7 -18092273.526 8
  23150468.594     9179479.506 6   4719149.245 4
  22498684.984   -34179534.910 7  -9859867.044 5
  21172478.578   -22221826.391 8 -17120251.942 8
  21149901.748   -23147282.344 7 -18037689.135 8
  20624919.315   -30463850.883 8 -18718092.368 9
 94  2  2  4 56 30.0000000  0  8  2 13  9  7  5 12 24  4
  23712220.811    18963391.282 5  10805262.645 2
  20919670.194   -16258150.911 8 -14263131.771 7
  20979573.853   -29701096.431 7 -18094054.812 8
  23164450.704     9252952.225 6   4776400.724 4
  22483712.989   -34258226.165 7  -9921184.892 5
  21164336.844   -22264610.302 8 -17153590.056 8
  21137318.889   -23213388.541 7 -18089200.452 8
  20625273.850   -30461986.567 8 -18716639.644 9
 94  2  2  4 57  0.0000000  0  8  2 13  9  7  5 12 24  4
  23727417.351    19043229.750 5  10867474.420 2
  20928023.911   -16214250.943 8 -14228924.004 7
  20979249.598   -29702798.519 7 -18095381.107 8
  23178433.384     9326447.512 6   4833669.792 4
  22468753.226   -34336841.328 7  -9982443.445 5
  21156285.438   -22306916.967 8 -17186556.288 8
  21124825.638   -23279053.919 7 -18140368.262 8
  20625739.098   -30459538.225 8 -18714731.843 9
 94  2  2  4 57 30.0000000  0  8  2 13  9  7  5 12 24  4
  23742642.641    19123291.756 4  10929860.349 2
  20936433.539   -16170057.440 8 -14194487.501 7
  20979035.906   -29703925.073 7 -18096258.960 8
  23192425.238     9399957.591 6   4890950.323 4
  22453806.953   -34415390.231 7 -10043650.382 5
  21148326.308   -22348743.793 8 -17219148.626 8
  21112417.857   -23344253.921 7 -18191173.445 8
  20626313.710   -30456521.914 8 -18712381.466 9
 94  2  2  4 58  0.0000000  0  8  2 13  9  7  5 12 24  4
  23757921.413    19203572.830 4  10992417.034 2
  20944895.511   -16125571.571 8 -14159823.182 7
  20978927.890   -29704491.512 7 -18096700.360 8
  23206412.025     9473480.171 6   4948240.663 4
  22438868.834   -34493881.038 7 -10104812.042 5
  21140459.814   -22390087.584 8 -17251364.558 9
  21100105.741   -23408974.251 7 -18241604.870 8
  20626995.018   -30452955.100 8 -18709602.122 9
 94  2  2  4 58 30.0000000  0  8  2 13  9  7  5 12 24  4
  23773245.275    19284069.018 5  11055141.275 2
  20953420.379   -16080797.100 8 -14124933.994 7
  20978924.323   -29704515.076 7 -18096718.739 8
  23220406.067     9547009.520 6   5005536.231 4
  22423944.746   -34572319.316 7 -10165932.779 5
  21132680.949   -22430947.723 8 -17283203.630 8
  21087883.892   -23473198.223 7 -18291649.510 8
  20627770.761   -30448850.547 8 -18706403.777 9
 94  2  2  4 59  0.0000000  0  8  2 13  9  7  5 12 24  4
  23788596.447    19364775.079 5  11118029.034 2
  20961993.424   -16035735.740 8 -14089821.241 7
  20979022.265   -29703988.922 7 -18096308.746 9
  23234400.379     9620540.139 6   5062832.816 4
  22409025.664   -34650699.442 7 -10227008.185 5
  21125000.866   -22471321.577 8 -17314663.771 9
  21075750.721   -23536940.402 7 -18341318.721 8
  20628662.134   -30444201.150 8 -18702780.863 9
 94  2  2  4 59 30.0000000  0  8  2 13  9  7  5 12 24  4
  23803993.039    19445682.207 4  11181073.557 2
  20970622.890   -15990389.467 8 -14054486.493 7
  20979229.572   -29702905.136 7 -18095464.258 9
  23248391.933     9694071.860 6   5120130.262 4
  22394124.001   -34729017.318 7 -10288035.128 5
  21117411.650   -22511206.666 8 -17345743.071 9
  21063710.697   -23600217.891 7 -18390625.861 8
  20629649.111   -30439002.508 8 -18698729.966 9
 94  2  2  4 59 59.9990000  0  8  2 13  9  7  5 12 24  4
  23819424.795    19526801.477 4  11244283.273 2
  20979305.149   -15944761.938 8 -14018932.577 7
  20979545.313   -29701252.317 7 -18094176.351 9
  23262385.106     9767612.183 6   5177434.382 4
  22379236.367   -34807256.097 7 -10349000.396 5
  21109913.871   -22550599.529 8 -17376438.817 9
  21051755.543   -23663039.112 7 -18439577.439 8
  20630742.484   -30433235.949 8 -18694236.542 9
 94  2  2  5  0 29.9990000  0  8  2 13  9  7  5 12 24  4
  23834904.579    19608148.821 4  11307670.777 2
  20988042.810   -15898849.922 8 -13983156.968 7
  20979969.040   -29699012.214 7 -18092430.819 9
  23276381.127     9841170.433 5   5234752.526 3
  22364361.715   -34885417.296 7 -10409905.212 5
  21102512.924   -22589498.196 8 -17406749.462 9
  21039887.809   -23725416.028 7 -18488182.824 8
  20631954.035   -30426883.484 8 -18689286.572 9
 94  2  2  5  0 59.9990000  0  8  2 13  9  7  5 12 24  4
  23850436.077    19689717.398 4  11371230.679 2
  20996832.216   -15852657.918 8 -13947163.201 7
  20980505.878   -29696172.837 7 -18090218.337 9
  23290387.340     9914753.683 5   5292090.109 3
  22349507.778   -34963499.233 7 -10470748.264 5
  21095205.393   -22627900.117 8 -17436673.036 9
  21028098.350   -23787368.286 7 -18536457.292 8
  20633275.221   -30419936.512 8 -18683873.350 9
 94  2  2  5  1 29.9990000  0  8  2 13  9  7  5 12 24  4
  23865991.018    19771509.938 4  11434965.100 2
  21005672.975   -15806190.675 8 -13910954.967 7
  20981163.323   -29692750.906 7 -18087551.907 9
  23304392.865     9988360.905 5   5349446.365 3
  22334663.404   -35041498.437 7 -10531526.851 5
  21087990.918   -22665805.543 8 -17466209.730 9
  21016392.714   -23848885.567 7 -18584392.820 8
  20634710.447   -30412413.788 8 -18678011.474 9
 94  2  2  5  1 59.9990000  0  8  2 13  9  7  5 12 24  4
  23881605.648    19853533.486 4  11498879.482 2
  21014569.796   -15759448.769 8 -13874532.695 7
  20981924.586   -29688755.060 7 -18084438.265 9
  23318403.155    10061989.871 6   5406819.550 3
  22319835.999   -35119398.918 7 -10592228.521 5
  21080872.975   -22703211.083 8 -17495356.902 9
  21004769.221   -23909946.942 7 -18631973.098 8
  20636246.764   -30404321.106 8 -18671705.479 9
 94  2  2  5  2 29.9990000  0  8  2 13  9  7  5 12 24  4
  23897251.097    19935774.264 4  11562963.210 2
  21023515.603   -15712434.062 8 -13837897.863 7
  20982791.915   -29684190.389 7 -18080881.404 8
  23332416.714    10135634.658 6   5464205.113 3
  22305031.168   -35197199.356 7 -10652852.205 5
  21073851.746   -22740113.975 8 -17524112.404 9
  20993235.156   -23970551.363 7 -18679197.319 8
  20637895.113   -30395668.757 8 -18664963.378 9
 94  2  2  5  2 59.9990000  0  8  2 13  9  7  5 12 24  4
  23912949.879    20018216.247 4  11627203.663 2
  21032513.154   -15665150.621 8 -13801053.617 7
  20983764.952   -29679074.063 7 -18076894.650 8
  23346433.480    10209297.752 6   5521604.929 3
  22290251.730   -35274889.399 7 -10713389.901 5
  21066924.202   -22776514.055 8 -17552476.120 9
  20981794.416   -24030691.560 7 -18726059.800 8
  20639647.429   -30386467.065 8 -18657793.237 9
 94  2  2  5  3 29.9990000  0  8  2 13  9  7  5 12 24  4
  23928664.041    20100852.403 4  11691595.401 2
  21041563.079   -15617599.214 8 -13764000.581 7
  20984842.916   -29673412.266 7 -18072482.895 8
  23360459.420    10282972.728 6   5579013.974 3
  22275488.630   -35352463.907 7 -10773837.557 5
  21060091.662   -22812408.082 8 -17580445.481 9
  20970440.736   -24090352.413 7 -18772548.766 8
  20641501.676   -30376723.937 8 -18650201.185 9
 94  2  2  5  3 59.9990000  0  8  2 13  9  7  5 12 24  4
  23944431.835    20183677.223 4  11756134.159 2
  21050661.480   -15569782.433 8 -13726740.786 7
  20986027.965   -29667189.336 7 -18067633.911 8
  23374480.564    10356665.414 6   5636436.815 3
  22260745.886   -35429932.604 7 -10834202.808 5
  21053357.814   -22847794.431 8 -17608019.309 9
  20959177.503   -24149542.394 7 -18818670.856 8
  20643459.740   -30366427.749 8 -18642178.220 9
 94  2  2  5  4 29.9990000  0  8  2 13  9  7  5 12 24  4
  23960235.394    20266676.722 4  11820809.088 2
  21059811.236   -15521701.863 8 -13689275.367 7
  20987320.670   -29660401.589 7 -18062344.714 8
  23388501.557    10430375.933 5   5693873.585 3
  22246020.920   -35507312.726 7 -10894498.941 5
  21046723.646   -22882670.431 8 -17635195.377 9
  20948000.131   -24208272.993 7 -18864434.901 8
  20645524.021   -30355573.843 8 -18633720.592 9
 94  2  2  5  4 59.9990000  0  8  2 13  9  7  5 12 24  4
  23976050.975    20349855.457 4  11885623.657 2
  21069009.468   -15473361.356 8 -13651607.429 7
  20988719.742   -29653043.200 7 -18056610.927 8
  23402534.453    10504102.728 5   5751323.039 3
  22231307.706   -35584611.874 7 -10954732.048 5
  21040181.695   -22917035.729 8 -17661973.535 9
  20936915.095   -24266536.567 7 -18909835.083 8
  20647699.555   -30344162.179 8 -18624828.380 9
 94  2  2  5  5 29.9990000  0  8  2 13  9  7  5 12 24  4
  23991913.774    20433241.380 4  11950599.617 2
  21078258.455   -15424759.776 8 -13613736.073 7
  20990229.287   -29645099.640 7 -18050421.141 8
  23416566.089    10577844.312 5   5808783.982 3
  22216615.357   -35661827.617 7 -11014900.165 5
  21033741.524   -22950884.983 8 -17688349.584 9
  20925914.181   -24324339.806 7 -18954876.569 8
  20649973.990   -30332183.234 8 -18615494.128 9
 94  2  2  5  5 59.9990000  0  8  2 13  9  7  5 12 24  4
  24007825.109    20516846.872 4  12015746.707 2
  21087555.079   -15375900.099 8 -13575663.587 7
  20991852.813   -29636568.514 7 -18043773.523 9
  23430604.260    10651594.282 5   5866251.496 3
  22201938.808   -35738960.178 7 -11075003.440 5
  21027400.673   -22984217.025 8 -17714322.609 9
  20915004.314   -24381685.579 7 -18999561.565 8
  20652367.204   -30319622.459 8 -18605706.500 9
 94  2  2  5  6 29.9990000  0  8  2 13  9  7  5 12 24  4
  24023785.310    20600672.864 4  12081065.628 2
  21096903.717   -15326782.505 8 -13537390.138 7
  20993585.823   -29627462.582 7 -18036677.999 8
  23444643.961    10725350.420 5   5923723.807 3
  22187278.687   -35816000.580 7 -11135034.917 6
  21021157.316   -23017028.026 8 -17739889.622 9
  20904176.680   -24438570.609 7 -19043887.536 8
  20654867.863   -30306475.845 8 -18595462.386 9
 94  2  2  5  6 59.9990000  0  8  2 13  9  7  5 12 24  4
  24039784.933    20684736.486 4  12146569.722 2
  21106298.973   -15277411.438 8 -13498919.180 7
  20995427.448   -29617789.152 7 -18029140.276 8
  23458675.957    10799125.165 5   5981210.611 3
  22172637.393   -35892935.458 7 -11194984.177 6
  21015009.382   -23049318.207 8 -17765050.812 9
  20893444.200   -24494986.209 7 -19087847.747 8
  20657480.254   -30292747.490 8 -18584764.966 9
 94  2  2  5  7 29.9990000  0  8  2 13  9  7  5 12 24  4
  24055818.973    20769024.259 4  12212248.431 1
  21115741.057   -15227789.520 8 -13460252.768 6
  20997371.092   -29607561.962 7 -18021171.049 8
  23472719.584    10872913.401 5   6038707.891 3
  22158019.842   -35969758.917 7 -11254846.601 6
  21008966.225   -23081086.280 8 -17789805.143 9
  20882795.482   -24550929.079 7 -19131439.584 8
  20660204.018   -30278437.229 8 -18573614.107 9
 94  2  2  5  7 59.9990000  0  8  2 13  9  7  5 12 24  4
  24071901.669    20853517.290 4  12278087.162 1
  21125231.616   -15177918.628 8 -13421392.318 6
  20999421.163   -29596785.841 7 -18012774.073 8
  23486759.765    10946710.819 5   6096212.387 3
  22143418.630   -36046476.568 7 -11314626.561 6
  21003022.780   -23112329.852 8 -17814150.791 9
  20872242.547   -24606384.661 7 -19174651.707 8
  20663036.038   -30263553.477 8 -18562016.378 9
 94  2  2  5  8 29.9990000  0  8  2 13  9  7  5 12 24  4
  24088017.163    20938209.670 4  12344081.159 1
  21134767.115   -15127801.110 8 -13382339.705 6
  21001578.500   -29585463.768 7 -18003951.699 8
  23500805.971    11020521.878 5   6153727.479 3
  22128840.413   -36123079.025 7 -11374316.794 6
  20997175.238   -23143047.317 8 -17838086.496 9
  20861783.088   -24661349.615 7 -19217481.514 8
  20665972.745   -30248121.477 8 -18549991.426 9
 94  2  2  5  8 59.9990000  0  8  2 13  9  7  5 12 24  4
  24104166.473    21023095.395 4  12410225.870 1
  21144350.521   -15077440.584 8 -13343097.738 6
  21003840.194   -29573591.830 7 -17994700.862 8
  23514856.254    11094335.155 5   6211244.319 3
  22114289.986   -36199572.529 7 -11433922.109 6
  20991432.234   -23173238.352 8 -17861611.968 9
  20851419.353   -24715809.580 7 -19259917.824 8
  20669011.801   -30232154.957 8 -18537549.975 9
 94  2  2  5  9 29.9990000  0  8  2 13  9  7  5 12 24  4
  24120349.510    21108165.552 4  12476514.221 1
  21153979.675   -15026839.163 8 -13303668.066 6
  21006201.629   -29561159.615 7 -17985013.438 8
  23528899.222    11168132.148 5   6268748.462 3
  22099750.561   -36275959.999 7 -11493444.820 6
  20985787.741   -23202901.098 8 -17884725.817 9
  20841151.461   -24769778.380 7 -19301971.413 8
  20672150.088   -30215658.619 8 -18524695.692 9
 94  2  2  5  9 59.9990000  0  8  2 13  9  7  5 12 24  4
  24136580.993    21193433.894 4  12542957.018 1
  21163655.506   -14975999.073 8 -13264052.405 6
  21008680.253   -29548159.821 7 -17974883.739 8
  23542942.880    11241918.883 5   6326244.605 3
  22085236.199   -36352232.034 7 -11552877.556 6
  20980243.320   -23232033.636 8 -17907426.492 9
  20830971.948   -24823255.758 7 -19343642.082 8
  20675387.667   -30198635.110 8 -18511430.615 9
 94  2  2  5 10 29.9990000  0  8  2 13  9  7  5 12 24  4
  24152853.727    21278899.784 4  12609553.715 1
  21173375.887   -14924921.474 8 -13224251.725 6
  21011257.719   -29534593.510 7 -17964312.646 8
  23556973.646    11315705.147 5   6383740.376 3
  22070744.442   -36428377.593 7 -11612211.784 6
  20974800.018   -23260633.317 8 -17929712.008 9
  20820891.876   -24876241.365 7 -19384929.595 8
  20678730.143   -30181083.907 8 -18497754.392 9
 94  2  2  5 10 59.9990000  0  8  2 13  9  7  5 12 24  4
  24169147.597    21364552.691 4  12676296.297 1
  21183141.686   -14873610.635 8 -13184269.205 6
  21013943.590   -29520461.470 7 -17953300.634 8
  23571013.407    11389495.657 5   6441239.492 3
  22056279.575   -36504402.170 7 -11671451.657 6
  20969459.575   -23288700.514 8 -17951582.511 9
  20810902.132   -24928742.565 7 -19425839.561 8
  20682171.760   -30162994.781 8 -18483658.916 9
 94  2  2  5 11 29.9990000  0  8  2 13  9  7  5 12 24  4
  24185486.766    21450400.348 4  12743190.504 1
  21192945.229   -14822066.659 8 -13144105.064 6
  21016747.788   -29505755.620 7 -17941841.538 8
  23585061.052    11463305.833 5   6498753.893 3
  22041838.543   -36580293.860 7 -11730588.040 6
  20964219.203   -23316231.400 8 -17973035.147 9
  20800999.268   -24980768.679 7 -19466379.378 8
  20685717.406   -30144364.554 8 -18469141.838 9
 94  2  2  5 11 59.9990000  0  8  2 13  9  7  5 12 24  4
  24201851.147    21536437.657 4  12810232.533 1
  21202796.739   -14770291.452 8 -13103760.734 6
  21019649.869   -29490473.391 7 -17929933.311 8
  23599117.301    11537137.854 5   6556285.319 3
  22027419.455   -36656053.557 7 -11789621.574 6
  20959081.930   -23343224.003 8 -17994068.348 9
  20791193.416   -25032302.225 7 -19506535.373 8
  20689364.921   -30125185.506 8 -18454197.141 9
 94  2  2  5 12 29.9990000  0  8  2 13  9  7  5 12 24  4
  24218263.525    21622657.097 4  12877416.395 1
  21212696.036   -14718286.138 8 -13063237.161 6
  21022667.100   -29474621.267 7 -17917581.070 8
  23613171.601    11610985.815 5   6613829.110 3
  22013029.567   -36731687.301 7 -11848556.997 6
  20954050.453   -23369675.639 8 -18014680.054 9
  20781481.730   -25083351.100 7 -19546313.747 8
  20693121.440   -30105456.293 8 -18438823.746 9
 94  2  2  5 12 59.9990000  0  8  2 13  9  7  5 12 24  4
  24234694.340    21709068.861 4  12944750.251 1
  21222635.565   -14666053.966 8 -13022536.724 6
  21025796.424   -29458194.909 7 -17904781.298 8
  23627224.553    11684841.254 5   6671378.857 3
  21998657.636   -36807206.307 7 -11907402.931 6
  20949118.927   -23395585.692 8 -18034869.670 9
  20771856.683   -25133917.387 7 -19585715.989 8
  20696981.118   -30085167.957 8 -18423014.615 9
 94  2  2  5 13 29.9990000  0  8  2 13  9  7  5 12 24  4
  24251189.701    21795692.325 4  13012249.001 1
  21232616.316   -14613594.250 8 -12981659.066 6
  21029031.604   -29441188.885 7 -17891529.894 8
  23641281.252    11758699.019 5   6728930.304 3
  21984307.680   -36882610.428 7 -11966159.422 6
  20944294.067   -23420949.565 8 -18054633.781 9
  20762327.210   -25183988.089 7 -19624732.149 8
  20700949.471   -30064313.898 8 -18406764.740 9
 94  2  2  5 13 59.9990000  0  8  2 13  9  7  5 12 24  4
  24267710.214    21882522.769 4  13079909.049 1
  21242645.153   -14560908.137 8 -12940604.918 6
  21032375.100   -29423612.590 7 -17877834.069 8
  23655336.961    11832560.304 5   6786484.607 3
  21969985.306   -36957896.928 7 -12024824.193 6
  20939571.256   -23445765.030 8 -18073970.486 9
  20752894.630   -25233563.479 7 -19663362.288 8
  20705027.368   -30042887.849 8 -18390069.092 9
 94  2  2  5 14 29.9990000  0  8  2 13  9  7  5 12 24  4
  24284280.852    21969561.912 4  13147731.729 1
  21252712.213   -14507997.328 8 -12899375.696 6
  21035826.280   -29405483.758 7 -17863707.695 8
  23669387.484    11906442.942 5   6844055.494 3
  21955680.679   -37033061.601 7 -12083394.038 6
  20934952.624   -23470029.758 8 -18092878.051 9
  20743551.988   -25282656.059 7 -19701616.218 8
  20709213.280   -30020894.951 8 -18372931.736 9
 94  2  2  5 14 59.9990000  0  8  2 13  9  7  5 12 24  4
  24300866.750    22056814.505 4  13215720.689 1
  21262822.444   -14454864.820 8 -12857973.746 6
  21039382.569   -29386795.249 7 -17849145.236 8
  23683454.855    11980353.429 5   6901648.059 3
  21941397.966   -37108106.412 7 -12141870.532 6
  20930441.467   -23493743.012 8 -18111355.912 9
  20734303.840   -25331251.194 7 -19739482.551 8
  20713504.030   -29998342.251 8 -18355358.206 9
 94  2  2  5 15 29.9990000  0  8  2 13  9  7  5 12 24  4
  24317522.380    22144274.179 4  13283871.125 1
  21272976.805   -14401512.132 8 -12816400.223 6
  21043045.493   -29367545.613 7 -17834145.540 8
  23697526.664    12054288.304 5   6959259.644 3
  21927144.064   -37183013.396 7 -12200239.575 6
  20926032.839   -23516902.538 8 -18129402.293 9
  20725152.945   -25379345.501 7 -19776958.618 8
  20717898.687   -29975243.940 8 -18337359.530 9
 94  2  2  5 15 59.9990000  0  8  2 13  9  7  5 12 24  4
  24334195.607    22231927.833 4  13352172.544 1
  21283169.868   -14347940.511 8 -12774656.107 6
  21046812.835   -29347750.465 7 -17818720.769 8
  23711598.772    12128241.264 5   7016885.341 3
  21912917.353   -37257775.120 7 -12258495.473 6
  20921731.357   -23539506.062 8 -18147015.437 9
  20716099.783   -25426937.165 7 -19814043.035 8
  20722395.874   -29951599.449 8 -18318935.251 9
 94  2  2  5 16 29.9990000  0  8  2 13  9  7  5 12 24  4
  24350910.715    22319770.416 4  13420621.273 1
  21293404.992   -14294154.932 8 -12732745.288 6
  21050683.695   -29327408.043 7 -17802869.559 8
  23725667.192    12202191.346 5   7074508.718 3
  21898719.062   -37332392.329 7 -12316638.780 6
  20917532.883   -23561554.799 8 -18164196.305 9
  20707137.817   -25474018.222 7 -19850729.592 8
  20727000.806   -29927416.182 8 -18300091.172 9
 94  2  2  5 16 59.9990000  0  8  2 13  9  7  5 12 24  4
  24367678.137    22407802.347 4  13489217.579 1
  21303682.567   -14240154.575 8 -12690667.080 6
  21054663.800   -29306499.028 7 -17786576.815 8
  23739737.382    12276119.541 5   7132115.105 3
  21884548.532   -37406856.197 7 -12374662.553 6
  20913448.421   -23583044.513 8 -18180941.529 9
  20698280.748   -25520567.927 7 -19887002.054 8
  20731703.231   -29902695.269 8 -18280828.098 9
 94  2  2  5 17 29.9990000  0  8  2 13  9  7  5 12 24  4
  24384455.573    22496013.109 4  13557953.124 1
  21313997.676   -14185941.673 8 -12648423.267 6
  21058745.684   -29285037.964 7 -17769853.896 8
  23753806.012    12350018.348 5   7189698.613 3
  21870408.791   -37481163.105 7 -12432564.016 6
  20909460.762   -23603973.484 8 -18197249.826 9
  20689520.873   -25566596.326 7 -19922868.326 8
  20736513.460   -29877433.126 8 -18261143.295 9
 94  2  2  5 17 59.9990000  0  7 13  9  7  5 12 24  4
  21324355.386   -14131520.980 8 -12606017.526 6
  21062933.934   -29263036.729 7 -17752710.100 8
  23767860.013    12423892.908 5   7247263.167 2
  21856292.823   -37555327.858 7 -12490354.733 6
  20905588.822   -23624343.239 8 -18213122.353 9
  20680860.198   -25612111.990 7 -19958335.061 9
  20741421.243   -29851624.540 8 -18241032.727 9
 94  2  2  5 18 29.9990000  0  7 13  9  7  5 12 24  4
  21334747.272   -14076895.505 8 -12563452.215 6
  21067225.943   -29240476.080 7 -17735130.380 8
  23781912.784    12497751.167 5   7304815.049 2
  21842210.492   -37629355.688 7 -12548038.747 6
  20901817.523   -23644153.241 8 -18228558.728 9
  20672292.610   -25657117.181 7 -19993404.028 9
  20746434.822   -29825288.856 8 -18220511.400 9
 94  2  2  5 18 59.9990000  0  7 13  9  7  5 12 24  4
  21345183.227   -14022064.902 8 -12520727.089 6
  21071625.667   -29217363.814 7 -17717120.830 8
  23795972.991    12571609.714 5   7362367.138 2
  21828147.738   -37703244.091 7 -12605614.114 6
  20898156.517   -23663399.494 8 -18243555.815 9
  20663827.460   -25701610.372 7 -20028074.047 9
  20751546.134   -29798428.887 8 -18199581.550 9
 94  2  2  5 19 29.9990000  0  7 13  9  7  5 12 24  4
  21355653.299   -13967030.377 8 -12477843.033 6
  21076126.511   -29193708.871 7 -17698688.418 8
  23810025.133    12645486.344 5   7419933.356 2
  21814111.635   -37776992.973 7 -12663080.779 6
  20894601.338   -23682079.705 8 -18258111.818 9
  20655456.805   -25745605.420 7 -20062355.889 9
  20756757.666   -29771044.788 8 -18178243.293 9
 94  2  2  5 19 59.9990000  0  7 13  9  7  5 12 24  4
  21366166.151   -13911795.098 8 -12434802.555 6
  21080731.743   -29169494.643 7 -17679820.199 8
  23824091.095    12719390.447 5   7477520.975 2
  21800106.410   -37850593.503 7 -12720431.849 6
  20891153.126   -23700193.659 8 -18272226.591 9
  20647179.805   -25789096.568 7 -20096245.086 9
  20762066.870   -29743141.773 8 -18156500.682 9
 94  2  2  5 20 29.9990000  0  7 13  9  7  5 12 24  4
  21376713.629   -13856361.621 8 -12391607.651 6
  21085446.339   -29144727.848 7 -17660521.400 8
  23838160.265    12793325.628 5   7535132.768 2
  21786131.915   -37924027.062 7 -12777652.780 6
  20887815.776   -23717740.454 8 -18285899.437 9
  20639001.317   -25832074.757 7 -20129734.582 9
  20767476.205   -29714718.159 8 -18134352.405 9
 94  2  2  5 20 59.9990000  0  7 13  9  7  5 12 24  4
  21387301.639   -13800732.092 8 -12348259.961 6
  21090262.655   -29119421.348 7 -17640802.055 8
  23852233.542    12867286.276 5   7592764.435 2
  21772191.356   -37997289.887 7 -12834740.675 6
  20884584.493   -23734718.861 8 -18299129.358 9
  20630921.910   -25874542.391 7 -20162826.229 9
  20772983.962   -29685765.348 8 -18111791.775 9
 94  2  2  5 21 29.9990000  0  7 13  9  7  5 12 24  4
  21397925.085   -13744909.135 8 -12304761.553 6
  21095183.059   -29093563.098 7 -17620652.790 8
  23866307.749    12941259.703 5   7650406.030 2
  21758279.846   -38070395.634 7 -12891706.189 6
  20881459.067   -23751128.141 7 -18311915.823 9
  20622931.452   -25916507.499 7 -20195526.307 9
  20778596.197   -29656272.900 8 -18088810.648 9
 94  2  2  5 21 59.9990000  0  7 13  9  7  5 12 24  4
  21408584.805   -13688893.091 8 -12261112.687 6
  21100206.231   -29067148.602 7 -17600070.082 8
  23880380.666    13015228.980 5   7708044.400 2
  21744400.145   -38143338.120 7 -12948544.489 6
  20878448.761   -23766965.316 7 -18324256.476 9
  20615049.039   -25957951.500 7 -20227820.332 9
  20784313.539   -29626226.408 8 -18065397.797 9
 94  2  2  5 22 29.9990000  0  7 13  9  7  5 12 24  4
  21419277.263   -13632685.843 8 -12217314.834 6
  21105338.588   -29040184.785 7 -17579059.332 8
  23894456.702    13089178.492 5   7765667.383 2
  21730549.883   -38216125.102 7 -13005261.612 6
  20875543.412   -23782228.853 8 -18336150.144 9
  20607261.510   -25998870.469 7 -20259705.213 9
  20790138.866   -29595630.828 8 -18041557.066 9
 94  2  2  5 22 59.9990000  0  7 13  9  7  5 12 24  4
  21430011.452   -13576292.253 8 -12173371.762 6
  21110581.958   -29012659.608 7 -17557611.169 8
  23908525.332    13163096.224 5   7823265.608 2
  21716725.644   -38288768.491 7 -13061866.841 6
  20872748.027   -23796920.367 7 -18347598.095 9
  20599574.501   -26039268.861 7 -20291184.487 9
  20796057.459   -29564499.238 8 -18017298.694 9
 94  2  2  5 23 29.9990000  0  7 13  9  7  5 12 24  4
  21440779.547   -13519713.136 8 -12129284.157 6
  21115921.951   -28984572.521 7 -17535725.129 8
  23922596.421    13236994.839 5   7880848.988 2
  21702930.574   -38361254.497 7 -13118349.433 7
  20870060.328   -23811037.554 7 -18358598.499 9
  20591988.403   -26079138.876 7 -20322251.996 9
  20802089.163   -29532827.876 8 -17992619.688 9
 94  2  2  5 23 59.9990000  0  7 13  9  7  5 12 24  4
  21451578.221   -13462949.691 8 -12085052.906 6
  21121375.116   -28955936.204 7 -17513411.138 8
  23936648.743    13310887.052 5   7938427.304 2
  21689172.678   -38433561.488 8 -13174692.540 7
  20867481.993   -23824578.484 7 -18369149.883 9
  20584503.605   -26118476.006 7 -20352904.299 9
  20808215.272   -29500632.589 8 -17967532.466 9
 94  2  2  5 24 29.9990000  0  7 13  9  7  5 12 24  4
  21462415.089   -13406005.742 8 -12040680.988 6
  21126927.393   -28926759.969 7 -17490676.421 8
  23950710.568    13384776.920 5   7996003.759 2
  21675448.869   -38505688.644 7 -13230895.528 7
  20865017.849   -23837543.562 8 -18379252.557 9
  20577113.870   -26157297.889 7 -20383155.101 9
  20814434.677   -29467941.791 8 -17942059.117 9
 94  2  2  5 24 59.9990000  0  7 13  9  7  5 12 24  4
  21473284.335   -13348879.373 8 -11996166.933 6
  21132581.089   -28897049.716 7 -17467525.581 8
  23964768.676    13458675.761 5   8053587.271 2
  21661757.857   -38577623.900 7 -13286948.973 6
  20862661.300   -23849927.834 8 -18388902.639 9
  20569822.858   -26195605.473 7 -20413005.162 9
  20820753.942   -29434745.187 8 -17916191.637 9
 94  2  2  5 25 29.9990000  0  7 13  9  7  5 12 24  4
  21484189.915   -13291577.750 8 -11951516.313 6
  21138328.919   -28866826.898 7 -17443975.356 8
  23978829.842    13532576.902 5   8111172.572 2
  21648106.088   -38649371.475 7 -13342856.157 7
  20860416.874   -23861735.275 8 -18398103.246 9
  20562631.167   -26233402.995 7 -20442457.771 9
  20827165.453   -29401042.931 8 -17889930.129 9
 94  2  2  5 25 59.9990000  0  7 13  9  7  5 12 24  4
  21495127.453   -13234103.447 8 -11906731.148 6
  21144180.628   -28836085.128 7 -17420020.741 8
  23992893.256    13606468.865 5   8168750.720 2
  21634487.266   -38720933.512 7 -13398618.791 7
  20858276.805   -23872965.398 8 -18406854.004 9
  20555536.668   -26270688.915 7 -20471511.728 9
  20833674.367   -29366838.999 8 -17863277.718 9
 94  2  2  5 26 29.9990000  0  7 13  9  7  5 12 24  4
  21506094.431   -13176456.651 8 -11861811.579 6
  21150132.978   -28804813.817 7 -17395653.490 8
  24006954.062    13680354.358 5   8226323.789 2
  21620906.128   -38792315.466 8 -13454241.079 7
  20856250.658   -23883615.429 8 -18415152.747 9
  20548538.643   -26307457.931 7 -20500162.895 9
  20840281.433   -29332121.541 8 -17836225.159 9
 94  2  2  5 26 59.9990000  0  7 13  9  7  5 12 24  4
  21517097.383   -13118641.844 8 -11816761.076 6
  21156182.729   -28773015.050 7 -17370875.246 8
  24021014.328    13754238.435 5   8283895.797 2
  21607353.710   -38863527.999 8 -13509731.362 7
  20854332.166   -23893686.635 8 -18423000.440 9
  20541639.519   -26343706.462 7 -20528408.490 9
  20846986.891   -29296879.268 8 -17808763.646 9
 94  2  2  5 27 29.9990000  0  7 13  9  7  5 12 24  4
  21528136.821   -13060658.719 8 -11771579.425 6
  21162335.850   -28740666.296 7 -17345668.439 8
  24035074.114    13828122.645 5   8341467.888 2
  21593832.621   -38934565.776 7 -13565085.474 7
  20852529.544   -23903175.806 8 -18430394.600 9
  20534841.575   -26379431.624 7 -20556246.275 9
  20853792.810   -29261114.225 8 -17780894.793 9
 94  2  2  5 27 59.9990000  0  7 13  9  7  5 12 24  4
  21539194.396   -13002509.813 8 -11726268.587 6
  21168599.174   -28707765.098 7 -17320031.151 8
  24049132.642    13902013.952 5   8399045.493 2
  21580352.723   -39005428.969 8 -13620303.518 7
  20850832.089   -23912082.387 8 -18437334.797 9
  20528145.111   -26414626.115 7 -20583670.543 9
  20860696.700   -29224834.606 8 -17752624.961 9
 94  2  2  5 28 29.9990000  0  7 13  9  7  5 12 24  4
  21550296.820   -12944198.610 8 -11680831.297 6
  21174962.628   -28674325.183 7 -17293974.098 8
  24063202.112    13975920.686 5   8456635.117 2
  21566896.119   -39076128.485 7 -13675394.066 7
  20849248.765   -23920407.023 7 -18443821.528 9
  20521546.949   -26449288.446 7 -20610680.144 9
  20867695.385   -29188054.096 8 -17723964.828 9
 94  2  2  5 28 59.9990000  0  7 13  9  7  5 12 24  4
  21561421.608   -12885725.592 8 -11635267.901 6
  21181430.711   -28640338.099 7 -17267490.664 8
  24077267.055    14049842.573 5   8514236.569 2
  21553475.789   -39146653.326 7 -13730348.473 7
  20847776.695   -23928147.379 8 -18449852.975 9
  20515056.742   -26483413.209 7 -20637270.849 9
  20874786.586   -29150782.922 8 -17694922.346 9
 94  2  2  5 29 29.9990000  0  7 13  9  7  5 12 24  4
  21572578.265   -12827092.587 8 -11589579.855 6
  21187997.604   -28605803.022 7 -17240580.226 8
  24091339.583    14123781.039 5   8571850.932 2
  21540093.504   -39216990.615 8 -13785156.746 7
  20846413.538   -23935302.453 8 -18455428.370 9
  20508665.316   -26517001.597 7 -20663443.614 9
  20881975.189   -29113022.036 8 -17665498.271 9
 94  2  2  5 29 59.9990000  0  7 13  9  7  5 12 24  4
  21583765.170   -12768303.439 8 -11543770.115 6
  21194673.743   -28570745.442 7 -17213262.642 8
  24105411.091    14197738.738 5   8629480.268 2
  21526740.538   -39287148.722 8 -13839825.409 7
  20845164.273   -23941873.027 7 -18460548.294 9
  20502373.602   -26550063.829 7 -20689206.381 9
  20889249.324   -29074785.309 8 -17635703.419 9
 94  2  2  5 30 29.9990000  0  7 13  9  7  5 12 24  4
  21594980.376   -12709359.670 8 -11497839.914 6
  21201444.316   -28535166.263 7 -17185538.630 8
  24119490.904    14271704.781 5   8687116.137 2
  21513427.744   -39357114.484 8 -13894344.182 7
  20844026.711   -23947858.056 7 -18465211.957 9
  20496177.701   -26582621.533 7 -20714576.012 9
  20896618.792   -29036059.824 8 -17605527.716 9
 94  2  2  5 30 59.9990000  0  7 13  9  7  5 12 24  4
  21606227.600   -12650262.969 8 -11451790.522 6
  21208311.841   -28499075.503 7 -17157415.970 8
  24133564.571    14345674.504 5   8744754.861 2
  21500152.274   -39426871.281 8 -13948700.106 7
  20842998.992   -23953256.367 7 -18469418.449 9
  20490077.195   -26614684.081 7 -20739559.804 9
  20904083.684   -28996832.772 8 -17574961.181 9
 94  2  2  5 31 29.9990000  0  7 13  9  7  5 12 24  4
  21617502.375   -12591015.716 8 -11405623.896 6
  21215272.423   -28462492.311 7 -17128909.647 8
  24147634.820    14419637.853 5   8802388.585 2
  21486918.026   -39496427.536 8 -14002899.841 7
  20842082.976   -23958067.411 7 -18473167.363 9
  20484071.842   -26646245.336 7 -20764153.023 9
  20911648.527   -28957096.896 8 -17543998.205 9
 94  2  2  5 31 59.9990000  0  8 20 13  9  7  5 12 24  4
  24418591.291    -4487252.91815   -224239.020
  21628805.749   -12531618.875 8 -11359340.586 6
  21222330.676   -28425409.622 7 -17100014.011 8
  24161700.962    14493580.682 5   8860006.364 2
  21473721.852   -39565782.457 8 -14056942.574 7
  20841275.815   -23962289.891 7 -18476457.578 9
  20478159.006   -26677296.784 7 -20788348.894 9
  20919303.817   -28916855.536 8 -17512641.247 9
 94  2  2  5 32 29.9990000  0  8 20 13  9  7  5 12 24  4
  24399688.087    -4586649.454 5   -301690.911 1
  21640137.604   -12472074.292 8 -11312942.228 6
  21229481.866   -28387813.523 7 -17070718.380 8
  24175767.554    14567495.671 5   8917602.463 2
  21460559.554   -39634923.416 8 -14110818.649 7
  20840587.222   -23965922.680 7 -18479288.330 9
  20472354.244   -26707812.559 7 -20812127.416 9
  20927058.459   -28876099.238 8 -17480883.111 9
 94  2  2  5 32 59.9990000  0  8 20 13  9  7  5 12 24  4
  24380775.051    -4686064.837 5   -379157.396 1
  21651495.751   -12412384.193 8 -11266430.456 6
  21236742.089   -28349682.778 7 -17041006.142 8
  24189827.161    14641373.065 5   8975169.243 2
  21447444.053   -39703852.163 8 -14164529.382 7
  20840009.552   -23968965.206 7 -18481659.159 9
  20466656.329   -26737764.792 7 -20835466.813 9
  20934909.694   -28834840.511 8 -17448733.448 9
 94  2  2  5 33 29.9990000  0  8 20 13  9  7  5 12 24  4
  24361835.033    -4785496.157 5   -456636.358 1
  21662881.839   -12352548.786 8 -11219805.479 5
  21244100.315   -28310997.981 7 -17010862.177 8
  24203888.627    14715212.728 5   9032706.600 2
  21434367.796   -39772566.800 8 -14218073.253 7
  20839542.505   -23971415.345 7 -18483568.372 9
  20461058.814   -26767159.557 7 -20858371.837 9
  20942858.271   -28793084.012 8 -17416195.920 9
 94  2  2  5 33 59.9990000  0  8 20 13  9  7  5 12 24  4
  24342907.216    -4884942.641 5   -534127.137 1
  21674294.608   -12292570.755 8 -11173069.352 6
  21251569.345   -28271764.853 7 -16980290.907 8
  24217925.629    14789028.239 5   9090225.159 2
  21421334.259   -39841051.876 8 -14271438.245 7
  20839188.150   -23973273.214 7 -18485016.069 9
  20455572.792   -26796003.571 7 -20880847.662 9
  20950896.906   -28750832.198 8 -17383272.419 9
 94  2  2  5 34 29.9990000  0  8 20 13  9  7  5 12 24  4
  24323991.391    -4984403.242 5   -611628.932 1
  21685734.149   -12232452.361 8 -11126223.886 5
  21259134.517   -28232003.907 7 -16949308.402 8
  24231971.175    14862829.186 5   9147732.297 2
  21408347.070   -39909304.785 8 -14324622.362 7
  20838949.276   -23974538.425 7 -18486001.994 9
  20450190.198   -26824299.494 7 -20902896.459 9
  20959033.663   -28708083.381 8 -17349961.681 9
 94  2  2  5 34 59.9990000  0  8 20 13  9  7  5 12 24  4
  24305057.729    -5083875.055 5   -689139.313 2
  21697199.711   -12172194.026 8 -11079269.287 5
  21266799.581   -28191735.418 7 -16917930.336 8
  24246010.336    14936628.463 5   9205238.275 2
  21395401.792   -39977339.296 8 -14377636.215 7
  20838817.337   -23975208.937 7 -18486524.419 9
  20444901.739   -26852069.541 7 -20924535.413 9
  20967259.608   -28664849.970 8 -17316273.263 9
 94  2  2  5 35 29.9990000  0  8 20 13  9  7  5 12 24  4
  24286126.614    -5183357.304 5   -766657.989 2
  21708695.493   -12111798.656 8 -11032208.018 5
  21274546.758   -28150996.545 7 -16886185.832 8
  24260063.977    15010447.550 5   9262759.550 2
  21382496.895   -40045163.747 8 -14430486.484 7
  20838803.636   -23975285.163 7 -18486583.878 9
  20439712.811   -26879337.729 7 -20945783.378 9
  20975573.213   -28621146.401 8 -17282218.583 9
 94  2  2  5 35 59.9990000  0  8 20 13  9  7  5 12 24  4
  24267199.397    -5282845.990 5   -844181.600 2
  21720216.427   -12051265.356 8 -10985039.154 5
  21282391.097   -28109786.942 7 -16854074.427 7
  24274111.053    15084281.686 5   9320292.657 2
  21369626.715   -40112791.526 8 -14483183.396 8
  20838904.966   -23974763.937 7 -18486177.691 9
  20434627.162   -26906080.495 8 -20966621.846 9
  20983978.464   -28576978.325 8 -17247801.847 9
 94  2  2  5 36 29.9990000  0  8 20 13  9  7  5 12 24  4
  24248265.675    -5382338.703 5   -921708.378 2
  21731758.617   -11990595.629 8 -10937764.064 5
  21290324.175   -28068092.871 7 -16821585.571 7
  24288165.833    15158119.300 5   9377828.425 2
  21356794.009   -40180238.922 8 -14535739.826 8
  20839115.840   -23973644.011 7 -18485305.032 9
  20429637.866   -26932299.422 7 -20987052.180 9
  20992471.135   -28532358.969 8 -17213033.530 9
 94  2  2  5 36 59.9990000  0  8 20 13  9  7  5 12 24  4
  24229328.535    -5481834.736 5   -999237.755 2
  21743330.036   -11929791.834 8 -10890384.505 5
  21298353.517   -28025890.422 7 -16788700.602 7
  24302206.493    15231954.132 4   9435362.027 2
  21343989.873   -40247504.520 8 -14588154.609 8
  20839444.413   -23971925.826 7 -18483966.229 9
  20424745.373   -26957997.793 7 -21007076.914 9
  21001046.218   -28487298.954 8 -17177921.866 9
 94  2  2  5 37 29.9990000  0  8 20 13  9  7  5 12 24  4
  24210386.628    -5581333.933 5  -1076769.532 2
  21754924.359   -11868857.300 7 -10842903.014 5
  21306486.316   -27983157.143 7 -16755401.930 7
  24316276.922    15305771.497 4   9492882.057 2
  21331227.618   -40314565.808 8 -14640410.109 8
  20839885.857   -23969610.126 7 -18482161.760 9
  20419960.506   -26983159.580 7 -21026683.456 9
  21009707.582   -28441777.634 8 -17142450.667 9
 94  2  2  5 37 59.9990000  0  8 20 13  9  7  5 12 24  4
  24191464.448    -5680834.025 5  -1154302.086 2
  21766545.064   -11807793.225 7 -10795320.662 5
  21314722.245   -27939883.270 7 -16721682.073 7
  24330309.787    15379562.042 4   9550381.143 2
  21318510.033   -40381413.407 8 -14692499.184 8
  20840439.184   -23966695.905 7 -18479890.986 9
  20415275.649   -27007767.846 7 -21045858.757 9
  21018461.762   -28395777.573 8 -17106606.514 9
 94  2  2  5 38 29.9990000  0  8 20 13  9  7  5 12 24  4
  24172527.727    -5780336.212 5  -1231836.275 2
  21778190.413   -11746604.252 7 -10747640.946 5
  21323059.533   -27896076.092 7 -16687546.624 7
  24344340.524    15453334.571 4   9607866.193 2
  21305831.210   -40448028.131 8 -14744406.765 8
  20841109.970   -23963185.543 7 -18477155.653 9
  20410694.370   -27031837.418 7 -21064614.266 9
  21027306.419   -28349298.358 8 -17070388.926 9
 94  2  2  5 38 59.9990000  0  8 20 13  9  7  5 12 24  4
  24153601.470    -5879838.646 5  -1309370.630 2
  21789856.446   -11685291.977 7 -10699865.137 5
  21331494.044   -27851748.291 7 -16653005.486 7
  24358371.350    15527093.266 4   9665340.474 2
  21293204.521   -40514390.306 8 -14796117.541 8
  20841889.190   -23959078.448 7 -18473955.332 9
  20406216.460   -27055375.441 7 -21082955.570 9
  21036244.701   -28302332.381 8 -17033792.054 9
 94  2  2  5 39 29.9990000  0  8 20 13  9  7  5 12 24  4
  24134660.672    -5979338.689 5  -1386903.108 2
  21801546.883   -11623857.247 7 -10651993.911 5
  21340023.049   -27806922.476 7 -16618076.272 7
  24372414.648    15600842.806 4   9722807.670 2
  21280625.589   -40580492.083 8 -14847625.398 8
  20842785.780   -23954373.188 7 -18470288.890 9
  20401839.281   -27078382.014 7 -21100882.745 9
  21045275.889   -28254873.495 8 -16996811.085 9
 94  2  2  5 39 59.9990000  0  8 20 13  9  7  5 12 24  4
  24115723.742    -6078835.738 5  -1464433.282 2
  21813260.824   -11562302.993 8 -10604029.574 5
  21348642.592   -27761623.434 7 -16582778.350 7
  24386448.593    15674585.717 4   9780269.617 2
  21268096.333   -40646338.095 8 -14898934.005 8
  20843795.001   -23949070.387 7 -18466156.874 9
  20397561.242   -27100864.504 7 -21118401.598 9
  21054396.145   -28206939.560 8 -16959459.994 9
 94  2  2  5 40 29.9990000  0  8 20 13  9  7  5 12 24  4
  24096801.531    -6178328.032 5  -1541959.722 2
  21824995.630   -11500630.375 8 -10555972.952 5
  21357352.043   -27715851.481 7 -16547111.863 7
  24400479.899    15748317.283 4   9837722.797 2
  21255617.412   -40711918.740 8 -14950035.769 8
  20844919.313   -23943169.600 7 -18461558.822 9
  20393378.388   -27122832.615 7 -21135519.552 9
  21063606.908   -28158531.198 8 -16921739.145 9
 94  2  2  5 40 59.9990000  0  8 20 13  9  7  5 12 24  4
  24077854.468    -6277814.179 5  -1619481.367 2
  21836753.310   -11438841.414 7 -10507825.696 5
  21366154.009   -27669613.987 7 -16511082.672 7
  24414506.979    15822033.246 4   9895163.771 2
  21243183.130   -40777245.369 8 -15000939.629 8
  20846152.779   -23936670.570 7 -18456494.648 9
  20389296.654   -27144283.615 7 -21152234.615 9
  21072909.918   -28109648.750 8 -16883648.928 9
 94  2  2  5 41 29.9990000  0  8 20 13  9  7  5 12 24  4
  24058920.986    -6377293.537 5  -1696997.739 2
  21848529.907   -11376939.146 7 -10459590.183 5
  21375041.387   -27622914.223 7 -16474693.263 7
  24428534.058    15895737.928 4   9952595.989 2
  21230799.094   -40842330.100 8 -15051655.004 8
  20847502.294   -23929574.108 7 -18450964.946 9
  20385316.249   -27165196.233 7 -21168530.149 9
  21082301.816   -28060305.168 8 -16845199.380 9
 94  2  2  5 41 59.9990000  0  8 20 13  9  7  5 12 24  4
  24039995.867    -6476765.308 5  -1774508.203 2
  21860332.617   -11314926.377 7 -10411268.541 5
  21384014.925   -27575752.096 7 -16437943.557 7
  24442561.137    15969432.759 4  10010020.490 2
  21218457.747   -40907189.182 8 -15102194.541 8
  20848967.860   -23921880.978 7 -18444970.317 9
  20381439.423   -27185572.485 7 -21184407.727 9
  21091778.286   -28010503.436 8 -16806392.834 9
 94  2  2  5 42 29.9990000  0  8 20 13  9  7  5 12 24  4
  24021069.280    -6576227.367 5  -1852011.104 2
  21872158.440   -11252804.268 7 -10362861.718 5
  21393083.227   -27528113.178 7 -16400822.349 7
  24456584.079    16043133.545 4  10067449.614 2
  21206155.284   -40971826.750 8 -15152561.481 9
  20850544.229   -23913590.545 7 -18438510.249 9
  20377663.057   -27205412.519 7 -21199867.497 9
  21101336.809   -27960248.966 8 -16767233.509 9
 94  2  2  5 42 59.9990000  0  8 20 13  9  7  5 12 24  4
  24002150.967    -6675679.026 5  -1929505.828 2
  21883995.655   -11190575.602 7 -10314371.851 5
  21402232.892   -27479996.550 7 -16363328.903 7
  24470604.503    16116855.566 4  10124895.347 2
  21193894.732   -41036249.752 8 -15202761.207 9
  20852238.206   -23904703.668 7 -18431585.407 9
  20373995.936   -27224708.887 8 -21214903.617 9
  21110985.629   -27909562.186 8 -16727737.319 9
 94  2  2  5 43 29.9990000  0  8 20 13  9  7  5 12 24  4
  23983223.780    -6775115.332 5  -2006988.694 2
  21895858.563   -11128238.932 7 -10265797.833 5
  21411485.387   -27431399.286 7 -16325460.945 7
  24484643.904    16190601.758 4  10182359.932 2
  21181683.765   -41100432.013 8 -15252773.360 9
  20854039.329   -23895216.968 7 -18424193.192 9
  20370422.020   -27243460.097 7 -21229514.949 9
  21120711.256   -27858446.775 8 -16687907.123 9
 94  2  2  5 43 59.9990000  0  8 20 13  9  7  5 12 24  4
  23964303.608    -6874534.632 5  -2084458.275 2
  21907741.826   -11065795.963 7 -10217140.958 5
  21420824.222   -27382313.167 7 -16287212.057 7
  24498669.244    16264366.603 4  10239838.983 2
  21169519.027   -41164356.900 8 -15302584.963 9
  20855959.650   -23885130.278 7 -18416333.439 9
  20366957.709   -27261681.933 7 -21243713.780 9
  21130520.915   -27806897.142 8 -16647738.582 9
 94  2  2  5 44 29.9990000  0  8 20 13  9  7  5 12 24  4
  23945400.434    -6973936.764 5  -2161914.475 2
  21919643.017   -11003249.598 7 -10168403.555 5
  21430262.108   -27332723.547 7 -16248570.798 7
  24512714.551    16338139.663 4  10297324.469 2
  21157405.253   -41228015.055 8 -15352188.713 9
  20857995.900   -23874444.784 7 -18408007.078 9
  20363593.348   -27279367.464 8 -21257494.704 9
  21140411.578   -27754924.350 7 -16607240.308 9
 94  2  2  5 44 59.9990000  0  8 20 13  9  7  5 12 24  4
  23926474.866    -7073320.906 5  -2239356.623 2
  21931563.964   -10940602.998 7 -10119588.003 5
  21439791.731   -27282635.101 7 -16209540.874 7
  24526751.613    16411892.609 4  10354794.294 2
  21145342.594   -41291405.925 8 -15401584.204 9
  20860143.313   -23863161.779 7 -18399215.154 9
  20360327.918   -27296516.734 8 -21270857.759 9
  21150384.204   -27702528.350 8 -16566412.261 9
 94  2  2  5 45 29.9990000  0  8 20 13  9  7  5 12 24  4
  23907569.804    -7172684.232 5  -2316782.605 2
  21943506.886   -10877856.606 7 -10070694.720 5
  21449422.204   -27232050.457 7 -16170124.298 7
  24540768.290    16485607.376 4  10412234.366 2
  21133329.970   -41354529.339 8 -15450771.281 9
  20862402.130   -23851279.907 7 -18389956.549 9
  20357165.558   -27313137.847 8 -21283809.263 9
  21160436.005   -27649692.876 8 -16525241.751 9
 94  2  2  5 45 59.9990000  0  8 20 13  9  7  5 12 24  4
  23888664.352    -7272025.006 5  -2394190.933 2
  21955463.059   -10815011.908 7 -10021724.836 5
  21459140.096   -27180962.527 7 -16130315.543 7
  24554805.592    16559280.249 4  10469641.774 2
  21121364.564   -41417414.850 8 -15499772.976 9
  20864778.674   -23838799.061 7 -18380231.233 9
  20354100.899   -27329233.309 8 -21296351.178 9
  21170576.725   -27596408.845 8 -16483721.731 9
 94  2  2  5 46 29.9990000  0  8 20 13  9  7  5 12 24  4
  23869768.583    -7371341.542 5  -2471580.410 2
  21967445.284   -10752070.934 7  -9972679.923 5
  21468957.700   -27129386.675 7 -16090126.585 7
  24568795.287    16632909.836 4  10527015.456 2
  21109440.139   -41480077.339 8 -15548600.889 9
  20867268.601   -23825719.569 7 -18370039.435 9
  20351139.699   -27344800.124 8 -21308481.156 9
  21180799.648   -27542681.405 8 -16441856.191 9
 94  2  2  5 46 59.9990000  0  7 20 13  9  5 12 24  4
  23850876.682    -7470632.218 5  -2548949.765 2
  21979438.092   -10689035.384 7  -9923561.304 5
  21478857.776   -27077351.661 7 -16049579.836 7
  21097560.323   -41542508.923 8 -15597248.877 9
  20869868.970   -23812041.521 7 -18359381.214 9
  20348275.662   -27359850.918 7 -21320209.038 9
  21191110.529   -27488508.119 8 -16399643.243 9
 94  2  2  5 47 29.9990000  0  7 20 13  9  5 12 24  4
  23831986.909    -7569895.785 5  -2626298.035 2
  21991449.217   -10625907.596 7  -9874370.826 5
  21488845.032   -27024869.382 7 -16008684.577 7
  21085724.517   -41604702.803 8 -15645711.641 9
  20872586.709   -23797765.510 7 -18348257.066 9
  20345511.995   -27374388.032 7 -21331536.657 9
  21201502.505   -27433889.977 8 -16357083.655 9
 94  2  2  5 47 59.9990000  0  7 20 13  9  5 12 24  4
  23813098.215    -7669130.763 5  -2703623.954 2
  22003478.179   -10562689.029 7  -9825109.617 5
  21498918.119   -26971941.098 7 -15967441.774 7
  21073936.497   -41666653.724 8 -15693985.081 9
  20875418.728   -23782891.604 7 -18336667.007 9
  20342847.140   -27388391.642 8 -21342448.544 9
  21211979.472   -27378841.271 8 -16314188.563 8
 94  2  2  5 48 29.9990000  0  7 20 13  9  5 12 24  4
  23794227.569    -7768332.770 5  -2780924.213 2
  22015530.076   -10499379.076 7  -9775777.174 5
  21509070.890   -26918578.957 7 -15925860.909 7
  21062197.224   -41728336.314 8 -15742049.446 9
  20878360.022   -23767417.323 7 -18324609.143 9
  20340283.825   -27401851.789 8 -21352936.970 9
  21222533.036   -27323373.649 8 -16270967.025 8
 94  2  2  5 48 59.9990000  0  7 20 13  9  5 12 24  4
  23775356.113    -7867501.835 5  -2858198.790 2
  22027591.026   -10435981.109 7  -9726376.158 5
  21519306.164   -26864774.753 7 -15883935.560 7
  21050514.012   -41789739.115 8 -15789895.790 9
  20881417.096   -23751345.088 7 -18312085.336 9
  20337823.788   -27414775.629 8 -21363007.487 9
  21233169.403   -27267485.861 8 -16227418.111 8
 94  2  2  5 49 29.9990000  0  7 20 13  9  5 12 24  4
  23756485.527    -7966637.292 5  -2935447.177 2
  22039672.662   -10372497.765 7  -9676908.626 5
  21529632.156   -26810521.617 7 -15841660.404 7
  21038882.815   -41850857.648 8 -15837520.603 9
  20884592.078   -23734675.942 7 -18299096.402 9
  20335466.759   -27427150.843 7 -21372650.495 9
  21243881.407   -27211180.804 8 -16183544.037 8
 94  2  2  5 49 59.9990000  0  7 20 13  9  5 12 24  4
  23737627.173    -8065736.265 5  -3012667.106 2
  22051771.027   -10308929.984 7  -9627375.294 5
  21540041.999   -26755817.573 7 -15799033.896 7
  21027307.048   -41911684.432 8 -15884918.100 9
  20887878.163   -23717409.083 7 -18285641.735 9
  20333217.776   -27438979.743 7 -21381867.823 9
  21254678.492   -27154462.473 8 -16139347.951 8
 94  2  2  5 50 29.9990000  0  7 20 13  9  5 12 24  4
  23718780.870    -8164795.865 5  -3089856.352 2
  22063881.563   -10245278.045 7  -9577776.398 5
  21550539.502   -26700662.224 7 -15756055.714 7
  21015790.341   -41972210.589 8 -15932081.345 9
  20891276.310   -23699543.839 7 -18271720.769 9
  20331066.106   -27450288.271 7 -21390679.641 9
  21265547.318   -27097337.191 8 -16094834.735 8
 94  2  2  5 50 59.9990000  0  7 20 13  9  5 12 24  4
  23699945.719    -8263813.479 5  -3167012.956 2
  22076008.287   -10181543.087 7  -9528112.781 5
  21561122.685   -26645050.588 7 -15712721.994 7
  21004328.616   -42032431.238 8 -15979006.517 9
  20894793.775   -23681079.706 7 -18257333.152 8
  20329011.808   -27461078.692 7 -21399087.764 9
  21276493.100   -27039808.536 8 -16050007.216 8
 94  2  2  5 51 29.9990000  0  7 20 13  9  5 12 24  4
  23681098.157    -8362788.185 5  -3244136.120 2
  22088152.160   -10117727.447 7  -9478386.310 4
  21571790.200   -26588990.098 7 -15669038.506 7
  20992931.046   -42092344.451 8 -16025692.148 9
  20898419.525   -23662017.843 7 -18242479.766 8
  20327058.960   -27471345.839 7 -21407088.126 9
  21287514.430   -26981885.871 8 -16004872.671 8
 94  2  2  5 51 59.9990000  0  7 20 13  9  5 12 24  4
  23662275.747    -8461718.987 5  -3321225.017 2
  22100310.364   -10053833.333 7  -9428598.693 5
  21582540.758   -26532481.977 7 -15625006.228 7
  20981586.090   -42151957.124 8 -16072143.578 9
  20902160.066   -23642359.198 7 -18227161.335 8
  20325206.812   -27481097.881 8 -21414687.107 9
  21298612.357   -26923571.731 8 -15959433.094 8
 94  2  2  5 52 29.9990000  0  7 20 13  9  5 12 24  4
  23643458.464    -8560605.582 5  -3398279.488 2
  22112486.104    -9989863.918 7  -9378752.401 4
  21593380.863   -26475527.563 7 -15580626.189 7
  20970299.564   -42211269.914 8 -16118361.338 9
  20906014.497   -23622105.823 7 -18211379.510 8
  20323445.801   -27490331.795 7 -21421882.361 9
  21309784.333   -26864856.109 8 -15913680.639 8
 94  2  2  5 52 59.9990000  0  7 20 13  9  5 12 24  4
  23624647.387    -8659443.491 5  -3475296.067 2
  22124672.578    -9925818.390 7  -9328846.828 4
  21604303.112   -26418138.023 7 -15535907.109 6
  20959070.148   -42270283.807 8 -16164346.220 9
  20909984.799   -23601255.352 7 -18195132.420 8
  20321791.007   -27499031.196 7 -21428661.137 9
  21321039.382   -26805716.122 8 -15867597.566 8
 94  2  2  5 53 29.9990000  0  7 20 13  9  5 12 24  4
  23605850.490    -8758232.496 5  -3552274.515 2
  22136873.172    -9861699.771 7  -9278884.284 4
  21615304.806   -26360319.827 7 -15490854.008 6
  20947891.606   -42329015.079 8 -16210110.867 9
  20914063.505   -23579809.997 7 -18178421.788 8
  20320237.512   -27507196.885 8 -21435024.032 9
  21332375.464   -26746147.359 8 -15821180.381 8
 94  2  2  5 53 59.9990000  0  7 20 13  9  5 12 24  4
  23587062.287    -8856970.523 5  -3629213.187 2
  22149088.005    -9797509.276 7  -9228865.667 4
  21626388.463   -26302073.769 7 -15445467.445 6
  20936768.167   -42387471.134 8 -16255660.995 9
  20918256.043   -23557769.955 7 -18161247.695 8
  20318785.707   -27514830.745 8 -21440972.421 9
  21343796.597   -26686141.664 8 -15774422.648 8
 94  2  2  5 54 29.9990000  0  7 20 13  9  5 12 24  4
  23568282.927    -8955656.521 5  -3706111.389 2
  22161318.668    -9733249.271 7  -9178792.992 4
  21637548.657   -26243407.966 7 -15399753.910 6
  20925696.772   -42445658.002 8 -16301001.463 9
  20922566.069   -23535136.158 7 -18143611.020 8
  20317434.633   -27521930.795 8 -21446504.986 9
  21355294.927   -26625712.001 8 -15727334.652 8
 94  2  2  5 54 59.9990000  0  7 20 13  9  5 12 24  4
  23549515.110    -9054286.224 6  -3782965.683 2
  22173556.736    -9668919.240 7  -9128665.691 4
  21648798.489   -26184321.495 7 -15353712.511 6
  20914673.853   -42503585.116 8 -16346139.454 9
  20926984.380   -23511907.144 7 -18125510.490 8
  20316179.941   -27528494.049 7 -21451619.177 9
  21366872.162   -26564872.106 8 -15679926.938 8
 94  2  2  5 55 29.9990000  0  8 20 13  9 16  5 12 24  4
  23530754.098    -9152858.143 5  -3859774.970 2
  22185813.541    -9604520.919 7  -9078485.201 4
  21660122.279   -26124796.323 7 -15307329.288 6
  24689884.998   -12956657.42514  -2926121.101 2
  20903699.650   -42561246.155 9 -16391070.138 9
  20931517.602   -23488083.826 7 -18106946.883 8
  20315037.162   -27534530.593 7 -21456322.984 9
  21378525.095   -26503641.029 8 -15632214.412 8
 94  2  2  5 55 59.9990000  0  8 20 13  9 16  5 12 24  4
  23512008.705    -9251372.276 5  -3936539.234 2
  22198079.369    -9540057.817 7  -9028254.193 4
  21671532.200   -26064832.863 7 -15260604.546 6
  24671868.731   -13051315.189 5  -2999880.324 2
  20892782.168   -42618621.861 9 -16435778.463 9
  20936163.306   -23463668.648 7 -18087922.072 8
  20313982.343   -27540047.763 7 -21460622.055 9
  21390249.199   -26442026.574 8 -15584203.146 8
 94  2  2  5 56 29.9990000  0  8 20 13  9 16  5 12 24  4
  23493271.856    -9349825.965 5  -4013256.368 2
  22210361.357    -9475530.544 7  -8977973.227 4
  21683027.862   -26004429.275 7 -15213536.833 6
  24653824.612   -13146059.116 4  -3073706.753 2
  20881919.308   -42675699.191 9 -16480254.316 9
  20940923.500   -23438661.523 7 -18068436.008 8
  20313033.110   -27545049.698 8 -21464519.660 9
  21402044.473   -26380037.087 8 -15535899.651 8
 94  2  2  5 56 59.9990000  0  8 20 13  9 16  5 12 24  4
  23474549.488    -9448215.477 5  -4089923.480 2
  22222652.668    -9410939.004 7  -8927642.099 4
  21694606.956   -25943582.601 7 -15166123.805 6
  24635793.925   -13240904.263 4  -3147611.992 2
  20871121.263   -42732454.444 9 -16524479.146 9
  20945791.560   -23413060.968 7 -18048487.484 8
  20312174.744   -27549547.745 7 -21468024.595 9
  21413914.336   -26317667.148 8 -15487299.659 8
 94  2  2  5 57 29.9990000  0  8 20 13  9 16  5 12 24  4
  23455839.860    -9546538.754 6  -4166539.005 2
  22234953.422    -9346284.159 7  -8877261.710 4
  21706265.255   -25882302.929 7 -15118373.441 6
  24617715.420   -13335859.003 4  -3221602.658 2
  20860387.824   -42788861.885 9 -16568432.997 9
  20950778.038   -23386867.646 7 -18028077.126 8
  20311417.318   -27553546.595 8 -21471140.562 9
  21425853.031   -26254929.022 8 -15438412.799 8
 94  2  2  5 57 59.9990000  0  8 20 13  9 16  5 12 24  4
  23437146.541    -9644797.536 6  -4243104.304 2
  22247268.477    -9281571.287 7  -8826836.155 4
  21718005.398   -25820618.859 7 -15070308.004 6
  24599611.224   -13430937.923 4  -3295690.154 2
  20849715.692   -42844931.013 9 -16612123.266 9
  20955877.868   -23360085.690 7 -18007208.134 8
  20310750.460   -27557038.826 8 -21473861.826 9
  21437858.939   -26191828.370 8 -15389243.514 8
 94  2  2  5 58 29.9990000  0  8 20 13  9 16  5 12 24  4
  23418458.798    -9742989.648 6  -4319617.643 2
  22259591.955    -9216801.853 7  -8776366.467 4
  21729818.929   -25758539.642 7 -15021934.606 6
  24581507.147   -13526145.543 5  -3369877.883 2
  20839108.675   -42900674.796 8 -16655559.981 9
  20961082.475   -23332715.926 7 -17985881.062 8
  20310185.111   -27560017.141 8 -21476182.586 9
  21449937.397   -26128368.826 8 -15339794.513 7
 94  2  2  5 58 59.9990000  0  8 20 13  9 16  5 12 24  4
  23399786.195    -9841111.110 6  -4396075.876 2
  22271928.565    -9151975.030 7  -8725851.996 4
  21741706.420   -25696072.279 7 -14973258.708 6
  24563373.271   -13621456.695 4  -3444146.234 2
  20828564.405   -42956090.379 9 -16698740.899 9
  20966403.761   -23304756.677 7 -17964094.611 8
  20309717.825   -27562469.339 8 -21478093.333 9
  21462078.452   -26064558.146 7 -15290071.861 7
 94  2  2  5 59 29.9990000  0  8 20 13  9 16  5 12 24  4
  23381128.731    -9939160.000 6  -4472477.605 2
  22284275.067    -9087092.605 7  -8675294.248 4
  21753667.539   -25633217.370 7 -14924280.883 6
  24545217.510   -13716851.356 4  -3518479.702 2
  20818078.024   -43011191.453 9 -16741676.796 9
  20971833.182   -23276209.163 7 -17941849.801 8
  20309358.644   -27564370.615 8 -21479574.843 9
  21474290.408   -26000384.760 7 -15240066.628 7
 94  2  2  5 59 59.9990000  0  8 20 13  9 16  5 12 24  4
  23362483.109   -10037136.466 6  -4548822.891 2
  22296633.832    -9022157.890 7  -8624695.791 4
  21765704.866   -25569965.635 7 -14874993.847 6
  24527046.609   -13812312.146 5  -3592864.726 2
  20807648.994   -43066004.061 9 -16784387.917 9
  20977383.330   -23247075.968 7 -17919148.632 8
  20309099.533   -27565711.764 8 -21480619.890 9
  21486573.175   -25935829.865 7 -15189764.123 7
 94  2  2  6  0 29.9990000  0  8 20 13  9 16  5 12 24  4
  23343850.589   -10135037.516 6  -4625109.417 2
  22309000.750    -8957171.211 7  -8574056.822 4
  21777819.090   -25506304.034 7 -14825387.409 6
  24508882.544   -13907822.189 5  -3667288.141 2
  20797276.565   -43120518.716 9 -16826866.878 9
  20983035.107   -23217356.812 7 -17895990.878 8
  20308950.146   -27566504.223 8 -21481237.397 9
  21498931.340   -25870893.028 7 -15139163.986 7
 94  2  2  6  0 59.9990000  0  8 20 13  9 16  5 12 24  4
  23325236.415   -10232860.315 6  -4701334.960 2
  22321379.331    -8892133.327 7  -8523377.935 4
  21790007.362   -25442235.796 7 -14775464.105 6
  24490680.495   -14003386.854 4  -3741754.117 2
  20786958.548   -43174726.734 9 -16869106.895 9
  20988802.394   -23187051.764 7 -17872376.564 8
  20308898.822   -27566764.552 8 -21481440.240 9
  21511364.212   -25805563.036 7 -15088257.495 7
 94  2  2  6  1 29.9990000  0  8 20 13  9 16  5 12 24  4
  23306642.327   -10330605.813 5  -4777500.297 2
  22333762.048    -8827048.459 7  -8472662.489 4
  21802279.006   -25377761.889 7 -14725224.716 6
  24472486.030   -14099030.432 4  -3816281.545 2
  20776699.590   -43228630.570 9 -16911109.882 9
  20994680.005   -23156164.600 7 -17848308.653 8
  20308949.727   -27566512.572 8 -21481243.887 9
  21523868.376   -25739838.046 7 -15037043.211 7
 94  2  2  6  1 59.9990000  0  8 20 13  9 16  5 12 24  4
  23288055.045   -10428271.186 6  -4853603.155 2
  22346154.539    -8761917.238 7  -8421910.885 4
  21814621.132   -25312893.010 7 -14674677.575 6
  24454282.063   -14194755.826 5  -3890872.817 2
  20766500.831   -43282231.373 9 -16952876.751 9
  21000664.792   -23124695.364 7 -17823787.192 8
  20309090.269   -27565775.587 8 -21480669.622 9
  21536448.837   -25673742.668 7 -14985540.320 7
 94  2  2  6  2 29.9990000  0  8 20 13  9 16  5 12 24  4
  23269484.761   -10525854.149 6  -4929641.879 2
  22358553.895    -8696740.789 7  -8371124.114 4
  21827039.435   -25247649.486 7 -14623838.515 6
  24436040.441   -14290566.970 5  -3965530.907 2
  20756362.959   -43335504.770 9 -16994388.520 9
  21006767.817   -23092644.859 7 -17798812.820 8
  20309318.831   -27564575.182 8 -21479734.266 9
  21549094.682   -25607286.780 7 -14933756.543 7
 94  2  2  6  2 59.9990000  0  8 20 13  9 16  5 12 24  4
  23250933.514   -10623351.160 6  -5005613.557 2
  22370971.988    -8631518.992 7  -8320301.902 4
  21839526.001   -25182026.646 6 -14572703.847 6
  24417797.830   -14386448.523 5  -4040243.799 2
  20746288.583   -43388444.185 9 -17035640.008 9
  21012978.738   -23060012.416 7 -17773384.957 8
  20309639.579   -27562900.854 8 -21478429.600 9
  21561808.670   -25540477.408 7 -14881697.300 7
 94  2  2  6  3 29.9990000  0  8 20 13  9 16  5 12 24  4
  23232392.939   -10720763.200 6  -5081519.038 2
  22383386.514    -8566256.055 7  -8269447.689 4
  21852086.765   -25116016.936 6 -14521267.736 6
  24399542.508   -14482375.682 5  -4114992.251 2
  20736277.614   -43441052.093 9 -17076633.194 9
  21019297.763   -23026801.963 7 -17747506.705 8
  20310049.186   -27560733.031 8 -21476740.381 9
  21574582.977   -25473339.275 7 -14829381.877 7
 94  2  2  6  3 59.9990000  0  8 20 13  9 16  5 12 24  4
  23213877.517   -10818087.319 6  -5157356.006 2
  22395818.008    -8500952.521 7  -8218561.827 4
  21864724.276   -25049619.040 7 -14469529.131 6
  24381291.953   -14578325.039 5  -4189757.945 2
  20726332.059   -43493317.613 9 -17117359.571 9
  21025724.894   -22993013.411 7 -17721177.968 8
  20310559.942   -27558063.803 8 -21474660.460 9
  21587421.859   -25405867.992 7 -14776806.861 7
 94  2  2  6  4 29.9990000  0  8 20 13  9 16  5 12 24  4
  23195369.440   -10915319.088 6  -5233121.007 2
  22408250.221    -8435607.535 7  -8167643.657 4
  21877436.526   -24982811.535 7 -14417471.355 6
  24363017.474   -14674295.381 5  -4264540.075 2
  20716457.375   -43545217.165 9 -17157800.784 9
  21032265.286   -22958645.713 7 -17694397.939 8
  20311163.334   -27554878.437 8 -21472178.354 9
  21600329.963   -25338052.835 7 -14723963.893 7
 94  2  2  6  4 59.9990000  0  8 20 13  9 16  5 12 24  4
  23176889.094   -11012457.411 6  -5308813.207 2
  22420693.557    -8370223.008 7  -8116694.690 4
  21890225.043   -24915580.209 6 -14365083.318 6
  24344758.884   -14770298.140 5  -4339347.406 2
  20706647.476   -43596766.886 9 -17197969.405 9
  21038916.421   -22923700.499 7 -17667167.920 8
  20311868.986   -27551158.684 8 -21469279.854 9
  21613294.787   -25269901.548 7 -14670858.984 7
 94  2  2  6  5 29.9990000  0  8 20 13  9 16  5 12 24  4
  23158419.000   -11109499.260 6  -5384430.253 2
  22433141.629    -8304799.325 6  -8065715.212 4
  21903095.702   -24847941.116 6 -14312377.568 6
  24326473.973   -14866357.308 5  -4414198.726 2
  20696902.872   -43647971.688 9 -17237869.254 9
  21045678.210   -22888178.058 7 -17639488.109 8
  20312680.494   -27546911.223 8 -21465970.139 9
  21626331.083   -25201399.935 7 -14617481.104 7
 94  2  2  6  5 59.9990000  0  8 20 13  9 16  5 12 24  4
  23139971.661   -11206442.841 6  -5459970.684 2
  22445599.625    -8239338.287 7  -8014706.603 3
  21916041.730   -24779913.069 6 -14259368.708 6
  24308175.930   -14962490.774 5  -4489107.897 2
  20687224.792   -43698834.528 9 -17277502.645 9
  21052547.834   -22852079.778 7 -17611359.599 8
  20313583.349   -27542155.209 8 -21462264.141 9
  21639434.771   -25132539.764 7 -14563823.835 7
 94  2  2  6  6 29.9990000  0  8 20 13  9 16  5 12 24  4
  23121541.230   -11303287.009 6  -5535433.642 2
  22458065.145    -8173841.931 7  -7963670.494 3
  21929062.916   -24711509.963 7 -14206067.606 6
  24289861.009   -15058713.000 4  -4564086.248 2
  20677604.932   -43749375.954 9 -17316885.567 9
  21059523.795   -22815407.574 7 -17582783.870 8
  20314587.534   -27536886.604 8 -21458158.736 9
  21652603.784   -25063333.605 7 -14509896.960 7
 94  2  2  6  6 59.9990000  0  8 20 13  9 16  5 12 24  4
  23103134.633   -11400027.439 6  -5610815.791 3
  22470533.843    -8108309.441 7  -7912606.221 3
  21942142.171   -24642757.178 6 -14152494.023 6
  24271550.435   -15155008.578 5  -4639121.768 2
  20668049.167   -43799600.109 8 -17356021.280 9
  21066613.677   -22778160.628 7 -17553760.288 8
  20315682.676   -27531111.624 8 -21453658.740 9
  21665842.080   -24993773.729 7 -14455694.455 7
 94  2  2  6  7 29.9990000  0  8 20 13  9 16  5 12 24  4
  23084745.693   -11496664.180 6  -5686117.138 3
  22483007.878    -8042744.260 7  -7861516.499 3
  21955291.758   -24573679.192 6 -14098667.032 6
  24253212.011   -15251360.077 5  -4714200.838 2
  20658555.520   -43849484.887 9 -17394892.540 9
  21073806.118   -22740342.010 7 -17524291.260 8
  20316877.768   -27524853.729 8 -21448782.453 9
  21679144.321   -24923867.214 7 -14401221.845 7
 94  2  2  6  7 59.9990000  0  8 20 13  9 16  5 12 24  4
  23066379.388   -11593193.860 6  -5761335.068 3
  22495492.674    -7977146.286 7  -7810401.181 4
  21968495.007   -24504271.970 6 -14044583.480 6
  24234871.338   -15347750.343 5  -4789310.113 2
  20649130.704   -43899019.889 9 -17433491.237 9
  21081110.951   -22701951.727 7 -17494376.761 8
  20318158.601   -27518109.475 8 -21443527.187 9
  21692511.527   -24853626.880 7 -14346489.124 7
 94  2  2  6  8 29.9990000  0  8 20 13  9 16  5 12 24  4
  23048021.387   -11689615.153 6  -5836468.559 3
  22507980.859    -7911517.656 7  -7759262.002 4
  21981772.635   -24434538.058 7 -13990245.411 6
  24216521.731   -15444164.272 5  -4864437.889 2
  20639772.293   -43948195.384 9 -17471809.817 9
  21088527.516   -22662991.823 7 -17464018.404 8
  20319538.756   -27510872.786 8 -21437888.217 9
  21705938.152   -24783057.454 7 -14291499.962 7
 94  2  2  6  8 59.9990000  0  8 20 13  9 16  5 12 24  4
  23029696.303   -11785925.829 6  -5911515.828 3
  22520475.219    -7845859.482 7  -7708099.808 3
  21995099.579   -24364475.251 7 -13935651.035 6
  24198176.321   -15540590.906 5  -4939575.468 2
  20630486.821   -43996989.801 8 -17509831.445 9
  21096048.559   -22623463.359 7 -17433217.037 8
  20321006.210   -27503146.707 8 -21431867.886 9
  21719430.671   -24712166.367 7 -14236260.161 7
 94  2  2  6  9 29.9990000  0  8 20 13  9 16  5 12 24  4
  23011396.522   -11882123.450 6  -5986475.025 3
  22532975.246    -7780172.605 7  -7656915.237 3
  22008500.512   -24294067.693 7 -13880788.024 6
  24179813.823   -15637033.543 5  -5014725.560 2
  20621272.970   -44045408.291 8 -17547560.141 9
  21103681.305   -22583367.297 7 -17401973.347 8
  20322573.195   -27494913.962 8 -21425452.755 9
  21732976.194   -24640967.191 7 -14180780.289 7
 94  2  2  6  9 59.9990000  0  8 20 13  9 16  5 12 24  4
  22993104.535   -11978205.902 6  -6061344.435 3
  22545479.110    -7714458.275 7  -7605709.278 3
  22021966.140   -24223299.120 6 -13825643.696 6
  24161453.694   -15733494.899 5  -5089890.239 2
  20612127.381   -44093470.252 8 -17585011.007 9
  21111422.726   -22542705.188 7 -17370288.618 8
  20324239.592   -27486151.968 8 -21418625.231 9
  21746586.471   -24569459.277 7 -14125059.810 7
 94  2  2  6 10 29.9990000  0  8 20 13  9 16  5 12 24  4
  22974849.123   -12074169.651 6  -6136121.389 3
  22557991.338    -7648716.527 7  -7554481.937 3
  22035504.348   -24152171.305 7 -13770219.423 6
  24143097.222   -15829971.225 5  -5165066.561 2
  20603049.755   -44141175.902 8 -17622184.243 9
  21119262.029   -22501476.738 7 -17338162.565 8
  20326007.228   -27476858.832 8 -21411383.797 9
  21760252.691   -24497641.135 7 -14069097.640 7
 94  2  2  6 10 59.9990000  0  8 20 13  9 16  5 12 24  4
  22956609.150   -12170010.036 6  -6210802.216 3
  22570505.094    -7582945.668 7  -7503231.926 3
  22049106.381   -24080676.217 7 -13714508.976 6
  24124745.786   -15926465.168 5  -5240256.616 2
  20594041.502   -44188516.844 9 -17659073.297 9
  21127214.024   -22459680.514 7 -17305594.112 8
  20327878.652   -27467037.648 8 -21403730.928 9
  21773978.928   -24425509.012 7 -14012890.802 7
 94  2  2  6 11 29.9990000  0  8 20 13  9 16  5 12 24  4
  22938399.516   -12265727.355 6  -6285387.123 3
  22583026.286    -7517149.216 6  -7451961.966 3
  22062781.264   -24008814.054 6 -13658512.498 6
  24106374.834   -16022981.998 5  -5315464.513 2
  20585100.222   -44235498.426 9 -17695682.339 9
  21135277.992   -22417320.339 7 -17272586.203 8
  20329845.111   -27456706.986 8 -21395681.052 9
  21787764.614   -24353053.229 7 -13956431.760 7
 94  2  2  6 11 59.9990000  0  8 20 13  9 16  5 12 24  4
  22920207.810   -12361317.984 6  -6359873.321 3
  22595556.232    -7451327.212 7  -7400672.112 3
  22076522.761   -23936598.477 6 -13602240.634 6
  24087998.696   -16119522.863 5  -5390691.156 2
  20576230.652   -44282110.935 9 -17732003.785 9
  21143448.625   -22374396.362 7 -17239138.965 8
  20331904.895   -27445882.359 8 -21387246.292 9
  21801617.424   -24280275.660 7 -13899721.960 7
 94  2  2  6 12 29.9990000  0  8 20 13  9 16  5 12 24  4
  22902041.706   -12456780.141 6  -6434259.394 3
  22608080.781    -7385481.285 7  -7349363.564 3
  22090324.936   -23864044.099 6 -13545704.769 6
  24069625.405   -16216080.832 5  -5465931.103 2
  20567433.692   -44328343.071 8 -17768028.790 9
  21151721.608   -22330910.630 7 -17205253.966 8
  20334050.090   -27434591.644 8 -21378448.304 9
  21815525.726   -24207182.662 7 -13842766.359 7
 94  2  2  6 12 59.9990000  0  8 20 13  9 16  5 12 24  4
  22883901.804   -12552111.080 6  -6508543.228 3
  22620614.984    -7319611.795 6  -7298036.664 3
  22104203.948   -23791138.769 6 -13488895.397 6
  24051244.110   -16312651.651 5  -5541181.026 2
  20558709.462   -44374193.949 8 -17803756.718 9
  21160098.349   -22286863.664 7 -17170931.644 8
  20336290.889   -27422838.740 8 -21369290.169 9
  21829495.755   -24133769.637 7 -13785561.375 6
 94  2  2  6 13 29.9990000  0  8 20 13  9 16  5 12 24  4
  22865785.616   -12647308.073 6  -6582722.684 3
  22633156.052    -7253719.123 6  -7246691.739 3
  22118141.599   -23717890.922 6 -13431819.169 5
  24032862.515   -16409226.399 5  -5616434.079 2
  20550052.295   -44419674.645 8 -17839196.225 9
  21168591.409   -22242256.212 7 -17136172.614 8
  20338612.661   -27410617.658 8 -21359767.257 9
  21843525.262   -24060042.692 7 -13728111.813 7
 94  2  2  6 13 59.9990000  0  8 20 13  9 16  5 12 24  4
  22847692.542   -12742369.944 6  -6656796.869 3
  22645700.987    -7187805.826 7  -7195330.744 3
  22132139.299   -23644315.230 6 -13374487.459 5
  24014498.519   -16505794.600 5  -5691682.014 2
  20541470.676   -44464783.508 9 -17874345.993 9
  21177187.598   -22197091.147 7 -17100979.062 8
  20341029.678   -27397908.854 8 -21349864.296 9
  21857609.872   -23986008.865 7 -13670423.121 7
 94  2  2  6 14 29.9990000  0  8 20 13  9 16  5 12 24  4
  22829633.254   -12837291.453 6  -6730761.670 3
  22658243.914    -7121870.055 7  -7143952.235 3
  22146208.619   -23570405.644 6 -13316895.580 5
  23996128.496   -16602336.807 5  -5766909.700 2
  20532957.979   -44509515.541 9 -17909202.120 9
  21185887.215   -22151367.085 7 -17065349.915 8
  20343545.776   -27384703.876 8 -21339574.707 9
  21871762.024   -23911653.029 7 -13612483.525 7
 94  2  2  6 14 59.9990000  0  8 20 13  9 16  5 12 24  4
  22811596.271   -12932071.223 6  -6804616.039 3
  22670797.184    -7055913.491 7  -7092557.518 3
  22160334.540   -23496172.245 6 -13259051.378 5
  23977752.717   -16698846.935 5  -5842112.402 2
  20524513.845   -44553873.047 8 -17943766.428 9
  21194694.518   -22105086.275 7 -17029286.948 8
  20346156.399   -27370985.039 8 -21328884.686 9
  21885970.838   -23836977.585 7 -13554294.873 7
 94  2  2  6 15 29.9990000  0  8 20 13  9 16  5 12 24  4
  22793584.949   -13026708.988 6  -6878359.744 3
  22683354.980    -6989939.247 7  -7041149.006 3
  22174516.851   -23421639.255 6 -13200973.735 5
  23959396.785   -16795319.806 5  -5917286.026 2
  20516145.438   -44597852.634 9 -17978036.230 9
  21203603.781   -22058252.005 7 -16992792.718 7
  20348862.116   -27356756.532 8 -21317797.535 9
  21900240.089   -23762004.907 7 -13495874.592 6
 94  2  2  6 15 59.9990000  0  8 20 13  9 16  5 12 24  4
  22775605.826   -13121202.827 6  -6951991.314 3
  22695909.689    -6923948.942 7  -6989728.007 3
  22188764.338   -23346805.056 6 -13142661.381 5
  23941053.114   -16891762.949 5  -5992436.468 2
  20507851.650   -44641442.514 8 -18012002.373 9
  21212621.178   -22010866.328 7 -16955868.838 7
  20351664.336   -27342033.995 8 -21306325.424 9
  21914559.316   -23686741.786 7 -13437227.999 6
 94  2  2  6 16 29.9990000  0  8 20 13  9 16  5 12 24  4
  22757655.543   -13215549.066 6  -7025507.820 3
  22708469.704    -6857942.275 7  -6938294.245 3
  22203055.744   -23271669.012 6 -13084113.842 5
  23922710.522   -16988183.920 5  -6067569.675 2
  20499630.981   -44684643.733 8 -18045665.668 9
  21221745.301   -21962929.833 7 -16918515.714 7
  20354556.824   -27326834.144 8 -21294481.383 9
  21928935.174   -23611195.519 7 -13378360.775 6
 94  2  2  6 16 59.9990000  0  8 20 13  9 16  5 12 24  4
  22739725.526   -13309747.239 6  -7098909.026 3
  22721032.596    -6791921.678 6  -6886849.623 3
  22217408.098   -23196233.655 6 -13025333.041 5
  23904350.393   -17084610.343 5  -6142707.120 2
  20491485.620   -44727450.859 8 -18079021.861 9
  21230971.234   -21914445.350 7 -16880735.627 7
  20357538.290   -27311170.499 8 -21282275.948 9
  21943362.776   -23535385.323 7 -13319287.913 6
 94  2  2  6 17 29.9990000  0  8 20 13  9 16  5 12 24  4
  22721831.603   -13403793.803 6  -7172192.054 3
  22733600.346    -6725886.854 7  -6835393.922 3
  22231822.420   -23120484.249 6 -12966307.550 5
  23885996.619   -17181063.600 5  -6217865.463 2
  20483415.327   -44769855.503 8 -18112064.440 9
  21240301.315   -21865413.170 7 -16842528.736 7
  20360608.704   -27295044.032 8 -21269709.875 9
  21957842.692   -23459305.758 7 -13260005.129 6
 94  2  2  6 17 59.9990000  0  8 20 13  9 16  5 12 24  4
  22703963.703   -13497686.008 6  -7245354.804 3
  22746169.564    -6659838.395 7  -6783927.590 3
  22246295.290   -23044414.156 6 -12907032.165 5
  23867639.667   -17277543.522 5  -6293044.644 2
  20475423.010   -44811855.389 9 -18144791.633 9
  21249736.743   -21815834.620 7 -16803896.135 7
  20363763.840   -27278445.186 8 -21256775.712 9
  21972374.352   -23382934.273 7 -13200494.872 6
 94  2  2  6 18 29.9990000  0  8 20 13  9 16  5 12 24  4
  22686125.032   -13591420.486 6  -7318394.669 3
  22758738.783    -6593776.428 7  -6732450.774 3
  22260835.284   -22968016.137 6 -12847501.274 5
  23849267.516   -17374036.735 5  -6368234.107 2
  20467505.671   -44853453.792 9 -18177205.983 9
  21259274.431   -21765710.176 7 -16764838.144 7
  20367018.177   -27261360.499 8 -21243462.972 9
  21986968.938   -23306260.571 7 -13140749.132 6
 94  2  2  6 18 59.9990000  0  8 20 13  9 16  5 12 24  4
  22668317.960   -13684996.507 6  -7391311.043 3
  22771309.590    -6527703.173 6  -6680965.134 3
  22275443.122   -22891281.058 6 -12787707.716 5
  23830921.806   -17470516.463 5  -6443413.108 2
  20459669.156   -44894646.499 8 -18209304.205 9
  21268916.805   -21715043.095 7 -16725357.335 7
  20370361.462   -27243781.693 8 -21229765.216 9
  22001614.939   -23229273.834 7 -13080759.504 6
 94  2  2  6 19 29.9990000  0  8 20 13  9 16  5 12 24  4
  22650540.897   -13778412.941 6  -7464103.048 3
  22783889.871    -6461621.365 7  -6629472.783 3
  22290109.808   -22814221.265 6 -12727661.112 5
  23812560.717   -17566948.771 5  -6518555.145 2
  20451907.889   -44935437.711 8 -18241089.539 9
  21278662.758   -21663836.698 7 -16685456.239 7
  20373803.679   -27225701.383 8 -21215676.627 9
  22016324.945   -23151969.491 7 -13020522.335 6
 94  2  2  6 19 59.9990000  0  8 20 13  9 16  5 12 24  4
  22632798.819   -13871663.461 6  -7536765.786 3
  22796463.137    -6395527.620 6  -6577971.149 3
  22304831.866   -22736843.850 6 -12667367.026 5
  23794236.623   -17663292.095 5  -6593627.846 2
  20444220.880   -44975829.172 8 -18272563.417 9
  21288509.472   -21612088.547 7 -16645133.018 7
  20377335.924   -27207129.608 8 -21201205.124 9
  22031095.000   -23074354.830 7 -12960043.372 6
 94  2  2  6 20 29.9990000  0  8 20 13  9 16  5 12 24  4
  22615084.413   -13964749.230 6  -7609300.152 3
  22809043.418    -6329426.580 6  -6526463.856 3
  22319611.155   -22659156.013 6 -12606831.058 5
  23775912.378   -17759547.552 5  -6668632.068 2
  20436608.251   -45015822.550 9 -18303727.082 9
  21298458.534   -21559803.907 7 -16604391.765 7
  20380959.485   -27188087.481 8 -21186367.097 9
  22045915.690   -22996457.881 7 -12899344.459 6
 94  2  2  6 20 59.9990000  0  8 20 13  9 16  5 12 24  4
  22597400.045   -14057668.689 6  -7681704.909 3
  22821620.911    -6263319.980 6  -6474952.251 3
  22334448.393   -22581176.317 6 -12546067.643 5
  23757610.379   -17855728.433 5  -6743578.212 2
  20429077.764   -45055404.693 9 -18334570.315 9
  21308508.297   -21506985.163 7 -16563234.291 7
  20384672.865   -27168581.863 8 -21171167.910 9
  22060788.904   -22918310.897 7 -12838450.682 6
 94  2  2  6 21 29.9990000  0  8 20 13  9 16  5 12 24  4
  22579752.643   -14150418.523 6  -7753977.485 3
  22834202.930    -6197207.423 6  -6423435.970 3
  22349344.631   -22502919.444 6 -12485088.270 5
  23739313.985   -17951856.383 5  -6818483.089 2
  20421624.743   -45094568.649 9 -18365087.688 9
  21318660.049   -21453633.223 7 -16521661.355 7
  20388470.216   -27148618.912 8 -21155612.369 9
  22075704.118   -22839941.416 7 -12777383.545 6
 94  2  2  6 21 59.9990000  0  8 20 13  9 16  5 12 24  4
  22562131.202   -14242996.362 6  -7826116.069 3
  22846785.220    -6131089.990 6  -6371915.905 3
  22364287.696   -22424385.021 6 -12423892.621 5
  23721039.236   -18047940.559 5  -6893353.836 2
  20414253.806   -45133308.050 9 -18395274.227 9
  21328915.049   -21399749.935 7 -16479674.381 7
  20392355.886   -27128203.881 8 -21139704.548 9
  22090655.427   -22761357.514 7 -12716149.338 6
 94  2  2  6 22 29.9990000  0  8 20 13  9 16  5 12 24  4
  22544552.871   -14335400.185 7  -7898119.039 4
  22859360.254    -6064968.963 6  -6320392.997 3
  22379282.025   -22345584.446 6 -12362489.616 4
  23702758.042   -18143998.273 5  -6968203.992 2
  20406964.532   -45171610.814 9 -18425120.543 9
  21339268.412   -21345337.514 7 -16437275.092 7
  20396328.645   -27107324.895 8 -21123435.216 9
  22105652.155   -22682549.144 7 -12654740.230 6
 94  2  2  6 22 59.9990000  0  8 20 13  9 16  5 12 24  4
  22527000.802   -14427627.880 6  -7969984.775 4
  22871946.891    -5998845.338 6  -6268868.122 3
  22394327.170   -22266519.926 6 -12300880.849 4
  23684484.433   -18240022.751 5  -7043028.243 2
  20399756.742   -45209472.890 8 -18454623.442 9
  21349724.333   -21290397.797 7 -16394464.931 7
  20400392.032   -27085969.926 8 -21106794.986 9
  22120697.240   -22603494.661 7 -12593139.344 6
 94  2  2  6 23 29.9990000  0  8 20 13  9 16  5 12 24  4
  22509485.278   -14519675.737 6  -8041710.360 4
  22884534.426    -5932718.730 6  -6217340.890 2
  22409427.296   -22187181.549 6 -12239058.748 5
  23666217.089   -18335989.738 5  -7117807.718 2
  20392633.614   -45246912.479 9 -18483797.153 9
  21360279.396   -21234931.506 7 -16351244.464 7
  20404544.398   -27064141.736 8 -21089785.992 9
  22135792.869   -22524156.561 7 -12531317.454 6
 94  2  2  6 23 59.9990000  0  8 20 13  9 16  5 12 24  4
  22492004.979   -14611542.940 7  -8113295.186 4
  22897115.847    -5866591.464 6  -6165813.148 3
  22424573.591   -22107565.959 6 -12177020.647 5
  23647979.754   -18431890.723 5  -7192535.748 2
  20385587.322   -45283945.296 9 -18512653.885 9
  21370934.050   -21178942.068 7 -16307616.330 7
  20408790.418   -27041841.063 8 -21072408.845 9
  22150949.387   -22444518.637 7 -12469261.904 6
 94  2  2  6 24 29.9990000  0  8 20 13  9 16  5 12 24  4
  22474556.848   -14703225.223 6  -8184735.918 4
  22909704.222    -5800462.509 6  -6114284.103 3
  22439778.435   -22027667.824 6 -12114762.374 4
  23629733.366   -18527723.681 5  -7267210.758 2
  20378619.066   -45320575.655 9 -18541197.025 9
  21381686.227   -21122429.317 7 -16263580.452 7
  20413122.689   -27019069.315 8 -21054664.631 9
  22166161.696   -22364578.698 7 -12406971.059 6
 94  2  2  6 24 59.9990000  0  8 20 13  9 16  5 12 24  4
  22457145.742   -14794721.511 7  -8256031.724 4
  22922287.081    -5734333.963 6  -6062755.381 3
  22455037.871   -21947478.924 6 -12052277.507 4
  23611515.608   -18623482.661 5  -7341828.133 2
  20371720.092   -45356811.612 9 -18569432.841 9
  21392541.412   -21065396.747 7 -16219139.506 7
  20417544.208   -26995841.947 8 -21036565.379 9
  22181423.350   -22284356.688 7 -12344460.413 6
 94  2  2  6 25 29.9990000  0  8 20 13  9 16  5 12 24  4
  22439769.861   -14886032.693 7  -8327183.293 4
  22934869.490    -5668210.434 6  -6011230.557 3
  22470348.511   -21867017.139 6 -11989580.016 4
  23593297.820   -18719179.488 5  -7416397.087 2
  20364898.224   -45392668.344 9 -18597373.160 9
  21403493.190   -21007849.584 7 -16174297.573 7
  20422049.489   -26972172.194 8 -21018121.404 9
  22196738.967   -22203875.742 7 -12281747.990 6
 94  2  2  6 25 59.9990000  0  8 20 13  9 16  5 12 24  4
  22422429.085   -14977157.317 7  -8398189.514 4
  22947448.212    -5602093.323 6  -5959710.730 2
  22485713.624   -21786298.258 6 -11926682.166 4
  23575099.398   -18814825.329 5  -7490926.293 2
  20358153.074   -45428126.729 9 -18625003.069 9
  21414538.713   -20949790.787 7 -16129056.970 7
  20426635.864   -26948060.694 8 -20999333.228 9
  22212101.112   -22123166.005 7 -12218857.285 6
 94  2  2  6 26 29.9990000  0  8 20 13  9 16  5 12 24  4
  22405123.626   -15068089.497 6  -8469045.732 4
  22960033.410    -5535979.834 6  -5908193.733 3
  22501117.560   -21705327.949 6 -11863588.409 4
  23556922.472   -18910420.308 5  -7565415.865 2
  20351484.011   -45463164.346 9 -18652305.108 9
  21425686.586   -20891218.812 7 -16083416.484 7
  20431307.800   -26923512.442 8 -20980204.716 9
  22227502.830   -22042236.266 7 -12155795.147 6
 94  2  2  6 26 59.9990000  0  8 20 13  9 16  5 12 24  4
  22387856.390   -15158826.266 6  -8539749.711 4
  22972612.581    -5469870.427 6  -5856679.928 3
  22516574.140   -21624113.408 6 -11800304.363 4
  23538728.038   -19005965.693 5  -7639866.799 2
  20344896.551   -45497777.850 9 -18679276.676 9
  21436932.131   -20832135.060 7 -16037377.219 7
  20436060.680   -26898527.500 8 -20960735.926 9
  22242940.433   -21961095.326 7 -12092568.443 6
 94  2  2  6 27 29.9990000  0  8 20 13  9 16  5 12 24  4
  22370626.807   -15249367.511 6  -8610301.326 4
  22985187.676    -5403768.022 6  -5805171.553 3
  22532074.070   -21542657.773 6 -11736832.436 4
  23520560.495   -19101453.159 5  -7714272.571 2
  20338391.744   -45531962.414 9 -18705914.001 9
  21448268.573   -20772543.909 7 -15990942.538 7
  20440898.940   -26873101.697 8 -20940923.600 9
  22258419.557   -21879748.540 7 -12029181.343 6
 94  2  2  6 27 59.9990000  0  8 20 13  9 16  5 12 24  4
  22353435.868   -15339711.389 7  -8680699.141 4
  22997768.406    -5337674.316 6  -5753669.971 3
  22547619.628   -21460952.931 6 -11673166.315 4
  23502403.175   -19196867.825 5  -7788621.661 2
  20331971.389   -45565699.885 9 -18732202.940 9
  21459704.366   -20712448.066 7 -15944114.642 7
  20445822.552   -26847224.285 8 -20920759.394 9
  22273938.253   -21798203.186 7 -11965639.508 6
 94  2  2  6 28 29.9990000  0  8 20 13  9 16  5 12 24  4
  22336283.063   -15429855.129 6  -8750940.995 4
  23010344.610    -5271589.325 6  -5702175.193 3
  22563217.560   -21378993.460 6 -11609301.819 4
  23484258.116   -19292201.905 5  -7862907.923 2
  20325634.736   -45598988.463 9 -18758142.108 9
  21471236.182   -20651849.183 7 -15896894.726 7
  20450836.041   -26820886.720 8 -20900236.602 9
  22289495.353   -21716449.799 7 -11901935.580 6
 94  2  2  6 28 59.9990000  0  8 20 13  9 16  5 12 24  4
  22319168.002   -15519796.316 7  -8821025.038 4
  23022922.043    -5205513.818 6  -5650687.797 3
  22578861.629   -21296782.425 6 -11545241.271 4
  23466137.941   -19387435.510 5  -7937115.935 2
  20319387.481   -45631830.145 9 -18783733.027 9
  21482863.363   -20590749.253 7 -15849284.409 6
  20455934.971   -26794078.334 8 -20879346.960 9
  22305092.416   -21634483.205 7 -11838065.529 6
 94  2  2  6 29 29.9990000  0  8 20 13  9 16  5 12 24  4
  22302088.765   -15609533.080 6  -8890949.778 4
  23035486.375    -5139448.954 6  -5599208.692 3
  22594556.334   -21214327.101 6 -11480990.367 4
  23448037.491   -19482551.260 5  -8011232.069 2
  20313223.988   -45664219.116 9 -18808971.177 9
  21494584.349   -20529150.989 7 -15801285.762 6
  20461130.974   -26766789.425 8 -20858082.868 9
  22320732.319   -21552289.137 7 -11774018.175 6
 94  2  2  6 29 59.9990000  0  8 20 13  9 16  5 12 24  4
  22285057.736   -15699063.865 7  -8960714.022 4
  23048057.812    -5073396.635 6  -5547739.328 3
  22610284.736   -21131648.060 6 -11416565.166 4
  23429959.736   -19577560.701 5  -8085265.388 2
  20307147.734   -45696149.148 8 -18833851.729 9
  21506400.429   -20467057.427 7 -15752901.192 6
  20466413.557   -26739031.545 8 -20836453.360 9
  22336419.079   -21469861.442 7 -11709788.826 6
 94  2  2  6 30 29.9990000  0  8 20 13  9 16  5 12 24  4
  22268056.116   -15788383.643 7  -9030313.856 4
  23060625.621    -5007355.111 6  -5496278.417 3
  22626067.639   -21048744.843 6 -11351965.240 4
  23411901.408   -19672460.091 5  -8159212.968 2
  20301156.742   -45727631.491 9 -18858383.415 9
  21518308.695   -20404468.367 7 -15704130.494 6
  20471778.283   -26710827.177 8 -20814475.936 9
  22352153.146   -21387183.387 7 -11645364.365 6
 94  2  2  6 30 59.9990000  0  8 20 13  9 16  5 12 24  4
  22251098.715   -15877492.594 7  -9099749.385 4
  23073187.854    -4941327.712 6  -5444828.508 3
  22641882.411   -20965628.372 6 -11287199.170 4
  23393865.324   -19767246.964 5  -8233072.848 2
  20295248.432   -45758679.216 9 -18882576.452 9
  21530314.124   -20341388.628 7 -15654977.466 6
  20477228.570   -26682189.979 8 -20792161.234 9
  22367934.941   -21304251.900 7 -11580742.456 6
 94  2  2  6 31 29.9990000  0  8 20 13  9 16  5 12 24  4
  22234185.024   -15966386.241 7  -9169017.167 4
  23085754.765    -4875313.114 6  -5393388.577 2
  22657737.984   -20882297.821 6 -11222266.276 4
  23375849.806   -19861930.880 6  -8306852.494 2
  20289423.914   -45789293.849 9 -18906432.041 9
  21542412.608   -20277818.359 7 -15605442.204 6
  20482756.773   -26653134.223 8 -20769520.369 9
  22383762.604   -21221071.893 7 -11515926.842 6
 94  2  2  6 31 59.9990000  0  8 20 13  9 16  5 12 24  4
  22217312.914   -16055065.170 7  -9238117.632 4
  23098310.522    -4809314.842 6  -5341961.345 2
  22673634.659   -20798748.664 6 -11157163.045 4
  23357838.005   -19956516.813 5  -8380555.843 2
  20283678.482   -45819476.543 8 -18929951.026 9
  21554601.900   -20213762.648 7 -15555528.681 6
  20488362.562   -26623683.203 8 -20746571.522 9
  22399633.736   -21137656.799 7 -11450928.071 6
 94  2  2  6 32 29.9990000  0  8 20 13  9 16  5 12 24  4
  22200476.270   -16143523.244 7  -9307045.992 4
  23110866.130    -4743329.794 6  -5290544.440 3
  22689581.460   -20714970.870 6 -11091881.655 4
  23339867.276   -20050987.854 5  -8454169.611 2
  20278017.111   -45849225.155 9 -18953131.771 9
  21566882.088   -20149220.114 7 -15505235.811 6
  20494047.436   -26593819.315 8 -20723300.950 9
  22415555.054   -21054003.615 6 -11385743.784 6
 94  2  2  6 32 59.9990000  0  8 20 13  9 16  5 12 24  4
  22183685.674   -16231755.628 7  -9375798.504 4
  23123420.479    -4677356.775 6  -5239136.904 3
  22705568.882   -20630965.666 6 -11026423.075 4
  23321915.164   -20145342.808 5  -8527692.909 2
  20272444.689   -45878522.044 9 -18975960.526 9
  21579259.320   -20084190.896 7 -15454563.696 6
  20499811.516   -26563535.773 8 -20699703.387 9
  22431514.116   -20970129.593 6 -11320387.418 6
